<?xml version="1.0" encoding="UTF-8" standalone="no" ?>
<gpx xmlns="http://www.topografix.com/GPX/1/1" xmlns:xsi="http://www.w3.org/2001/XMLSchema-instance" xsi:schemaLocation="http://www.topografix.com/GPX/1/1 http://www.topografix.com/GPX/1/1/gpx.xsd" version="1.1" creator="VisuGPX - https://www.visugpx.com">
  <metadata>
    <name>20 Chô 17-03-12 Cléon (76)</name>
    <desc><![CDATA[Randonnée VTT au départ de Cléon en forêt de La Londe-Rouvray]]></desc>
  </metadata>
  <trk>
    <name><![CDATA[20 Cho 17]]></name>
    <trkseg>
      <trkpt lat="49.3129" lon="1.04195">
        <ele>17</ele>
        <time>2017-03-12T08:07:06Z</time>
      </trkpt>
      <trkpt lat="49.31278" lon="1.04218">
        <ele>18</ele>
        <time>2017-03-12T08:07:23Z</time>
      </trkpt>
      <trkpt lat="49.31273" lon="1.0424">
        <ele>18</ele>
        <time>2017-03-12T08:07:29Z</time>
      </trkpt>
      <trkpt lat="49.31273" lon="1.04265">
        <ele>18</ele>
        <time>2017-03-12T08:07:33Z</time>
      </trkpt>
      <trkpt lat="49.31273" lon="1.0429">
        <ele>16</ele>
        <time>2017-03-12T08:07:37Z</time>
      </trkpt>
      <trkpt lat="49.31263" lon="1.04308">
        <ele>16</ele>
        <time>2017-03-12T08:07:42Z</time>
      </trkpt>
      <trkpt lat="49.31258" lon="1.0433">
        <ele>16</ele>
        <time>2017-03-12T08:07:48Z</time>
      </trkpt>
      <trkpt lat="49.3126" lon="1.04353">
        <ele>16</ele>
        <time>2017-03-12T08:07:55Z</time>
      </trkpt>
      <trkpt lat="49.31245" lon="1.04358">
        <ele>17</ele>
        <time>2017-03-12T08:08:02Z</time>
      </trkpt>
      <trkpt lat="49.3123" lon="1.04355">
        <ele>17</ele>
        <time>2017-03-12T08:08:10Z</time>
      </trkpt>
      <trkpt lat="49.31215" lon="1.04355">
        <ele>18</ele>
        <time>2017-03-12T08:08:16Z</time>
      </trkpt>
      <trkpt lat="49.31203" lon="1.04345">
        <ele>18</ele>
        <time>2017-03-12T08:08:21Z</time>
      </trkpt>
      <trkpt lat="49.31198" lon="1.04318">
        <ele>18</ele>
        <time>2017-03-12T08:08:26Z</time>
      </trkpt>
      <trkpt lat="49.31195" lon="1.04293">
        <ele>18</ele>
        <time>2017-03-12T08:08:30Z</time>
      </trkpt>
      <trkpt lat="49.3119" lon="1.04258">
        <ele>18</ele>
        <time>2017-03-12T08:08:35Z</time>
      </trkpt>
      <trkpt lat="49.31188" lon="1.04235">
        <ele>18</ele>
        <time>2017-03-12T08:08:38Z</time>
      </trkpt>
      <trkpt lat="49.3118" lon="1.04215">
        <ele>19</ele>
        <time>2017-03-12T08:08:41Z</time>
      </trkpt>
      <trkpt lat="49.3117" lon="1.04198">
        <ele>18</ele>
        <time>2017-03-12T08:08:44Z</time>
      </trkpt>
      <trkpt lat="49.3116" lon="1.04175">
        <ele>19</ele>
        <time>2017-03-12T08:08:47Z</time>
      </trkpt>
      <trkpt lat="49.3115" lon="1.04145">
        <ele>20</ele>
        <time>2017-03-12T08:08:51Z</time>
      </trkpt>
      <trkpt lat="49.31138" lon="1.04125">
        <ele>21</ele>
        <time>2017-03-12T08:08:54Z</time>
      </trkpt>
      <trkpt lat="49.31125" lon="1.04098">
        <ele>21</ele>
        <time>2017-03-12T08:08:58Z</time>
      </trkpt>
      <trkpt lat="49.3111" lon="1.0406">
        <ele>23</ele>
        <time>2017-03-12T08:09:03Z</time>
      </trkpt>
      <trkpt lat="49.311" lon="1.04035">
        <ele>25</ele>
        <time>2017-03-12T08:09:07Z</time>
      </trkpt>
      <trkpt lat="49.311" lon="1.04013">
        <ele>26</ele>
        <time>2017-03-12T08:09:12Z</time>
      </trkpt>
      <trkpt lat="49.3111" lon="1.03998">
        <ele>26</ele>
        <time>2017-03-12T08:09:16Z</time>
      </trkpt>
      <trkpt lat="49.3113" lon="1.03975">
        <ele>27</ele>
        <time>2017-03-12T08:09:23Z</time>
      </trkpt>
      <trkpt lat="49.31148" lon="1.03958">
        <ele>26</ele>
        <time>2017-03-12T08:09:27Z</time>
      </trkpt>
      <trkpt lat="49.31165" lon="1.03948">
        <ele>26</ele>
        <time>2017-03-12T08:09:31Z</time>
      </trkpt>
      <trkpt lat="49.3118" lon="1.0395">
        <ele>26</ele>
        <time>2017-03-12T08:09:34Z</time>
      </trkpt>
      <trkpt lat="49.31198" lon="1.03943">
        <ele>26</ele>
        <time>2017-03-12T08:09:38Z</time>
      </trkpt>
      <trkpt lat="49.31198" lon="1.03915">
        <ele>22</ele>
        <time>2017-03-12T08:09:42Z</time>
      </trkpt>
      <trkpt lat="49.31198" lon="1.03893">
        <ele>20</ele>
        <time>2017-03-12T08:09:46Z</time>
      </trkpt>
      <trkpt lat="49.3119" lon="1.03875">
        <ele>20</ele>
        <time>2017-03-12T08:09:49Z</time>
      </trkpt>
      <trkpt lat="49.31183" lon="1.03853">
        <ele>21</ele>
        <time>2017-03-12T08:09:53Z</time>
      </trkpt>
      <trkpt lat="49.31175" lon="1.03835">
        <ele>21</ele>
        <time>2017-03-12T08:09:57Z</time>
      </trkpt>
      <trkpt lat="49.31168" lon="1.03808">
        <ele>23</ele>
        <time>2017-03-12T08:10:02Z</time>
      </trkpt>
      <trkpt lat="49.3116" lon="1.03785">
        <ele>19</ele>
        <time>2017-03-12T08:10:06Z</time>
      </trkpt>
      <trkpt lat="49.31163" lon="1.0376">
        <ele>17</ele>
        <time>2017-03-12T08:10:10Z</time>
      </trkpt>
      <trkpt lat="49.31175" lon="1.0375">
        <ele>18</ele>
        <time>2017-03-12T08:10:15Z</time>
      </trkpt>
      <trkpt lat="49.31188" lon="1.03728">
        <ele>19</ele>
        <time>2017-03-12T08:10:20Z</time>
      </trkpt>
      <trkpt lat="49.312" lon="1.0371">
        <ele>19</ele>
        <time>2017-03-12T08:10:24Z</time>
      </trkpt>
      <trkpt lat="49.31218" lon="1.03703">
        <ele>20</ele>
        <time>2017-03-12T08:10:27Z</time>
      </trkpt>
      <trkpt lat="49.31233" lon="1.03698">
        <ele>19</ele>
        <time>2017-03-12T08:10:30Z</time>
      </trkpt>
      <trkpt lat="49.3126" lon="1.03688">
        <ele>20</ele>
        <time>2017-03-12T08:10:35Z</time>
      </trkpt>
      <trkpt lat="49.31293" lon="1.03673">
        <ele>20</ele>
        <time>2017-03-12T08:10:41Z</time>
      </trkpt>
      <trkpt lat="49.31313" lon="1.0366">
        <ele>18</ele>
        <time>2017-03-12T08:10:45Z</time>
      </trkpt>
      <trkpt lat="49.31338" lon="1.03643">
        <ele>17</ele>
        <time>2017-03-12T08:10:50Z</time>
      </trkpt>
      <trkpt lat="49.31358" lon="1.03628">
        <ele>17</ele>
        <time>2017-03-12T08:10:54Z</time>
      </trkpt>
      <trkpt lat="49.31373" lon="1.03618">
        <ele>17</ele>
        <time>2017-03-12T08:10:57Z</time>
      </trkpt>
      <trkpt lat="49.31395" lon="1.03598">
        <ele>18</ele>
        <time>2017-03-12T08:11:01Z</time>
      </trkpt>
      <trkpt lat="49.31415" lon="1.0358">
        <ele>16</ele>
        <time>2017-03-12T08:11:05Z</time>
      </trkpt>
      <trkpt lat="49.31435" lon="1.03565">
        <ele>15</ele>
        <time>2017-03-12T08:11:09Z</time>
      </trkpt>
      <trkpt lat="49.3145" lon="1.03548">
        <ele>14</ele>
        <time>2017-03-12T08:11:12Z</time>
      </trkpt>
      <trkpt lat="49.31465" lon="1.03535">
        <ele>13</ele>
        <time>2017-03-12T08:11:15Z</time>
      </trkpt>
      <trkpt lat="49.31518" lon="1.03493">
        <ele>12</ele>
        <time>2017-03-12T08:11:24Z</time>
      </trkpt>
      <trkpt lat="49.31528" lon="1.0347">
        <ele>11</ele>
        <time>2017-03-12T08:11:27Z</time>
      </trkpt>
      <trkpt lat="49.31525" lon="1.03445">
        <ele>11</ele>
        <time>2017-03-12T08:11:30Z</time>
      </trkpt>
      <trkpt lat="49.31518" lon="1.0342">
        <ele>11</ele>
        <time>2017-03-12T08:11:33Z</time>
      </trkpt>
      <trkpt lat="49.3151" lon="1.03398">
        <ele>11</ele>
        <time>2017-03-12T08:11:36Z</time>
      </trkpt>
      <trkpt lat="49.31508" lon="1.03373">
        <ele>11</ele>
        <time>2017-03-12T08:11:39Z</time>
      </trkpt>
      <trkpt lat="49.31503" lon="1.03348">
        <ele>11</ele>
        <time>2017-03-12T08:11:42Z</time>
      </trkpt>
      <trkpt lat="49.31498" lon="1.03323">
        <ele>11</ele>
        <time>2017-03-12T08:11:45Z</time>
      </trkpt>
      <trkpt lat="49.31493" lon="1.033">
        <ele>10</ele>
        <time>2017-03-12T08:11:48Z</time>
      </trkpt>
      <trkpt lat="49.3149" lon="1.03275">
        <ele>10</ele>
        <time>2017-03-12T08:11:51Z</time>
      </trkpt>
      <trkpt lat="49.3149" lon="1.03248">
        <ele>10</ele>
        <time>2017-03-12T08:11:54Z</time>
      </trkpt>
      <trkpt lat="49.3149" lon="1.03205">
        <ele>10</ele>
        <time>2017-03-12T08:11:59Z</time>
      </trkpt>
      <trkpt lat="49.31488" lon="1.03145">
        <ele>10</ele>
        <time>2017-03-12T08:12:06Z</time>
      </trkpt>
      <trkpt lat="49.31488" lon="1.0311">
        <ele>9</ele>
        <time>2017-03-12T08:12:10Z</time>
      </trkpt>
      <trkpt lat="49.31488" lon="1.03065">
        <ele>9</ele>
        <time>2017-03-12T08:12:15Z</time>
      </trkpt>
      <trkpt lat="49.31485" lon="1.0304">
        <ele>9</ele>
        <time>2017-03-12T08:12:18Z</time>
      </trkpt>
      <trkpt lat="49.31483" lon="1.03015">
        <ele>9</ele>
        <time>2017-03-12T08:12:21Z</time>
      </trkpt>
      <trkpt lat="49.31475" lon="1.02965">
        <ele>8</ele>
        <time>2017-03-12T08:12:28Z</time>
      </trkpt>
      <trkpt lat="49.31473" lon="1.02938">
        <ele>9</ele>
        <time>2017-03-12T08:12:32Z</time>
      </trkpt>
      <trkpt lat="49.31488" lon="1.02938">
        <ele>9</ele>
        <time>2017-03-12T08:12:36Z</time>
      </trkpt>
      <trkpt lat="49.315" lon="1.02955">
        <ele>9</ele>
        <time>2017-03-12T08:12:39Z</time>
      </trkpt>
      <trkpt lat="49.31515" lon="1.0297">
        <ele>8</ele>
        <time>2017-03-12T08:12:42Z</time>
      </trkpt>
      <trkpt lat="49.3153" lon="1.02985">
        <ele>8</ele>
        <time>2017-03-12T08:12:45Z</time>
      </trkpt>
      <trkpt lat="49.31545" lon="1.02985">
        <ele>8</ele>
        <time>2017-03-12T08:12:48Z</time>
      </trkpt>
      <trkpt lat="49.31563" lon="1.02978">
        <ele>9</ele>
        <time>2017-03-12T08:12:51Z</time>
      </trkpt>
      <trkpt lat="49.31663" lon="1.02938">
        <ele>8</ele>
        <time>2017-03-12T08:13:10Z</time>
      </trkpt>
      <trkpt lat="49.3166" lon="1.02913">
        <ele>8</ele>
        <time>2017-03-12T08:13:32Z</time>
      </trkpt>
      <trkpt lat="49.31658" lon="1.02888">
        <ele>7</ele>
        <time>2017-03-12T08:13:37Z</time>
      </trkpt>
      <trkpt lat="49.3166" lon="1.02863">
        <ele>7</ele>
        <time>2017-03-12T08:13:46Z</time>
      </trkpt>
      <trkpt lat="49.31658" lon="1.0284">
        <ele>9</ele>
        <time>2017-03-12T08:14:04Z</time>
      </trkpt>
      <trkpt lat="49.31653" lon="1.02818">
        <ele>6</ele>
        <time>2017-03-12T08:14:11Z</time>
      </trkpt>
      <trkpt lat="49.3165" lon="1.02795">
        <ele>6</ele>
        <time>2017-03-12T08:14:19Z</time>
      </trkpt>
      <trkpt lat="49.31648" lon="1.02773">
        <ele>5</ele>
        <time>2017-03-12T08:14:25Z</time>
      </trkpt>
      <trkpt lat="49.31643" lon="1.02753">
        <ele>6</ele>
        <time>2017-03-12T08:14:29Z</time>
      </trkpt>
      <trkpt lat="49.31635" lon="1.0273">
        <ele>6</ele>
        <time>2017-03-12T08:14:33Z</time>
      </trkpt>
      <trkpt lat="49.31628" lon="1.0271">
        <ele>6</ele>
        <time>2017-03-12T08:14:36Z</time>
      </trkpt>
      <trkpt lat="49.31615" lon="1.027">
        <ele>5</ele>
        <time>2017-03-12T08:14:39Z</time>
      </trkpt>
      <trkpt lat="49.31598" lon="1.02713">
        <ele>5</ele>
        <time>2017-03-12T08:14:44Z</time>
      </trkpt>
      <trkpt lat="49.31583" lon="1.02713">
        <ele>5</ele>
        <time>2017-03-12T08:14:48Z</time>
      </trkpt>
      <trkpt lat="49.31565" lon="1.02718">
        <ele>5</ele>
        <time>2017-03-12T08:14:52Z</time>
      </trkpt>
      <trkpt lat="49.3155" lon="1.02705">
        <ele>5</ele>
        <time>2017-03-12T08:14:58Z</time>
      </trkpt>
      <trkpt lat="49.31548" lon="1.0268">
        <ele>5</ele>
        <time>2017-03-12T08:15:02Z</time>
      </trkpt>
      <trkpt lat="49.3154" lon="1.02648">
        <ele>5</ele>
        <time>2017-03-12T08:15:08Z</time>
      </trkpt>
      <trkpt lat="49.31535" lon="1.02625">
        <ele>4</ele>
        <time>2017-03-12T08:15:12Z</time>
      </trkpt>
      <trkpt lat="49.3153" lon="1.02598">
        <ele>4</ele>
        <time>2017-03-12T08:15:18Z</time>
      </trkpt>
      <trkpt lat="49.31525" lon="1.02575">
        <ele>10</ele>
        <time>2017-03-12T08:16:07Z</time>
      </trkpt>
      <trkpt lat="49.3152" lon="1.0255">
        <ele>9</ele>
        <time>2017-03-12T08:16:14Z</time>
      </trkpt>
      <trkpt lat="49.3152" lon="1.02523">
        <ele>10</ele>
        <time>2017-03-12T08:16:39Z</time>
      </trkpt>
      <trkpt lat="49.31515" lon="1.02498">
        <ele>10</ele>
        <time>2017-03-12T08:16:56Z</time>
      </trkpt>
      <trkpt lat="49.31515" lon="1.02473">
        <ele>7</ele>
        <time>2017-03-12T08:17:03Z</time>
      </trkpt>
      <trkpt lat="49.31518" lon="1.02448">
        <ele>4</ele>
        <time>2017-03-12T08:17:10Z</time>
      </trkpt>
      <trkpt lat="49.31513" lon="1.02428">
        <ele>4</ele>
        <time>2017-03-12T08:17:16Z</time>
      </trkpt>
      <trkpt lat="49.3151" lon="1.02398">
        <ele>10</ele>
        <time>2017-03-12T08:17:33Z</time>
      </trkpt>
      <trkpt lat="49.31513" lon="1.02373">
        <ele>9</ele>
        <time>2017-03-12T08:17:40Z</time>
      </trkpt>
      <trkpt lat="49.31515" lon="1.02348">
        <ele>7</ele>
        <time>2017-03-12T08:17:45Z</time>
      </trkpt>
      <trkpt lat="49.3151" lon="1.02325">
        <ele>6</ele>
        <time>2017-03-12T08:17:49Z</time>
      </trkpt>
      <trkpt lat="49.3151" lon="1.02303">
        <ele>6</ele>
        <time>2017-03-12T08:17:52Z</time>
      </trkpt>
      <trkpt lat="49.31513" lon="1.0228">
        <ele>7</ele>
        <time>2017-03-12T08:17:55Z</time>
      </trkpt>
      <trkpt lat="49.3151" lon="1.02258">
        <ele>7</ele>
        <time>2017-03-12T08:17:58Z</time>
      </trkpt>
      <trkpt lat="49.3151" lon="1.0223">
        <ele>5</ele>
        <time>2017-03-12T08:18:02Z</time>
      </trkpt>
      <trkpt lat="49.31513" lon="1.02205">
        <ele>4</ele>
        <time>2017-03-12T08:18:05Z</time>
      </trkpt>
      <trkpt lat="49.3152" lon="1.02163">
        <ele>4</ele>
        <time>2017-03-12T08:18:10Z</time>
      </trkpt>
      <trkpt lat="49.31523" lon="1.02128">
        <ele>4</ele>
        <time>2017-03-12T08:18:16Z</time>
      </trkpt>
      <trkpt lat="49.31518" lon="1.02108">
        <ele>3</ele>
        <time>2017-03-12T08:18:18Z</time>
      </trkpt>
      <trkpt lat="49.31513" lon="1.02083">
        <ele>3</ele>
        <time>2017-03-12T08:18:21Z</time>
      </trkpt>
      <trkpt lat="49.31508" lon="1.0206">
        <ele>2</ele>
        <time>2017-03-12T08:18:24Z</time>
      </trkpt>
      <trkpt lat="49.315" lon="1.0203">
        <ele>3</ele>
        <time>2017-03-12T08:18:27Z</time>
      </trkpt>
      <trkpt lat="49.31498" lon="1.02005">
        <ele>2</ele>
        <time>2017-03-12T08:18:30Z</time>
      </trkpt>
      <trkpt lat="49.31495" lon="1.01983">
        <ele>2</ele>
        <time>2017-03-12T08:18:33Z</time>
      </trkpt>
      <trkpt lat="49.3149" lon="1.01963">
        <ele>2</ele>
        <time>2017-03-12T08:18:35Z</time>
      </trkpt>
      <trkpt lat="49.31485" lon="1.0193">
        <ele>4</ele>
        <time>2017-03-12T08:18:38Z</time>
      </trkpt>
      <trkpt lat="49.3148" lon="1.01898">
        <ele>6</ele>
        <time>2017-03-12T08:18:41Z</time>
      </trkpt>
      <trkpt lat="49.31478" lon="1.01873">
        <ele>6</ele>
        <time>2017-03-12T08:18:44Z</time>
      </trkpt>
      <trkpt lat="49.3147" lon="1.0185">
        <ele>6</ele>
        <time>2017-03-12T08:18:47Z</time>
      </trkpt>
      <trkpt lat="49.31463" lon="1.0182">
        <ele>4</ele>
        <time>2017-03-12T08:18:51Z</time>
      </trkpt>
      <trkpt lat="49.31458" lon="1.018">
        <ele>4</ele>
        <time>2017-03-12T08:18:53Z</time>
      </trkpt>
      <trkpt lat="49.31453" lon="1.01778">
        <ele>3</ele>
        <time>2017-03-12T08:18:56Z</time>
      </trkpt>
      <trkpt lat="49.31443" lon="1.01743">
        <ele>1</ele>
        <time>2017-03-12T08:19:00Z</time>
      </trkpt>
      <trkpt lat="49.31435" lon="1.01725">
        <ele>1</ele>
        <time>2017-03-12T08:19:02Z</time>
      </trkpt>
      <trkpt lat="49.3142" lon="1.0171">
        <ele>2</ele>
        <time>2017-03-12T08:19:05Z</time>
      </trkpt>
      <trkpt lat="49.3141" lon="1.01688">
        <ele>4</ele>
        <time>2017-03-12T08:19:08Z</time>
      </trkpt>
      <trkpt lat="49.3141" lon="1.01658">
        <ele>5</ele>
        <time>2017-03-12T08:19:11Z</time>
      </trkpt>
      <trkpt lat="49.31428" lon="1.0164">
        <ele>7</ele>
        <time>2017-03-12T08:19:15Z</time>
      </trkpt>
      <trkpt lat="49.31443" lon="1.0163">
        <ele>7</ele>
        <time>2017-03-12T08:19:18Z</time>
      </trkpt>
      <trkpt lat="49.31458" lon="1.01623">
        <ele>8</ele>
        <time>2017-03-12T08:19:21Z</time>
      </trkpt>
      <trkpt lat="49.31475" lon="1.01615">
        <ele>9</ele>
        <time>2017-03-12T08:19:24Z</time>
      </trkpt>
      <trkpt lat="49.31495" lon="1.01605">
        <ele>10</ele>
        <time>2017-03-12T08:19:28Z</time>
      </trkpt>
      <trkpt lat="49.31528" lon="1.01588">
        <ele>9</ele>
        <time>2017-03-12T08:19:34Z</time>
      </trkpt>
      <trkpt lat="49.31543" lon="1.01585">
        <ele>10</ele>
        <time>2017-03-12T08:19:39Z</time>
      </trkpt>
      <trkpt lat="49.31558" lon="1.01573">
        <ele>7</ele>
        <time>2017-03-12T08:19:47Z</time>
      </trkpt>
      <trkpt lat="49.3155" lon="1.01553">
        <ele>6</ele>
        <time>2017-03-12T08:19:51Z</time>
      </trkpt>
      <trkpt lat="49.31543" lon="1.01533">
        <ele>5</ele>
        <time>2017-03-12T08:19:54Z</time>
      </trkpt>
      <trkpt lat="49.31533" lon="1.01508">
        <ele>5</ele>
        <time>2017-03-12T08:19:58Z</time>
      </trkpt>
      <trkpt lat="49.31523" lon="1.01488">
        <ele>5</ele>
        <time>2017-03-12T08:20:01Z</time>
      </trkpt>
      <trkpt lat="49.31508" lon="1.01458">
        <ele>6</ele>
        <time>2017-03-12T08:20:06Z</time>
      </trkpt>
      <trkpt lat="49.31498" lon="1.01433">
        <ele>6</ele>
        <time>2017-03-12T08:20:09Z</time>
      </trkpt>
      <trkpt lat="49.3149" lon="1.01413">
        <ele>6</ele>
        <time>2017-03-12T08:20:12Z</time>
      </trkpt>
      <trkpt lat="49.31485" lon="1.0139">
        <ele>7</ele>
        <time>2017-03-12T08:20:15Z</time>
      </trkpt>
      <trkpt lat="49.3148" lon="1.01368">
        <ele>6</ele>
        <time>2017-03-12T08:20:18Z</time>
      </trkpt>
      <trkpt lat="49.31475" lon="1.01348">
        <ele>8</ele>
        <time>2017-03-12T08:20:22Z</time>
      </trkpt>
      <trkpt lat="49.31468" lon="1.01315">
        <ele>8</ele>
        <time>2017-03-12T08:20:28Z</time>
      </trkpt>
      <trkpt lat="49.31458" lon="1.01283">
        <ele>8</ele>
        <time>2017-03-12T08:20:34Z</time>
      </trkpt>
      <trkpt lat="49.31453" lon="1.0126">
        <ele>9</ele>
        <time>2017-03-12T08:20:38Z</time>
      </trkpt>
      <trkpt lat="49.31448" lon="1.0124">
        <ele>10</ele>
        <time>2017-03-12T08:20:42Z</time>
      </trkpt>
      <trkpt lat="49.31438" lon="1.01225">
        <ele>9</ele>
        <time>2017-03-12T08:20:47Z</time>
      </trkpt>
      <trkpt lat="49.31428" lon="1.01198">
        <ele>9</ele>
        <time>2017-03-12T08:20:51Z</time>
      </trkpt>
      <trkpt lat="49.31418" lon="1.01175">
        <ele>9</ele>
        <time>2017-03-12T08:20:54Z</time>
      </trkpt>
      <trkpt lat="49.31408" lon="1.01155">
        <ele>9</ele>
        <time>2017-03-12T08:20:57Z</time>
      </trkpt>
      <trkpt lat="49.314" lon="1.01135">
        <ele>10</ele>
        <time>2017-03-12T08:21:00Z</time>
      </trkpt>
      <trkpt lat="49.31388" lon="1.01108">
        <ele>13</ele>
        <time>2017-03-12T08:21:04Z</time>
      </trkpt>
      <trkpt lat="49.31368" lon="1.0106">
        <ele>13</ele>
        <time>2017-03-12T08:21:11Z</time>
      </trkpt>
      <trkpt lat="49.3136" lon="1.01038">
        <ele>13</ele>
        <time>2017-03-12T08:21:14Z</time>
      </trkpt>
      <trkpt lat="49.3135" lon="1.01008">
        <ele>12</ele>
        <time>2017-03-12T08:21:18Z</time>
      </trkpt>
      <trkpt lat="49.31338" lon="1.00988">
        <ele>11</ele>
        <time>2017-03-12T08:21:21Z</time>
      </trkpt>
      <trkpt lat="49.3132" lon="1.00963">
        <ele>10</ele>
        <time>2017-03-12T08:21:25Z</time>
      </trkpt>
      <trkpt lat="49.31308" lon="1.00943">
        <ele>11</ele>
        <time>2017-03-12T08:21:28Z</time>
      </trkpt>
      <trkpt lat="49.31298" lon="1.0092">
        <ele>10</ele>
        <time>2017-03-12T08:21:31Z</time>
      </trkpt>
      <trkpt lat="49.3128" lon="1.00883">
        <ele>9</ele>
        <time>2017-03-12T08:21:36Z</time>
      </trkpt>
      <trkpt lat="49.31268" lon="1.00863">
        <ele>8</ele>
        <time>2017-03-12T08:21:39Z</time>
      </trkpt>
      <trkpt lat="49.31258" lon="1.0084">
        <ele>8</ele>
        <time>2017-03-12T08:21:42Z</time>
      </trkpt>
      <trkpt lat="49.31245" lon="1.00818">
        <ele>9</ele>
        <time>2017-03-12T08:21:45Z</time>
      </trkpt>
      <trkpt lat="49.31228" lon="1.00783">
        <ele>8</ele>
        <time>2017-03-12T08:21:50Z</time>
      </trkpt>
      <trkpt lat="49.31198" lon="1.00725">
        <ele>10</ele>
        <time>2017-03-12T08:21:58Z</time>
      </trkpt>
      <trkpt lat="49.31185" lon="1.00703">
        <ele>9</ele>
        <time>2017-03-12T08:22:01Z</time>
      </trkpt>
      <trkpt lat="49.31173" lon="1.00683">
        <ele>9</ele>
        <time>2017-03-12T08:22:04Z</time>
      </trkpt>
      <trkpt lat="49.3116" lon="1.00665">
        <ele>9</ele>
        <time>2017-03-12T08:22:07Z</time>
      </trkpt>
      <trkpt lat="49.31133" lon="1.00628">
        <ele>9</ele>
        <time>2017-03-12T08:22:13Z</time>
      </trkpt>
      <trkpt lat="49.31108" lon="1.00593">
        <ele>9</ele>
        <time>2017-03-12T08:22:19Z</time>
      </trkpt>
      <trkpt lat="49.31073" lon="1.00543">
        <ele>9</ele>
        <time>2017-03-12T08:22:27Z</time>
      </trkpt>
      <trkpt lat="49.31063" lon="1.00523">
        <ele>8</ele>
        <time>2017-03-12T08:22:30Z</time>
      </trkpt>
      <trkpt lat="49.31048" lon="1.00503">
        <ele>9</ele>
        <time>2017-03-12T08:22:33Z</time>
      </trkpt>
      <trkpt lat="49.3103" lon="1.00478">
        <ele>9</ele>
        <time>2017-03-12T08:22:37Z</time>
      </trkpt>
      <trkpt lat="49.31018" lon="1.0046">
        <ele>12</ele>
        <time>2017-03-12T08:22:40Z</time>
      </trkpt>
      <trkpt lat="49.31003" lon="1.00443">
        <ele>14</ele>
        <time>2017-03-12T08:22:43Z</time>
      </trkpt>
      <trkpt lat="49.30988" lon="1.00428">
        <ele>14</ele>
        <time>2017-03-12T08:22:46Z</time>
      </trkpt>
      <trkpt lat="49.3097" lon="1.00413">
        <ele>14</ele>
        <time>2017-03-12T08:22:49Z</time>
      </trkpt>
      <trkpt lat="49.30915" lon="1.00368">
        <ele>12</ele>
        <time>2017-03-12T08:23:00Z</time>
      </trkpt>
      <trkpt lat="49.30893" lon="1.00353">
        <ele>12</ele>
        <time>2017-03-12T08:23:04Z</time>
      </trkpt>
      <trkpt lat="49.30865" lon="1.00333">
        <ele>11</ele>
        <time>2017-03-12T08:23:10Z</time>
      </trkpt>
      <trkpt lat="49.3085" lon="1.00323">
        <ele>11</ele>
        <time>2017-03-12T08:23:13Z</time>
      </trkpt>
      <trkpt lat="49.30833" lon="1.0031">
        <ele>10</ele>
        <time>2017-03-12T08:23:17Z</time>
      </trkpt>
      <trkpt lat="49.3082" lon="1.003">
        <ele>11</ele>
        <time>2017-03-12T08:23:20Z</time>
      </trkpt>
      <trkpt lat="49.30803" lon="1.0029">
        <ele>11</ele>
        <time>2017-03-12T08:23:24Z</time>
      </trkpt>
      <trkpt lat="49.30805" lon="1.00265">
        <ele>9</ele>
        <time>2017-03-12T08:23:29Z</time>
      </trkpt>
      <trkpt lat="49.30815" lon="1.0025">
        <ele>10</ele>
        <time>2017-03-12T08:23:32Z</time>
      </trkpt>
      <trkpt lat="49.30823" lon="1.00233">
        <ele>10</ele>
        <time>2017-03-12T08:23:35Z</time>
      </trkpt>
      <trkpt lat="49.30833" lon="1.00218">
        <ele>10</ele>
        <time>2017-03-12T08:23:38Z</time>
      </trkpt>
      <trkpt lat="49.30843" lon="1.002">
        <ele>12</ele>
        <time>2017-03-12T08:23:42Z</time>
      </trkpt>
      <trkpt lat="49.3086" lon="1.0017">
        <ele>12</ele>
        <time>2017-03-12T08:23:49Z</time>
      </trkpt>
      <trkpt lat="49.30873" lon="1.0015">
        <ele>13</ele>
        <time>2017-03-12T08:23:53Z</time>
      </trkpt>
      <trkpt lat="49.30898" lon="1.00108">
        <ele>13</ele>
        <time>2017-03-12T08:24:01Z</time>
      </trkpt>
      <trkpt lat="49.3091" lon="1.00085">
        <ele>13</ele>
        <time>2017-03-12T08:24:06Z</time>
      </trkpt>
      <trkpt lat="49.30923" lon="1.00063">
        <ele>14</ele>
        <time>2017-03-12T08:24:12Z</time>
      </trkpt>
      <trkpt lat="49.30933" lon="1.00045">
        <ele>16</ele>
        <time>2017-03-12T08:24:17Z</time>
      </trkpt>
      <trkpt lat="49.30945" lon="1.00028">
        <ele>17</ele>
        <time>2017-03-12T08:24:21Z</time>
      </trkpt>
      <trkpt lat="49.30963" lon="1.00003">
        <ele>17</ele>
        <time>2017-03-12T08:24:27Z</time>
      </trkpt>
      <trkpt lat="49.30983" lon="0.9997">
        <ele>17</ele>
        <time>2017-03-12T08:24:34Z</time>
      </trkpt>
      <trkpt lat="49.30993" lon="0.99953">
        <ele>17</ele>
        <time>2017-03-12T08:24:38Z</time>
      </trkpt>
      <trkpt lat="49.31005" lon="0.99935">
        <ele>17</ele>
        <time>2017-03-12T08:24:42Z</time>
      </trkpt>
      <trkpt lat="49.3103" lon="0.99895">
        <ele>17</ele>
        <time>2017-03-12T08:24:51Z</time>
      </trkpt>
      <trkpt lat="49.31045" lon="0.99873">
        <ele>17</ele>
        <time>2017-03-12T08:24:56Z</time>
      </trkpt>
      <trkpt lat="49.31103" lon="0.99785">
        <ele>18</ele>
        <time>2017-03-12T08:25:15Z</time>
      </trkpt>
      <trkpt lat="49.31118" lon="0.99765">
        <ele>17</ele>
        <time>2017-03-12T08:25:19Z</time>
      </trkpt>
      <trkpt lat="49.31138" lon="0.99738">
        <ele>15</ele>
        <time>2017-03-12T08:25:24Z</time>
      </trkpt>
      <trkpt lat="49.3115" lon="0.99725">
        <ele>14</ele>
        <time>2017-03-12T08:25:26Z</time>
      </trkpt>
      <trkpt lat="49.31215" lon="0.99655">
        <ele>9</ele>
        <time>2017-03-12T08:25:36Z</time>
      </trkpt>
      <trkpt lat="49.3123" lon="0.9964">
        <ele>9</ele>
        <time>2017-03-12T08:25:39Z</time>
      </trkpt>
      <trkpt lat="49.31245" lon="0.99648">
        <ele>9</ele>
        <time>2017-03-12T08:25:43Z</time>
      </trkpt>
      <trkpt lat="49.3126" lon="0.99678">
        <ele>8</ele>
        <time>2017-03-12T08:25:48Z</time>
      </trkpt>
      <trkpt lat="49.31273" lon="0.99703">
        <ele>9</ele>
        <time>2017-03-12T08:25:52Z</time>
      </trkpt>
      <trkpt lat="49.31283" lon="0.9972">
        <ele>9</ele>
        <time>2017-03-12T08:25:55Z</time>
      </trkpt>
      <trkpt lat="49.31293" lon="0.99738">
        <ele>10</ele>
        <time>2017-03-12T08:25:58Z</time>
      </trkpt>
      <trkpt lat="49.3131" lon="0.99765">
        <ele>9</ele>
        <time>2017-03-12T08:26:04Z</time>
      </trkpt>
      <trkpt lat="49.31325" lon="0.99765">
        <ele>9</ele>
        <time>2017-03-12T08:26:09Z</time>
      </trkpt>
      <trkpt lat="49.31333" lon="0.99748">
        <ele>10</ele>
        <time>2017-03-12T08:26:12Z</time>
      </trkpt>
      <trkpt lat="49.31335" lon="0.99725">
        <ele>11</ele>
        <time>2017-03-12T08:26:16Z</time>
      </trkpt>
      <trkpt lat="49.3134" lon="0.99705">
        <ele>13</ele>
        <time>2017-03-12T08:26:20Z</time>
      </trkpt>
      <trkpt lat="49.3135" lon="0.99685">
        <ele>15</ele>
        <time>2017-03-12T08:26:25Z</time>
      </trkpt>
      <trkpt lat="49.31375" lon="0.99658">
        <ele>19</ele>
        <time>2017-03-12T08:26:37Z</time>
      </trkpt>
      <trkpt lat="49.3139" lon="0.9965">
        <ele>20</ele>
        <time>2017-03-12T08:26:40Z</time>
      </trkpt>
      <trkpt lat="49.31408" lon="0.9964">
        <ele>21</ele>
        <time>2017-03-12T08:26:44Z</time>
      </trkpt>
      <trkpt lat="49.31423" lon="0.99633">
        <ele>21</ele>
        <time>2017-03-12T08:26:47Z</time>
      </trkpt>
      <trkpt lat="49.31438" lon="0.99628">
        <ele>21</ele>
        <time>2017-03-12T08:26:50Z</time>
      </trkpt>
      <trkpt lat="49.31453" lon="0.99623">
        <ele>21</ele>
        <time>2017-03-12T08:26:53Z</time>
      </trkpt>
      <trkpt lat="49.31468" lon="0.9962">
        <ele>22</ele>
        <time>2017-03-12T08:26:56Z</time>
      </trkpt>
      <trkpt lat="49.31485" lon="0.9962">
        <ele>24</ele>
        <time>2017-03-12T08:27:00Z</time>
      </trkpt>
      <trkpt lat="49.31515" lon="0.9962">
        <ele>26</ele>
        <time>2017-03-12T08:27:06Z</time>
      </trkpt>
      <trkpt lat="49.31533" lon="0.99625">
        <ele>27</ele>
        <time>2017-03-12T08:27:10Z</time>
      </trkpt>
      <trkpt lat="49.31553" lon="0.99633">
        <ele>29</ele>
        <time>2017-03-12T08:27:15Z</time>
      </trkpt>
      <trkpt lat="49.31575" lon="0.9964">
        <ele>32</ele>
        <time>2017-03-12T08:27:21Z</time>
      </trkpt>
      <trkpt lat="49.3159" lon="0.99645">
        <ele>32</ele>
        <time>2017-03-12T08:27:24Z</time>
      </trkpt>
      <trkpt lat="49.31605" lon="0.99648">
        <ele>33</ele>
        <time>2017-03-12T08:27:27Z</time>
      </trkpt>
      <trkpt lat="49.3162" lon="0.9965">
        <ele>33</ele>
        <time>2017-03-12T08:27:30Z</time>
      </trkpt>
      <trkpt lat="49.31635" lon="0.99653">
        <ele>34</ele>
        <time>2017-03-12T08:27:33Z</time>
      </trkpt>
      <trkpt lat="49.31653" lon="0.99658">
        <ele>34</ele>
        <time>2017-03-12T08:27:37Z</time>
      </trkpt>
      <trkpt lat="49.31668" lon="0.99658">
        <ele>35</ele>
        <time>2017-03-12T08:27:42Z</time>
      </trkpt>
      <trkpt lat="49.31685" lon="0.99655">
        <ele>35</ele>
        <time>2017-03-12T08:27:46Z</time>
      </trkpt>
      <trkpt lat="49.31705" lon="0.9965">
        <ele>34</ele>
        <time>2017-03-12T08:27:50Z</time>
      </trkpt>
      <trkpt lat="49.3172" lon="0.99648">
        <ele>33</ele>
        <time>2017-03-12T08:27:55Z</time>
      </trkpt>
      <trkpt lat="49.31733" lon="0.99665">
        <ele>32</ele>
        <time>2017-03-12T08:28:03Z</time>
      </trkpt>
      <trkpt lat="49.31748" lon="0.99665">
        <ele>35</ele>
        <time>2017-03-12T08:28:10Z</time>
      </trkpt>
      <trkpt lat="49.31755" lon="0.99648">
        <ele>37</ele>
        <time>2017-03-12T08:28:17Z</time>
      </trkpt>
      <trkpt lat="49.31765" lon="0.99628">
        <ele>40</ele>
        <time>2017-03-12T08:28:23Z</time>
      </trkpt>
      <trkpt lat="49.31775" lon="0.99613">
        <ele>39</ele>
        <time>2017-03-12T08:28:27Z</time>
      </trkpt>
      <trkpt lat="49.31785" lon="0.99598">
        <ele>41</ele>
        <time>2017-03-12T08:28:32Z</time>
      </trkpt>
      <trkpt lat="49.31798" lon="0.9958">
        <ele>42</ele>
        <time>2017-03-12T08:28:37Z</time>
      </trkpt>
      <trkpt lat="49.31808" lon="0.99565">
        <ele>43</ele>
        <time>2017-03-12T08:28:41Z</time>
      </trkpt>
      <trkpt lat="49.3182" lon="0.99555">
        <ele>44</ele>
        <time>2017-03-12T08:28:45Z</time>
      </trkpt>
      <trkpt lat="49.31835" lon="0.9954">
        <ele>45</ele>
        <time>2017-03-12T08:28:50Z</time>
      </trkpt>
      <trkpt lat="49.31853" lon="0.9952">
        <ele>45</ele>
        <time>2017-03-12T08:28:56Z</time>
      </trkpt>
      <trkpt lat="49.3187" lon="0.99508">
        <ele>45</ele>
        <time>2017-03-12T08:29:01Z</time>
      </trkpt>
      <trkpt lat="49.31885" lon="0.99503">
        <ele>46</ele>
        <time>2017-03-12T08:29:07Z</time>
      </trkpt>
      <trkpt lat="49.319" lon="0.99513">
        <ele>48</ele>
        <time>2017-03-12T08:29:12Z</time>
      </trkpt>
      <trkpt lat="49.3192" lon="0.99525">
        <ele>49</ele>
        <time>2017-03-12T08:29:19Z</time>
      </trkpt>
      <trkpt lat="49.31933" lon="0.99535">
        <ele>50</ele>
        <time>2017-03-12T08:29:24Z</time>
      </trkpt>
      <trkpt lat="49.31945" lon="0.99548">
        <ele>52</ele>
        <time>2017-03-12T08:29:31Z</time>
      </trkpt>
      <trkpt lat="49.31958" lon="0.99563">
        <ele>53</ele>
        <time>2017-03-12T08:29:37Z</time>
      </trkpt>
      <trkpt lat="49.3197" lon="0.9958">
        <ele>53</ele>
        <time>2017-03-12T08:29:42Z</time>
      </trkpt>
      <trkpt lat="49.31983" lon="0.9959">
        <ele>56</ele>
        <time>2017-03-12T08:29:46Z</time>
      </trkpt>
      <trkpt lat="49.31998" lon="0.99605">
        <ele>58</ele>
        <time>2017-03-12T08:29:51Z</time>
      </trkpt>
      <trkpt lat="49.3201" lon="0.99618">
        <ele>61</ele>
        <time>2017-03-12T08:29:57Z</time>
      </trkpt>
      <trkpt lat="49.32023" lon="0.99628">
        <ele>62</ele>
        <time>2017-03-12T08:30:01Z</time>
      </trkpt>
      <trkpt lat="49.32038" lon="0.9964">
        <ele>66</ele>
        <time>2017-03-12T08:30:08Z</time>
      </trkpt>
      <trkpt lat="49.3205" lon="0.9965">
        <ele>68</ele>
        <time>2017-03-12T08:30:14Z</time>
      </trkpt>
      <trkpt lat="49.32068" lon="0.99663">
        <ele>68</ele>
        <time>2017-03-12T08:30:21Z</time>
      </trkpt>
      <trkpt lat="49.32083" lon="0.99668">
        <ele>71</ele>
        <time>2017-03-12T08:30:28Z</time>
      </trkpt>
      <trkpt lat="49.32098" lon="0.99675">
        <ele>73</ele>
        <time>2017-03-12T08:30:35Z</time>
      </trkpt>
      <trkpt lat="49.32113" lon="0.99683">
        <ele>75</ele>
        <time>2017-03-12T08:30:41Z</time>
      </trkpt>
      <trkpt lat="49.3213" lon="0.99693">
        <ele>77</ele>
        <time>2017-03-12T08:30:48Z</time>
      </trkpt>
      <trkpt lat="49.32145" lon="0.99698">
        <ele>79</ele>
        <time>2017-03-12T08:30:56Z</time>
      </trkpt>
      <trkpt lat="49.32163" lon="0.99705">
        <ele>80</ele>
        <time>2017-03-12T08:31:06Z</time>
      </trkpt>
      <trkpt lat="49.32178" lon="0.99713">
        <ele>81</ele>
        <time>2017-03-12T08:31:14Z</time>
      </trkpt>
      <trkpt lat="49.32193" lon="0.99718">
        <ele>82</ele>
        <time>2017-03-12T08:31:21Z</time>
      </trkpt>
      <trkpt lat="49.32208" lon="0.99728">
        <ele>84</ele>
        <time>2017-03-12T08:31:30Z</time>
      </trkpt>
      <trkpt lat="49.3222" lon="0.99738">
        <ele>83</ele>
        <time>2017-03-12T08:31:37Z</time>
      </trkpt>
      <trkpt lat="49.32233" lon="0.9975">
        <ele>83</ele>
        <time>2017-03-12T08:31:42Z</time>
      </trkpt>
      <trkpt lat="49.32253" lon="0.99773">
        <ele>83</ele>
        <time>2017-03-12T08:31:50Z</time>
      </trkpt>
      <trkpt lat="49.32263" lon="0.9979">
        <ele>85</ele>
        <time>2017-03-12T08:31:57Z</time>
      </trkpt>
      <trkpt lat="49.3227" lon="0.99808">
        <ele>85</ele>
        <time>2017-03-12T08:32:05Z</time>
      </trkpt>
      <trkpt lat="49.32278" lon="0.9983">
        <ele>90</ele>
        <time>2017-03-12T08:32:14Z</time>
      </trkpt>
      <trkpt lat="49.32285" lon="0.9985">
        <ele>91</ele>
        <time>2017-03-12T08:32:21Z</time>
      </trkpt>
      <trkpt lat="49.32293" lon="0.99873">
        <ele>92</ele>
        <time>2017-03-12T08:33:45Z</time>
      </trkpt>
      <trkpt lat="49.32295" lon="0.99895">
        <ele>95</ele>
        <time>2017-03-12T08:33:57Z</time>
      </trkpt>
      <trkpt lat="49.32298" lon="0.9992">
        <ele>97</ele>
        <time>2017-03-12T08:34:08Z</time>
      </trkpt>
      <trkpt lat="49.323" lon="0.99945">
        <ele>97</ele>
        <time>2017-03-12T08:34:15Z</time>
      </trkpt>
      <trkpt lat="49.32308" lon="0.99963">
        <ele>97</ele>
        <time>2017-03-12T08:34:21Z</time>
      </trkpt>
      <trkpt lat="49.32315" lon="0.99983">
        <ele>98</ele>
        <time>2017-03-12T08:34:29Z</time>
      </trkpt>
      <trkpt lat="49.32325" lon="1">
        <ele>99</ele>
        <time>2017-03-12T08:34:36Z</time>
      </trkpt>
      <trkpt lat="49.32335" lon="1.00018">
        <ele>98</ele>
        <time>2017-03-12T08:34:43Z</time>
      </trkpt>
      <trkpt lat="49.32345" lon="1.00038">
        <ele>98</ele>
        <time>2017-03-12T08:34:50Z</time>
      </trkpt>
      <trkpt lat="49.32353" lon="1.00058">
        <ele>97</ele>
        <time>2017-03-12T08:34:57Z</time>
      </trkpt>
      <trkpt lat="49.32355" lon="1.00085">
        <ele>99</ele>
        <time>2017-03-12T08:35:05Z</time>
      </trkpt>
      <trkpt lat="49.32353" lon="1.00108">
        <ele>101</ele>
        <time>2017-03-12T08:35:10Z</time>
      </trkpt>
      <trkpt lat="49.32353" lon="1.0013">
        <ele>103</ele>
        <time>2017-03-12T08:35:15Z</time>
      </trkpt>
      <trkpt lat="49.32348" lon="1.00153">
        <ele>104</ele>
        <time>2017-03-12T08:35:20Z</time>
      </trkpt>
      <trkpt lat="49.32348" lon="1.00175">
        <ele>104</ele>
        <time>2017-03-12T08:35:25Z</time>
      </trkpt>
      <trkpt lat="49.32343" lon="1.00198">
        <ele>106</ele>
        <time>2017-03-12T08:35:31Z</time>
      </trkpt>
      <trkpt lat="49.32335" lon="1.00215">
        <ele>108</ele>
        <time>2017-03-12T08:35:37Z</time>
      </trkpt>
      <trkpt lat="49.32323" lon="1.0023">
        <ele>108</ele>
        <time>2017-03-12T08:35:44Z</time>
      </trkpt>
      <trkpt lat="49.32315" lon="1.00248">
        <ele>109</ele>
        <time>2017-03-12T08:35:50Z</time>
      </trkpt>
      <trkpt lat="49.32308" lon="1.00265">
        <ele>111</ele>
        <time>2017-03-12T08:35:56Z</time>
      </trkpt>
      <trkpt lat="49.32293" lon="1.0028">
        <ele>111</ele>
        <time>2017-03-12T08:36:02Z</time>
      </trkpt>
      <trkpt lat="49.32283" lon="1.00295">
        <ele>111</ele>
        <time>2017-03-12T08:36:09Z</time>
      </trkpt>
      <trkpt lat="49.3228" lon="1.00318">
        <ele>110</ele>
        <time>2017-03-12T08:36:14Z</time>
      </trkpt>
      <trkpt lat="49.32275" lon="1.00338">
        <ele>110</ele>
        <time>2017-03-12T08:36:19Z</time>
      </trkpt>
      <trkpt lat="49.32265" lon="1.00355">
        <ele>110</ele>
        <time>2017-03-12T08:36:24Z</time>
      </trkpt>
      <trkpt lat="49.32258" lon="1.00375">
        <ele>111</ele>
        <time>2017-03-12T08:36:29Z</time>
      </trkpt>
      <trkpt lat="49.32253" lon="1.00403">
        <ele>112</ele>
        <time>2017-03-12T08:36:36Z</time>
      </trkpt>
      <trkpt lat="49.3224" lon="1.0042">
        <ele>112</ele>
        <time>2017-03-12T08:36:41Z</time>
      </trkpt>
      <trkpt lat="49.3224" lon="1.00443">
        <ele>110</ele>
        <time>2017-03-12T08:36:47Z</time>
      </trkpt>
      <trkpt lat="49.32245" lon="1.00463">
        <ele>110</ele>
        <time>2017-03-12T08:36:53Z</time>
      </trkpt>
      <trkpt lat="49.32248" lon="1.0049">
        <ele>110</ele>
        <time>2017-03-12T08:36:58Z</time>
      </trkpt>
      <trkpt lat="49.3225" lon="1.00513">
        <ele>110</ele>
        <time>2017-03-12T08:37:01Z</time>
      </trkpt>
      <trkpt lat="49.32238" lon="1.0061">
        <ele>109</ele>
        <time>2017-03-12T08:38:40Z</time>
      </trkpt>
      <trkpt lat="49.32238" lon="1.00635">
        <ele>108</ele>
        <time>2017-03-12T08:38:43Z</time>
      </trkpt>
      <trkpt lat="49.3223" lon="1.00658">
        <ele>108</ele>
        <time>2017-03-12T08:38:47Z</time>
      </trkpt>
      <trkpt lat="49.32225" lon="1.00678">
        <ele>108</ele>
        <time>2017-03-12T08:38:51Z</time>
      </trkpt>
      <trkpt lat="49.32223" lon="1.007">
        <ele>106</ele>
        <time>2017-03-12T08:38:54Z</time>
      </trkpt>
      <trkpt lat="49.32228" lon="1.0072">
        <ele>106</ele>
        <time>2017-03-12T08:38:57Z</time>
      </trkpt>
      <trkpt lat="49.3224" lon="1.00738">
        <ele>105</ele>
        <time>2017-03-12T08:39:02Z</time>
      </trkpt>
      <trkpt lat="49.32258" lon="1.00753">
        <ele>103</ele>
        <time>2017-03-12T08:39:08Z</time>
      </trkpt>
      <trkpt lat="49.32263" lon="1.00773">
        <ele>101</ele>
        <time>2017-03-12T08:39:11Z</time>
      </trkpt>
      <trkpt lat="49.3227" lon="1.00798">
        <ele>101</ele>
        <time>2017-03-12T08:39:17Z</time>
      </trkpt>
      <trkpt lat="49.3227" lon="1.00823">
        <ele>104</ele>
        <time>2017-03-12T08:39:25Z</time>
      </trkpt>
      <trkpt lat="49.32273" lon="1.00848">
        <ele>106</ele>
        <time>2017-03-12T08:39:32Z</time>
      </trkpt>
      <trkpt lat="49.32275" lon="1.00873">
        <ele>107</ele>
        <time>2017-03-12T08:39:38Z</time>
      </trkpt>
      <trkpt lat="49.32273" lon="1.00898">
        <ele>106</ele>
        <time>2017-03-12T08:39:44Z</time>
      </trkpt>
      <trkpt lat="49.32273" lon="1.00923">
        <ele>106</ele>
        <time>2017-03-12T08:39:49Z</time>
      </trkpt>
      <trkpt lat="49.32268" lon="1.00945">
        <ele>110</ele>
        <time>2017-03-12T08:39:56Z</time>
      </trkpt>
      <trkpt lat="49.32268" lon="1.00973">
        <ele>113</ele>
        <time>2017-03-12T08:40:02Z</time>
      </trkpt>
      <trkpt lat="49.3227" lon="1.00998">
        <ele>112</ele>
        <time>2017-03-12T08:40:08Z</time>
      </trkpt>
      <trkpt lat="49.32275" lon="1.01018">
        <ele>114</ele>
        <time>2017-03-12T08:40:14Z</time>
      </trkpt>
      <trkpt lat="49.32278" lon="1.0104">
        <ele>114</ele>
        <time>2017-03-12T08:40:23Z</time>
      </trkpt>
      <trkpt lat="49.32288" lon="1.01058">
        <ele>115</ele>
        <time>2017-03-12T08:40:29Z</time>
      </trkpt>
      <trkpt lat="49.323" lon="1.01073">
        <ele>114</ele>
        <time>2017-03-12T08:40:35Z</time>
      </trkpt>
      <trkpt lat="49.32313" lon="1.01088">
        <ele>115</ele>
        <time>2017-03-12T08:40:41Z</time>
      </trkpt>
      <trkpt lat="49.32325" lon="1.01103">
        <ele>117</ele>
        <time>2017-03-12T08:40:49Z</time>
      </trkpt>
      <trkpt lat="49.32335" lon="1.01118">
        <ele>119</ele>
        <time>2017-03-12T08:40:56Z</time>
      </trkpt>
      <trkpt lat="49.32343" lon="1.01135">
        <ele>120</ele>
        <time>2017-03-12T08:41:03Z</time>
      </trkpt>
      <trkpt lat="49.32353" lon="1.01153">
        <ele>122</ele>
        <time>2017-03-12T08:41:10Z</time>
      </trkpt>
      <trkpt lat="49.3236" lon="1.01173">
        <ele>122</ele>
        <time>2017-03-12T08:41:16Z</time>
      </trkpt>
      <trkpt lat="49.32365" lon="1.01195">
        <ele>123</ele>
        <time>2017-03-12T08:41:22Z</time>
      </trkpt>
      <trkpt lat="49.32368" lon="1.0122">
        <ele>123</ele>
        <time>2017-03-12T08:41:28Z</time>
      </trkpt>
      <trkpt lat="49.32365" lon="1.01245">
        <ele>124</ele>
        <time>2017-03-12T08:41:35Z</time>
      </trkpt>
      <trkpt lat="49.3236" lon="1.01273">
        <ele>126</ele>
        <time>2017-03-12T08:41:42Z</time>
      </trkpt>
      <trkpt lat="49.3236" lon="1.01298">
        <ele>125</ele>
        <time>2017-03-12T08:41:48Z</time>
      </trkpt>
      <trkpt lat="49.32355" lon="1.01318">
        <ele>126</ele>
        <time>2017-03-12T08:41:55Z</time>
      </trkpt>
      <trkpt lat="49.32363" lon="1.01338">
        <ele>124</ele>
        <time>2017-03-12T08:42:02Z</time>
      </trkpt>
      <trkpt lat="49.3237" lon="1.01355">
        <ele>124</ele>
        <time>2017-03-12T08:42:07Z</time>
      </trkpt>
      <trkpt lat="49.32378" lon="1.01378">
        <ele>122</ele>
        <time>2017-03-12T08:42:14Z</time>
      </trkpt>
      <trkpt lat="49.3239" lon="1.01408">
        <ele>126</ele>
        <time>2017-03-12T08:42:55Z</time>
      </trkpt>
      <trkpt lat="49.32383" lon="1.01428">
        <ele>123</ele>
        <time>2017-03-12T08:43:04Z</time>
      </trkpt>
      <trkpt lat="49.32383" lon="1.01453">
        <ele>122</ele>
        <time>2017-03-12T08:43:10Z</time>
      </trkpt>
      <trkpt lat="49.32383" lon="1.01478">
        <ele>122</ele>
        <time>2017-03-12T08:43:16Z</time>
      </trkpt>
      <trkpt lat="49.32393" lon="1.01498">
        <ele>116</ele>
        <time>2017-03-12T08:43:23Z</time>
      </trkpt>
      <trkpt lat="49.324" lon="1.01515">
        <ele>112</ele>
        <time>2017-03-12T08:43:28Z</time>
      </trkpt>
      <trkpt lat="49.32415" lon="1.01525">
        <ele>110</ele>
        <time>2017-03-12T08:43:34Z</time>
      </trkpt>
      <trkpt lat="49.3243" lon="1.0153">
        <ele>111</ele>
        <time>2017-03-12T08:43:40Z</time>
      </trkpt>
      <trkpt lat="49.32445" lon="1.01533">
        <ele>114</ele>
        <time>2017-03-12T08:43:45Z</time>
      </trkpt>
      <trkpt lat="49.3246" lon="1.01538">
        <ele>118</ele>
        <time>2017-03-12T08:43:51Z</time>
      </trkpt>
      <trkpt lat="49.32475" lon="1.0154">
        <ele>119</ele>
        <time>2017-03-12T08:43:57Z</time>
      </trkpt>
      <trkpt lat="49.3249" lon="1.01538">
        <ele>120</ele>
        <time>2017-03-12T08:44:04Z</time>
      </trkpt>
      <trkpt lat="49.325" lon="1.01553">
        <ele>121</ele>
        <time>2017-03-12T08:44:10Z</time>
      </trkpt>
      <trkpt lat="49.3251" lon="1.0157">
        <ele>121</ele>
        <time>2017-03-12T08:44:16Z</time>
      </trkpt>
      <trkpt lat="49.32523" lon="1.0158">
        <ele>124</ele>
        <time>2017-03-12T08:44:21Z</time>
      </trkpt>
      <trkpt lat="49.32535" lon="1.01593">
        <ele>125</ele>
        <time>2017-03-12T08:44:28Z</time>
      </trkpt>
      <trkpt lat="49.32543" lon="1.0161">
        <ele>124</ele>
        <time>2017-03-12T08:44:33Z</time>
      </trkpt>
      <trkpt lat="49.3255" lon="1.01628">
        <ele>123</ele>
        <time>2017-03-12T08:44:37Z</time>
      </trkpt>
      <trkpt lat="49.3256" lon="1.01645">
        <ele>124</ele>
        <time>2017-03-12T08:44:42Z</time>
      </trkpt>
      <trkpt lat="49.3257" lon="1.01665">
        <ele>125</ele>
        <time>2017-03-12T08:44:48Z</time>
      </trkpt>
      <trkpt lat="49.32578" lon="1.01685">
        <ele>126</ele>
        <time>2017-03-12T08:44:53Z</time>
      </trkpt>
      <trkpt lat="49.32585" lon="1.01708">
        <ele>128</ele>
        <time>2017-03-12T08:44:59Z</time>
      </trkpt>
      <trkpt lat="49.32595" lon="1.01723">
        <ele>130</ele>
        <time>2017-03-12T08:45:04Z</time>
      </trkpt>
      <trkpt lat="49.32605" lon="1.01743">
        <ele>133</ele>
        <time>2017-03-12T08:45:10Z</time>
      </trkpt>
      <trkpt lat="49.32613" lon="1.0176">
        <ele>132</ele>
        <time>2017-03-12T08:45:14Z</time>
      </trkpt>
      <trkpt lat="49.32623" lon="1.01778">
        <ele>132</ele>
        <time>2017-03-12T08:45:19Z</time>
      </trkpt>
      <trkpt lat="49.3263" lon="1.01795">
        <ele>131</ele>
        <time>2017-03-12T08:45:23Z</time>
      </trkpt>
      <trkpt lat="49.32635" lon="1.01815">
        <ele>132</ele>
        <time>2017-03-12T08:45:28Z</time>
      </trkpt>
      <trkpt lat="49.32633" lon="1.01843">
        <ele>135</ele>
        <time>2017-03-12T08:45:32Z</time>
      </trkpt>
      <trkpt lat="49.32638" lon="1.01868">
        <ele>135</ele>
        <time>2017-03-12T08:45:36Z</time>
      </trkpt>
      <trkpt lat="49.32638" lon="1.0189">
        <ele>136</ele>
        <time>2017-03-12T08:45:40Z</time>
      </trkpt>
      <trkpt lat="49.32638" lon="1.01915">
        <ele>137</ele>
        <time>2017-03-12T08:45:45Z</time>
      </trkpt>
      <trkpt lat="49.32645" lon="1.01935">
        <ele>137</ele>
        <time>2017-03-12T08:45:49Z</time>
      </trkpt>
      <trkpt lat="49.32655" lon="1.01953">
        <ele>134</ele>
        <time>2017-03-12T08:45:53Z</time>
      </trkpt>
      <trkpt lat="49.32663" lon="1.0197">
        <ele>133</ele>
        <time>2017-03-12T08:45:57Z</time>
      </trkpt>
      <trkpt lat="49.32673" lon="1.01988">
        <ele>133</ele>
        <time>2017-03-12T08:46:01Z</time>
      </trkpt>
      <trkpt lat="49.3269" lon="1.02015">
        <ele>134</ele>
        <time>2017-03-12T08:46:06Z</time>
      </trkpt>
      <trkpt lat="49.32698" lon="1.0204">
        <ele>133</ele>
        <time>2017-03-12T08:46:10Z</time>
      </trkpt>
      <trkpt lat="49.32705" lon="1.0206">
        <ele>131</ele>
        <time>2017-03-12T08:46:13Z</time>
      </trkpt>
      <trkpt lat="49.32718" lon="1.02078">
        <ele>130</ele>
        <time>2017-03-12T08:46:17Z</time>
      </trkpt>
      <trkpt lat="49.32723" lon="1.02098">
        <ele>130</ele>
        <time>2017-03-12T08:46:20Z</time>
      </trkpt>
      <trkpt lat="49.32733" lon="1.0213">
        <ele>130</ele>
        <time>2017-03-12T08:46:26Z</time>
      </trkpt>
      <trkpt lat="49.32735" lon="1.02155">
        <ele>132</ele>
        <time>2017-03-12T08:46:30Z</time>
      </trkpt>
      <trkpt lat="49.32735" lon="1.02178">
        <ele>134</ele>
        <time>2017-03-12T08:46:34Z</time>
      </trkpt>
      <trkpt lat="49.32738" lon="1.02203">
        <ele>134</ele>
        <time>2017-03-12T08:46:38Z</time>
      </trkpt>
      <trkpt lat="49.32738" lon="1.02233">
        <ele>132</ele>
        <time>2017-03-12T08:46:42Z</time>
      </trkpt>
      <trkpt lat="49.32738" lon="1.02258">
        <ele>130</ele>
        <time>2017-03-12T08:46:46Z</time>
      </trkpt>
      <trkpt lat="49.32743" lon="1.02278">
        <ele>128</ele>
        <time>2017-03-12T08:46:50Z</time>
      </trkpt>
      <trkpt lat="49.32743" lon="1.02303">
        <ele>130</ele>
        <time>2017-03-12T08:46:55Z</time>
      </trkpt>
      <trkpt lat="49.3275" lon="1.0233">
        <ele>129</ele>
        <time>2017-03-12T08:46:58Z</time>
      </trkpt>
      <trkpt lat="49.3276" lon="1.02353">
        <ele>128</ele>
        <time>2017-03-12T08:47:01Z</time>
      </trkpt>
      <trkpt lat="49.32768" lon="1.02378">
        <ele>128</ele>
        <time>2017-03-12T08:47:04Z</time>
      </trkpt>
      <trkpt lat="49.32765" lon="1.02403">
        <ele>128</ele>
        <time>2017-03-12T08:47:07Z</time>
      </trkpt>
      <trkpt lat="49.32768" lon="1.0243">
        <ele>128</ele>
        <time>2017-03-12T08:47:10Z</time>
      </trkpt>
      <trkpt lat="49.3277" lon="1.02453">
        <ele>127</ele>
        <time>2017-03-12T08:47:13Z</time>
      </trkpt>
      <trkpt lat="49.32773" lon="1.0248">
        <ele>127</ele>
        <time>2017-03-12T08:47:17Z</time>
      </trkpt>
      <trkpt lat="49.32778" lon="1.02505">
        <ele>127</ele>
        <time>2017-03-12T08:47:20Z</time>
      </trkpt>
      <trkpt lat="49.32788" lon="1.02523">
        <ele>128</ele>
        <time>2017-03-12T08:47:23Z</time>
      </trkpt>
      <trkpt lat="49.32803" lon="1.02538">
        <ele>127</ele>
        <time>2017-03-12T08:47:27Z</time>
      </trkpt>
      <trkpt lat="49.32813" lon="1.02555">
        <ele>127</ele>
        <time>2017-03-12T08:47:30Z</time>
      </trkpt>
      <trkpt lat="49.3282" lon="1.02578">
        <ele>126</ele>
        <time>2017-03-12T08:47:33Z</time>
      </trkpt>
      <trkpt lat="49.32828" lon="1.02595">
        <ele>125</ele>
        <time>2017-03-12T08:47:36Z</time>
      </trkpt>
      <trkpt lat="49.32835" lon="1.02615">
        <ele>125</ele>
        <time>2017-03-12T08:47:39Z</time>
      </trkpt>
      <trkpt lat="49.32843" lon="1.02633">
        <ele>124</ele>
        <time>2017-03-12T08:47:42Z</time>
      </trkpt>
      <trkpt lat="49.32858" lon="1.02685">
        <ele>124</ele>
        <time>2017-03-12T08:47:49Z</time>
      </trkpt>
      <trkpt lat="49.32863" lon="1.02708">
        <ele>124</ele>
        <time>2017-03-12T08:47:52Z</time>
      </trkpt>
      <trkpt lat="49.3287" lon="1.0273">
        <ele>124</ele>
        <time>2017-03-12T08:47:55Z</time>
      </trkpt>
      <trkpt lat="49.3288" lon="1.02745">
        <ele>124</ele>
        <time>2017-03-12T08:47:58Z</time>
      </trkpt>
      <trkpt lat="49.32908" lon="1.02783">
        <ele>124</ele>
        <time>2017-03-12T08:48:05Z</time>
      </trkpt>
      <trkpt lat="49.32915" lon="1.028">
        <ele>124</ele>
        <time>2017-03-12T08:48:09Z</time>
      </trkpt>
      <trkpt lat="49.329" lon="1.02808">
        <ele>124</ele>
        <time>2017-03-12T08:48:15Z</time>
      </trkpt>
      <trkpt lat="49.32883" lon="1.02815">
        <ele>123</ele>
        <time>2017-03-12T08:48:19Z</time>
      </trkpt>
      <trkpt lat="49.3285" lon="1.02825">
        <ele>124</ele>
        <time>2017-03-12T08:48:25Z</time>
      </trkpt>
      <trkpt lat="49.32828" lon="1.02833">
        <ele>125</ele>
        <time>2017-03-12T08:48:30Z</time>
      </trkpt>
      <trkpt lat="49.328" lon="1.02843">
        <ele>126</ele>
        <time>2017-03-12T08:48:36Z</time>
      </trkpt>
      <trkpt lat="49.32778" lon="1.02848">
        <ele>126</ele>
        <time>2017-03-12T08:48:41Z</time>
      </trkpt>
      <trkpt lat="49.32763" lon="1.02843">
        <ele>126</ele>
        <time>2017-03-12T08:48:46Z</time>
      </trkpt>
      <trkpt lat="49.3275" lon="1.0283">
        <ele>125</ele>
        <time>2017-03-12T08:48:53Z</time>
      </trkpt>
      <trkpt lat="49.32738" lon="1.02845">
        <ele>124</ele>
        <time>2017-03-12T08:49:01Z</time>
      </trkpt>
      <trkpt lat="49.3274" lon="1.02868">
        <ele>121</ele>
        <time>2017-03-12T08:49:07Z</time>
      </trkpt>
      <trkpt lat="49.32753" lon="1.0288">
        <ele>119</ele>
        <time>2017-03-12T08:49:12Z</time>
      </trkpt>
      <trkpt lat="49.3276" lon="1.02898">
        <ele>117</ele>
        <time>2017-03-12T08:49:17Z</time>
      </trkpt>
      <trkpt lat="49.32773" lon="1.02913">
        <ele>116</ele>
        <time>2017-03-12T08:49:23Z</time>
      </trkpt>
      <trkpt lat="49.3278" lon="1.02935">
        <ele>115</ele>
        <time>2017-03-12T08:49:28Z</time>
      </trkpt>
      <trkpt lat="49.32788" lon="1.02953">
        <ele>116</ele>
        <time>2017-03-12T08:49:34Z</time>
      </trkpt>
      <trkpt lat="49.32793" lon="1.02973">
        <ele>117</ele>
        <time>2017-03-12T08:49:39Z</time>
      </trkpt>
      <trkpt lat="49.32798" lon="1.02995">
        <ele>120</ele>
        <time>2017-03-12T08:49:45Z</time>
      </trkpt>
      <trkpt lat="49.328" lon="1.0302">
        <ele>122</ele>
        <time>2017-03-12T08:49:52Z</time>
      </trkpt>
      <trkpt lat="49.328" lon="1.03043">
        <ele>123</ele>
        <time>2017-03-12T08:49:57Z</time>
      </trkpt>
      <trkpt lat="49.32798" lon="1.03068">
        <ele>124</ele>
        <time>2017-03-12T08:50:02Z</time>
      </trkpt>
      <trkpt lat="49.32798" lon="1.03095">
        <ele>124</ele>
        <time>2017-03-12T08:50:37Z</time>
      </trkpt>
      <trkpt lat="49.32808" lon="1.03113">
        <ele>125</ele>
        <time>2017-03-12T08:50:45Z</time>
      </trkpt>
      <trkpt lat="49.3282" lon="1.03128">
        <ele>125</ele>
        <time>2017-03-12T08:50:50Z</time>
      </trkpt>
      <trkpt lat="49.3283" lon="1.03145">
        <ele>125</ele>
        <time>2017-03-12T08:50:55Z</time>
      </trkpt>
      <trkpt lat="49.32843" lon="1.0316">
        <ele>124</ele>
        <time>2017-03-12T08:51:01Z</time>
      </trkpt>
      <trkpt lat="49.32853" lon="1.03175">
        <ele>125</ele>
        <time>2017-03-12T08:51:06Z</time>
      </trkpt>
      <trkpt lat="49.32858" lon="1.03195">
        <ele>126</ele>
        <time>2017-03-12T08:51:11Z</time>
      </trkpt>
      <trkpt lat="49.32858" lon="1.0322">
        <ele>127</ele>
        <time>2017-03-12T08:51:18Z</time>
      </trkpt>
      <trkpt lat="49.3286" lon="1.03245">
        <ele>127</ele>
        <time>2017-03-12T08:51:24Z</time>
      </trkpt>
      <trkpt lat="49.32858" lon="1.03268">
        <ele>127</ele>
        <time>2017-03-12T08:51:31Z</time>
      </trkpt>
      <trkpt lat="49.32855" lon="1.0329">
        <ele>127</ele>
        <time>2017-03-12T08:51:37Z</time>
      </trkpt>
      <trkpt lat="49.32853" lon="1.03313">
        <ele>128</ele>
        <time>2017-03-12T08:51:42Z</time>
      </trkpt>
      <trkpt lat="49.32845" lon="1.03335">
        <ele>129</ele>
        <time>2017-03-12T08:51:49Z</time>
      </trkpt>
      <trkpt lat="49.3284" lon="1.03355">
        <ele>129</ele>
        <time>2017-03-12T08:51:55Z</time>
      </trkpt>
      <trkpt lat="49.32835" lon="1.03378">
        <ele>130</ele>
        <time>2017-03-12T08:52:01Z</time>
      </trkpt>
      <trkpt lat="49.3284" lon="1.034">
        <ele>128</ele>
        <time>2017-03-12T08:52:07Z</time>
      </trkpt>
      <trkpt lat="49.32848" lon="1.0342">
        <ele>125</ele>
        <time>2017-03-12T08:52:11Z</time>
      </trkpt>
      <trkpt lat="49.32855" lon="1.03438">
        <ele>125</ele>
        <time>2017-03-12T08:52:15Z</time>
      </trkpt>
      <trkpt lat="49.3286" lon="1.0346">
        <ele>123</ele>
        <time>2017-03-12T08:52:19Z</time>
      </trkpt>
      <trkpt lat="49.32868" lon="1.03483">
        <ele>125</ele>
        <time>2017-03-12T08:52:24Z</time>
      </trkpt>
      <trkpt lat="49.32868" lon="1.03505">
        <ele>126</ele>
        <time>2017-03-12T08:52:31Z</time>
      </trkpt>
      <trkpt lat="49.32868" lon="1.03528">
        <ele>126</ele>
        <time>2017-03-12T08:52:35Z</time>
      </trkpt>
      <trkpt lat="49.32865" lon="1.03555">
        <ele>127</ele>
        <time>2017-03-12T08:52:40Z</time>
      </trkpt>
      <trkpt lat="49.3286" lon="1.03578">
        <ele>127</ele>
        <time>2017-03-12T08:52:46Z</time>
      </trkpt>
      <trkpt lat="49.32858" lon="1.036">
        <ele>127</ele>
        <time>2017-03-12T08:52:53Z</time>
      </trkpt>
      <trkpt lat="49.32853" lon="1.0362">
        <ele>126</ele>
        <time>2017-03-12T08:53:00Z</time>
      </trkpt>
      <trkpt lat="49.32868" lon="1.0362">
        <ele>125</ele>
        <time>2017-03-12T08:53:09Z</time>
      </trkpt>
      <trkpt lat="49.3288" lon="1.0361">
        <ele>126</ele>
        <time>2017-03-12T08:53:16Z</time>
      </trkpt>
      <trkpt lat="49.32895" lon="1.03623">
        <ele>129</ele>
        <time>2017-03-12T08:53:25Z</time>
      </trkpt>
      <trkpt lat="49.32908" lon="1.03633">
        <ele>130</ele>
        <time>2017-03-12T08:53:30Z</time>
      </trkpt>
      <trkpt lat="49.32923" lon="1.03643">
        <ele>132</ele>
        <time>2017-03-12T08:53:37Z</time>
      </trkpt>
      <trkpt lat="49.3294" lon="1.0364">
        <ele>132</ele>
        <time>2017-03-12T08:53:44Z</time>
      </trkpt>
      <trkpt lat="49.3295" lon="1.03655">
        <ele>133</ele>
        <time>2017-03-12T08:53:49Z</time>
      </trkpt>
      <trkpt lat="49.32953" lon="1.03678">
        <ele>135</ele>
        <time>2017-03-12T08:53:54Z</time>
      </trkpt>
      <trkpt lat="49.32958" lon="1.03698">
        <ele>133</ele>
        <time>2017-03-12T08:53:59Z</time>
      </trkpt>
      <trkpt lat="49.32963" lon="1.03718">
        <ele>132</ele>
        <time>2017-03-12T08:54:03Z</time>
      </trkpt>
      <trkpt lat="49.32968" lon="1.03745">
        <ele>133</ele>
        <time>2017-03-12T08:54:08Z</time>
      </trkpt>
      <trkpt lat="49.32968" lon="1.03775">
        <ele>134</ele>
        <time>2017-03-12T08:54:13Z</time>
      </trkpt>
      <trkpt lat="49.32968" lon="1.03798">
        <ele>135</ele>
        <time>2017-03-12T08:54:17Z</time>
      </trkpt>
      <trkpt lat="49.3297" lon="1.03823">
        <ele>136</ele>
        <time>2017-03-12T08:54:23Z</time>
      </trkpt>
      <trkpt lat="49.32968" lon="1.03845">
        <ele>136</ele>
        <time>2017-03-12T08:54:27Z</time>
      </trkpt>
      <trkpt lat="49.32965" lon="1.0387">
        <ele>137</ele>
        <time>2017-03-12T08:54:33Z</time>
      </trkpt>
      <trkpt lat="49.32963" lon="1.039">
        <ele>134</ele>
        <time>2017-03-12T08:54:40Z</time>
      </trkpt>
      <trkpt lat="49.32963" lon="1.03935">
        <ele>134</ele>
        <time>2017-03-12T08:54:47Z</time>
      </trkpt>
      <trkpt lat="49.3296" lon="1.03958">
        <ele>135</ele>
        <time>2017-03-12T08:54:51Z</time>
      </trkpt>
      <trkpt lat="49.32955" lon="1.0398">
        <ele>136</ele>
        <time>2017-03-12T08:54:55Z</time>
      </trkpt>
      <trkpt lat="49.32948" lon="1.04008">
        <ele>136</ele>
        <time>2017-03-12T08:54:59Z</time>
      </trkpt>
      <trkpt lat="49.3294" lon="1.04028">
        <ele>136</ele>
        <time>2017-03-12T08:55:02Z</time>
      </trkpt>
      <trkpt lat="49.3293" lon="1.04048">
        <ele>137</ele>
        <time>2017-03-12T08:55:06Z</time>
      </trkpt>
      <trkpt lat="49.32918" lon="1.04063">
        <ele>138</ele>
        <time>2017-03-12T08:55:09Z</time>
      </trkpt>
      <trkpt lat="49.32905" lon="1.04073">
        <ele>138</ele>
        <time>2017-03-12T08:55:12Z</time>
      </trkpt>
      <trkpt lat="49.3289" lon="1.0408">
        <ele>138</ele>
        <time>2017-03-12T08:55:16Z</time>
      </trkpt>
      <trkpt lat="49.32873" lon="1.0409">
        <ele>136</ele>
        <time>2017-03-12T08:55:20Z</time>
      </trkpt>
      <trkpt lat="49.32858" lon="1.04098">
        <ele>135</ele>
        <time>2017-03-12T08:55:23Z</time>
      </trkpt>
      <trkpt lat="49.32833" lon="1.04113">
        <ele>133</ele>
        <time>2017-03-12T08:55:27Z</time>
      </trkpt>
      <trkpt lat="49.32825" lon="1.0413">
        <ele>133</ele>
        <time>2017-03-12T08:55:30Z</time>
      </trkpt>
      <trkpt lat="49.3282" lon="1.04153">
        <ele>132</ele>
        <time>2017-03-12T08:55:34Z</time>
      </trkpt>
      <trkpt lat="49.32818" lon="1.04175">
        <ele>131</ele>
        <time>2017-03-12T08:55:37Z</time>
      </trkpt>
      <trkpt lat="49.32813" lon="1.04208">
        <ele>129</ele>
        <time>2017-03-12T08:55:54Z</time>
      </trkpt>
      <trkpt lat="49.32825" lon="1.0423">
        <ele>131</ele>
        <time>2017-03-12T08:56:22Z</time>
      </trkpt>
      <trkpt lat="49.32838" lon="1.04243">
        <ele>130</ele>
        <time>2017-03-12T08:56:29Z</time>
      </trkpt>
      <trkpt lat="49.32853" lon="1.0425">
        <ele>128</ele>
        <time>2017-03-12T08:56:35Z</time>
      </trkpt>
      <trkpt lat="49.32865" lon="1.0426">
        <ele>126</ele>
        <time>2017-03-12T08:56:40Z</time>
      </trkpt>
      <trkpt lat="49.3288" lon="1.0425">
        <ele>127</ele>
        <time>2017-03-12T08:56:44Z</time>
      </trkpt>
      <trkpt lat="49.32895" lon="1.0424">
        <ele>129</ele>
        <time>2017-03-12T08:56:49Z</time>
      </trkpt>
      <trkpt lat="49.3291" lon="1.04235">
        <ele>132</ele>
        <time>2017-03-12T08:56:54Z</time>
      </trkpt>
      <trkpt lat="49.32925" lon="1.04228">
        <ele>134</ele>
        <time>2017-03-12T08:56:59Z</time>
      </trkpt>
      <trkpt lat="49.32938" lon="1.04218">
        <ele>134</ele>
        <time>2017-03-12T08:57:03Z</time>
      </trkpt>
      <trkpt lat="49.32953" lon="1.04213">
        <ele>135</ele>
        <time>2017-03-12T08:57:07Z</time>
      </trkpt>
      <trkpt lat="49.32968" lon="1.042">
        <ele>136</ele>
        <time>2017-03-12T08:57:12Z</time>
      </trkpt>
      <trkpt lat="49.32988" lon="1.0419">
        <ele>138</ele>
        <time>2017-03-12T08:57:17Z</time>
      </trkpt>
      <trkpt lat="49.33" lon="1.0418">
        <ele>138</ele>
        <time>2017-03-12T08:57:21Z</time>
      </trkpt>
      <trkpt lat="49.33015" lon="1.04173">
        <ele>138</ele>
        <time>2017-03-12T08:57:24Z</time>
      </trkpt>
      <trkpt lat="49.33033" lon="1.04163">
        <ele>138</ele>
        <time>2017-03-12T08:57:28Z</time>
      </trkpt>
      <trkpt lat="49.3305" lon="1.04153">
        <ele>138</ele>
        <time>2017-03-12T08:57:32Z</time>
      </trkpt>
      <trkpt lat="49.3307" lon="1.0414">
        <ele>138</ele>
        <time>2017-03-12T08:57:36Z</time>
      </trkpt>
      <trkpt lat="49.33085" lon="1.04133">
        <ele>139</ele>
        <time>2017-03-12T08:57:39Z</time>
      </trkpt>
      <trkpt lat="49.331" lon="1.04125">
        <ele>138</ele>
        <time>2017-03-12T08:57:42Z</time>
      </trkpt>
      <trkpt lat="49.33118" lon="1.04113">
        <ele>138</ele>
        <time>2017-03-12T08:57:47Z</time>
      </trkpt>
      <trkpt lat="49.33135" lon="1.041">
        <ele>137</ele>
        <time>2017-03-12T08:57:51Z</time>
      </trkpt>
      <trkpt lat="49.33153" lon="1.0409">
        <ele>137</ele>
        <time>2017-03-12T08:57:55Z</time>
      </trkpt>
      <trkpt lat="49.3317" lon="1.0408">
        <ele>138</ele>
        <time>2017-03-12T08:57:59Z</time>
      </trkpt>
      <trkpt lat="49.33193" lon="1.04068">
        <ele>138</ele>
        <time>2017-03-12T08:58:04Z</time>
      </trkpt>
      <trkpt lat="49.33208" lon="1.0406">
        <ele>137</ele>
        <time>2017-03-12T08:58:08Z</time>
      </trkpt>
      <trkpt lat="49.33223" lon="1.04053">
        <ele>135</ele>
        <time>2017-03-12T08:58:10Z</time>
      </trkpt>
      <trkpt lat="49.33238" lon="1.0404">
        <ele>132</ele>
        <time>2017-03-12T08:58:14Z</time>
      </trkpt>
      <trkpt lat="49.3324" lon="1.04013">
        <ele>132</ele>
        <time>2017-03-12T08:58:18Z</time>
      </trkpt>
      <trkpt lat="49.33238" lon="1.03988">
        <ele>132</ele>
        <time>2017-03-12T08:58:22Z</time>
      </trkpt>
      <trkpt lat="49.33235" lon="1.03965">
        <ele>131</ele>
        <time>2017-03-12T08:58:25Z</time>
      </trkpt>
      <trkpt lat="49.3323" lon="1.03943">
        <ele>130</ele>
        <time>2017-03-12T08:58:28Z</time>
      </trkpt>
      <trkpt lat="49.33223" lon="1.03913">
        <ele>131</ele>
        <time>2017-03-12T08:58:32Z</time>
      </trkpt>
      <trkpt lat="49.3321" lon="1.03858">
        <ele>132</ele>
        <time>2017-03-12T08:58:40Z</time>
      </trkpt>
      <trkpt lat="49.33203" lon="1.03838">
        <ele>133</ele>
        <time>2017-03-12T08:58:43Z</time>
      </trkpt>
      <trkpt lat="49.33195" lon="1.03813">
        <ele>134</ele>
        <time>2017-03-12T08:58:47Z</time>
      </trkpt>
      <trkpt lat="49.33193" lon="1.0379">
        <ele>134</ele>
        <time>2017-03-12T08:58:52Z</time>
      </trkpt>
      <trkpt lat="49.33208" lon="1.03785">
        <ele>131</ele>
        <time>2017-03-12T08:58:57Z</time>
      </trkpt>
      <trkpt lat="49.33238" lon="1.03775">
        <ele>128</ele>
        <time>2017-03-12T08:59:04Z</time>
      </trkpt>
      <trkpt lat="49.33253" lon="1.03765">
        <ele>126</ele>
        <time>2017-03-12T08:59:08Z</time>
      </trkpt>
      <trkpt lat="49.3327" lon="1.03755">
        <ele>123</ele>
        <time>2017-03-12T08:59:15Z</time>
      </trkpt>
      <trkpt lat="49.33298" lon="1.03743">
        <ele>117</ele>
        <time>2017-03-12T08:59:28Z</time>
      </trkpt>
      <trkpt lat="49.33323" lon="1.03738">
        <ele>115</ele>
        <time>2017-03-12T08:59:40Z</time>
      </trkpt>
      <trkpt lat="49.33338" lon="1.03735">
        <ele>116</ele>
        <time>2017-03-12T08:59:46Z</time>
      </trkpt>
      <trkpt lat="49.33353" lon="1.0374">
        <ele>113</ele>
        <time>2017-03-12T08:59:52Z</time>
      </trkpt>
      <trkpt lat="49.33365" lon="1.03753">
        <ele>115</ele>
        <time>2017-03-12T08:59:58Z</time>
      </trkpt>
      <trkpt lat="49.33373" lon="1.03725">
        <ele>116</ele>
        <time>2017-03-12T09:00:15Z</time>
      </trkpt>
      <trkpt lat="49.3337" lon="1.03703">
        <ele>118</ele>
        <time>2017-03-12T09:00:20Z</time>
      </trkpt>
      <trkpt lat="49.33383" lon="1.03693">
        <ele>120</ele>
        <time>2017-03-12T09:00:29Z</time>
      </trkpt>
      <trkpt lat="49.33395" lon="1.03708">
        <ele>112</ele>
        <time>2017-03-12T09:02:06Z</time>
      </trkpt>
      <trkpt lat="49.3341" lon="1.03713">
        <ele>115</ele>
        <time>2017-03-12T09:02:11Z</time>
      </trkpt>
      <trkpt lat="49.33425" lon="1.03725">
        <ele>115</ele>
        <time>2017-03-12T09:02:16Z</time>
      </trkpt>
      <trkpt lat="49.33435" lon="1.0374">
        <ele>116</ele>
        <time>2017-03-12T09:02:20Z</time>
      </trkpt>
      <trkpt lat="49.3345" lon="1.03755">
        <ele>117</ele>
        <time>2017-03-12T09:02:24Z</time>
      </trkpt>
      <trkpt lat="49.3346" lon="1.0377">
        <ele>116</ele>
        <time>2017-03-12T09:02:27Z</time>
      </trkpt>
      <trkpt lat="49.33473" lon="1.03788">
        <ele>116</ele>
        <time>2017-03-12T09:02:31Z</time>
      </trkpt>
      <trkpt lat="49.33488" lon="1.03805">
        <ele>118</ele>
        <time>2017-03-12T09:02:35Z</time>
      </trkpt>
      <trkpt lat="49.335" lon="1.0382">
        <ele>121</ele>
        <time>2017-03-12T09:02:39Z</time>
      </trkpt>
      <trkpt lat="49.33508" lon="1.03838">
        <ele>123</ele>
        <time>2017-03-12T09:02:42Z</time>
      </trkpt>
      <trkpt lat="49.33518" lon="1.03853">
        <ele>124</ele>
        <time>2017-03-12T09:02:45Z</time>
      </trkpt>
      <trkpt lat="49.33528" lon="1.03868">
        <ele>125</ele>
        <time>2017-03-12T09:02:48Z</time>
      </trkpt>
      <trkpt lat="49.33543" lon="1.03895">
        <ele>124</ele>
        <time>2017-03-12T09:02:52Z</time>
      </trkpt>
      <trkpt lat="49.3355" lon="1.03915">
        <ele>125</ele>
        <time>2017-03-12T09:02:55Z</time>
      </trkpt>
      <trkpt lat="49.3356" lon="1.03935">
        <ele>123</ele>
        <time>2017-03-12T09:02:58Z</time>
      </trkpt>
      <trkpt lat="49.33568" lon="1.03955">
        <ele>121</ele>
        <time>2017-03-12T09:03:01Z</time>
      </trkpt>
      <trkpt lat="49.3358" lon="1.03978">
        <ele>122</ele>
        <time>2017-03-12T09:03:04Z</time>
      </trkpt>
      <trkpt lat="49.33593" lon="1.04008">
        <ele>123</ele>
        <time>2017-03-12T09:03:08Z</time>
      </trkpt>
      <trkpt lat="49.33603" lon="1.04028">
        <ele>122</ele>
        <time>2017-03-12T09:03:11Z</time>
      </trkpt>
      <trkpt lat="49.33608" lon="1.0405">
        <ele>123</ele>
        <time>2017-03-12T09:03:14Z</time>
      </trkpt>
      <trkpt lat="49.3361" lon="1.04083">
        <ele>124</ele>
        <time>2017-03-12T09:03:17Z</time>
      </trkpt>
      <trkpt lat="49.33608" lon="1.0412">
        <ele>126</ele>
        <time>2017-03-12T09:03:20Z</time>
      </trkpt>
      <trkpt lat="49.33605" lon="1.04145">
        <ele>125</ele>
        <time>2017-03-12T09:03:23Z</time>
      </trkpt>
      <trkpt lat="49.33603" lon="1.04173">
        <ele>126</ele>
        <time>2017-03-12T09:03:26Z</time>
      </trkpt>
      <trkpt lat="49.33603" lon="1.042">
        <ele>125</ele>
        <time>2017-03-12T09:03:29Z</time>
      </trkpt>
      <trkpt lat="49.33608" lon="1.04228">
        <ele>126</ele>
        <time>2017-03-12T09:03:32Z</time>
      </trkpt>
      <trkpt lat="49.33608" lon="1.04263">
        <ele>127</ele>
        <time>2017-03-12T09:03:36Z</time>
      </trkpt>
      <trkpt lat="49.33608" lon="1.04315">
        <ele>127</ele>
        <time>2017-03-12T09:03:41Z</time>
      </trkpt>
      <trkpt lat="49.3361" lon="1.04343">
        <ele>127</ele>
        <time>2017-03-12T09:03:44Z</time>
      </trkpt>
      <trkpt lat="49.3361" lon="1.04383">
        <ele>127</ele>
        <time>2017-03-12T09:03:48Z</time>
      </trkpt>
      <trkpt lat="49.33608" lon="1.04418">
        <ele>127</ele>
        <time>2017-03-12T09:03:51Z</time>
      </trkpt>
      <trkpt lat="49.3361" lon="1.04443">
        <ele>126</ele>
        <time>2017-03-12T09:03:54Z</time>
      </trkpt>
      <trkpt lat="49.33615" lon="1.04468">
        <ele>125</ele>
        <time>2017-03-12T09:03:57Z</time>
      </trkpt>
      <trkpt lat="49.33623" lon="1.04493">
        <ele>123</ele>
        <time>2017-03-12T09:04:00Z</time>
      </trkpt>
      <trkpt lat="49.33633" lon="1.04508">
        <ele>123</ele>
        <time>2017-03-12T09:04:03Z</time>
      </trkpt>
      <trkpt lat="49.33645" lon="1.04525">
        <ele>122</ele>
        <time>2017-03-12T09:04:07Z</time>
      </trkpt>
      <trkpt lat="49.33663" lon="1.04535">
        <ele>122</ele>
        <time>2017-03-12T09:04:10Z</time>
      </trkpt>
      <trkpt lat="49.33675" lon="1.04545">
        <ele>121</ele>
        <time>2017-03-12T09:04:13Z</time>
      </trkpt>
      <trkpt lat="49.3369" lon="1.04555">
        <ele>119</ele>
        <time>2017-03-12T09:04:16Z</time>
      </trkpt>
      <trkpt lat="49.3371" lon="1.04575">
        <ele>117</ele>
        <time>2017-03-12T09:04:21Z</time>
      </trkpt>
      <trkpt lat="49.33735" lon="1.04595">
        <ele>116</ele>
        <time>2017-03-12T09:04:27Z</time>
      </trkpt>
      <trkpt lat="49.33758" lon="1.04615">
        <ele>112</ele>
        <time>2017-03-12T09:04:31Z</time>
      </trkpt>
      <trkpt lat="49.33778" lon="1.04635">
        <ele>113</ele>
        <time>2017-03-12T09:04:35Z</time>
      </trkpt>
      <trkpt lat="49.33793" lon="1.04648">
        <ele>117</ele>
        <time>2017-03-12T09:04:38Z</time>
      </trkpt>
      <trkpt lat="49.33808" lon="1.04668">
        <ele>119</ele>
        <time>2017-03-12T09:04:42Z</time>
      </trkpt>
      <trkpt lat="49.3382" lon="1.04685">
        <ele>121</ele>
        <time>2017-03-12T09:04:45Z</time>
      </trkpt>
      <trkpt lat="49.33835" lon="1.0471">
        <ele>123</ele>
        <time>2017-03-12T09:04:50Z</time>
      </trkpt>
      <trkpt lat="49.33845" lon="1.04735">
        <ele>123</ele>
        <time>2017-03-12T09:04:53Z</time>
      </trkpt>
      <trkpt lat="49.33855" lon="1.04758">
        <ele>122</ele>
        <time>2017-03-12T09:04:56Z</time>
      </trkpt>
      <trkpt lat="49.33865" lon="1.04778">
        <ele>124</ele>
        <time>2017-03-12T09:04:59Z</time>
      </trkpt>
      <trkpt lat="49.33875" lon="1.048">
        <ele>124</ele>
        <time>2017-03-12T09:05:02Z</time>
      </trkpt>
      <trkpt lat="49.33885" lon="1.0482">
        <ele>125</ele>
        <time>2017-03-12T09:05:05Z</time>
      </trkpt>
      <trkpt lat="49.33895" lon="1.04838">
        <ele>125</ele>
        <time>2017-03-12T09:05:08Z</time>
      </trkpt>
      <trkpt lat="49.33903" lon="1.0486">
        <ele>121</ele>
        <time>2017-03-12T09:05:11Z</time>
      </trkpt>
      <trkpt lat="49.3391" lon="1.04878">
        <ele>119</ele>
        <time>2017-03-12T09:05:13Z</time>
      </trkpt>
      <trkpt lat="49.33918" lon="1.04898">
        <ele>115</ele>
        <time>2017-03-12T09:05:16Z</time>
      </trkpt>
      <trkpt lat="49.33928" lon="1.04928">
        <ele>114</ele>
        <time>2017-03-12T09:05:20Z</time>
      </trkpt>
      <trkpt lat="49.33933" lon="1.0495">
        <ele>114</ele>
        <time>2017-03-12T09:05:23Z</time>
      </trkpt>
      <trkpt lat="49.33935" lon="1.04975">
        <ele>113</ele>
        <time>2017-03-12T09:05:26Z</time>
      </trkpt>
      <trkpt lat="49.33938" lon="1.0501">
        <ele>117</ele>
        <time>2017-03-12T09:05:31Z</time>
      </trkpt>
      <trkpt lat="49.3394" lon="1.05038">
        <ele>116</ele>
        <time>2017-03-12T09:05:34Z</time>
      </trkpt>
      <trkpt lat="49.3395" lon="1.05058">
        <ele>112</ele>
        <time>2017-03-12T09:05:37Z</time>
      </trkpt>
      <trkpt lat="49.33963" lon="1.05068">
        <ele>113</ele>
        <time>2017-03-12T09:05:40Z</time>
      </trkpt>
      <trkpt lat="49.3398" lon="1.05078">
        <ele>113</ele>
        <time>2017-03-12T09:05:44Z</time>
      </trkpt>
      <trkpt lat="49.33995" lon="1.05088">
        <ele>114</ele>
        <time>2017-03-12T09:05:48Z</time>
      </trkpt>
      <trkpt lat="49.34005" lon="1.05103">
        <ele>115</ele>
        <time>2017-03-12T09:05:51Z</time>
      </trkpt>
      <trkpt lat="49.34008" lon="1.05125">
        <ele>118</ele>
        <time>2017-03-12T09:05:55Z</time>
      </trkpt>
      <trkpt lat="49.34008" lon="1.0515">
        <ele>119</ele>
        <time>2017-03-12T09:05:59Z</time>
      </trkpt>
      <trkpt lat="49.34005" lon="1.05173">
        <ele>121</ele>
        <time>2017-03-12T09:06:03Z</time>
      </trkpt>
      <trkpt lat="49.34008" lon="1.05195">
        <ele>121</ele>
        <time>2017-03-12T09:06:06Z</time>
      </trkpt>
      <trkpt lat="49.34015" lon="1.05215">
        <ele>120</ele>
        <time>2017-03-12T09:06:09Z</time>
      </trkpt>
      <trkpt lat="49.34025" lon="1.05233">
        <ele>115</ele>
        <time>2017-03-12T09:06:12Z</time>
      </trkpt>
      <trkpt lat="49.34038" lon="1.05245">
        <ele>112</ele>
        <time>2017-03-12T09:06:15Z</time>
      </trkpt>
      <trkpt lat="49.3405" lon="1.0526">
        <ele>111</ele>
        <time>2017-03-12T09:06:18Z</time>
      </trkpt>
      <trkpt lat="49.34065" lon="1.0527">
        <ele>108</ele>
        <time>2017-03-12T09:06:21Z</time>
      </trkpt>
      <trkpt lat="49.3408" lon="1.0528">
        <ele>108</ele>
        <time>2017-03-12T09:06:24Z</time>
      </trkpt>
      <trkpt lat="49.34095" lon="1.0528">
        <ele>110</ele>
        <time>2017-03-12T09:06:30Z</time>
      </trkpt>
      <trkpt lat="49.34105" lon="1.05265">
        <ele>111</ele>
        <time>2017-03-12T09:06:35Z</time>
      </trkpt>
      <trkpt lat="49.3412" lon="1.05265">
        <ele>113</ele>
        <time>2017-03-12T09:06:40Z</time>
      </trkpt>
      <trkpt lat="49.34135" lon="1.0527">
        <ele>114</ele>
        <time>2017-03-12T09:06:43Z</time>
      </trkpt>
      <trkpt lat="49.34145" lon="1.05288">
        <ele>112</ele>
        <time>2017-03-12T09:06:47Z</time>
      </trkpt>
      <trkpt lat="49.34148" lon="1.0531">
        <ele>111</ele>
        <time>2017-03-12T09:06:50Z</time>
      </trkpt>
      <trkpt lat="49.3415" lon="1.05335">
        <ele>109</ele>
        <time>2017-03-12T09:06:53Z</time>
      </trkpt>
      <trkpt lat="49.34155" lon="1.05355">
        <ele>106</ele>
        <time>2017-03-12T09:06:55Z</time>
      </trkpt>
      <trkpt lat="49.34168" lon="1.0538">
        <ele>104</ele>
        <time>2017-03-12T09:06:58Z</time>
      </trkpt>
      <trkpt lat="49.3418" lon="1.05395">
        <ele>103</ele>
        <time>2017-03-12T09:07:01Z</time>
      </trkpt>
      <trkpt lat="49.34188" lon="1.0542">
        <ele>101</ele>
        <time>2017-03-12T09:07:04Z</time>
      </trkpt>
      <trkpt lat="49.34193" lon="1.05455">
        <ele>100</ele>
        <time>2017-03-12T09:07:08Z</time>
      </trkpt>
      <trkpt lat="49.34203" lon="1.05475">
        <ele>99</ele>
        <time>2017-03-12T09:07:11Z</time>
      </trkpt>
      <trkpt lat="49.34215" lon="1.05493">
        <ele>99</ele>
        <time>2017-03-12T09:07:14Z</time>
      </trkpt>
      <trkpt lat="49.34233" lon="1.05515">
        <ele>99</ele>
        <time>2017-03-12T09:07:18Z</time>
      </trkpt>
      <trkpt lat="49.34248" lon="1.05535">
        <ele>99</ele>
        <time>2017-03-12T09:07:22Z</time>
      </trkpt>
      <trkpt lat="49.34255" lon="1.05558">
        <ele>97</ele>
        <time>2017-03-12T09:07:25Z</time>
      </trkpt>
      <trkpt lat="49.34265" lon="1.05588">
        <ele>97</ele>
        <time>2017-03-12T09:07:29Z</time>
      </trkpt>
      <trkpt lat="49.3427" lon="1.0561">
        <ele>98</ele>
        <time>2017-03-12T09:07:32Z</time>
      </trkpt>
      <trkpt lat="49.34275" lon="1.05633">
        <ele>97</ele>
        <time>2017-03-12T09:07:35Z</time>
      </trkpt>
      <trkpt lat="49.34283" lon="1.0565">
        <ele>97</ele>
        <time>2017-03-12T09:07:38Z</time>
      </trkpt>
      <trkpt lat="49.34288" lon="1.05688">
        <ele>112</ele>
        <time>2017-03-12T09:10:30Z</time>
      </trkpt>
      <trkpt lat="49.34288" lon="1.05713">
        <ele>108</ele>
        <time>2017-03-12T09:10:34Z</time>
      </trkpt>
      <trkpt lat="49.34295" lon="1.05738">
        <ele>105</ele>
        <time>2017-03-12T09:10:39Z</time>
      </trkpt>
      <trkpt lat="49.34295" lon="1.05763">
        <ele>104</ele>
        <time>2017-03-12T09:10:42Z</time>
      </trkpt>
      <trkpt lat="49.343" lon="1.05785">
        <ele>102</ele>
        <time>2017-03-12T09:10:45Z</time>
      </trkpt>
      <trkpt lat="49.343" lon="1.0581">
        <ele>101</ele>
        <time>2017-03-12T09:10:50Z</time>
      </trkpt>
      <trkpt lat="49.343" lon="1.05833">
        <ele>99</ele>
        <time>2017-03-12T09:10:54Z</time>
      </trkpt>
      <trkpt lat="49.34298" lon="1.05858">
        <ele>98</ele>
        <time>2017-03-12T09:10:59Z</time>
      </trkpt>
      <trkpt lat="49.34293" lon="1.05878">
        <ele>96</ele>
        <time>2017-03-12T09:11:03Z</time>
      </trkpt>
      <trkpt lat="49.3429" lon="1.05903">
        <ele>95</ele>
        <time>2017-03-12T09:11:07Z</time>
      </trkpt>
      <trkpt lat="49.34285" lon="1.0593">
        <ele>93</ele>
        <time>2017-03-12T09:11:11Z</time>
      </trkpt>
      <trkpt lat="49.34285" lon="1.05953">
        <ele>92</ele>
        <time>2017-03-12T09:11:15Z</time>
      </trkpt>
      <trkpt lat="49.34283" lon="1.0598">
        <ele>88</ele>
        <time>2017-03-12T09:11:20Z</time>
      </trkpt>
      <trkpt lat="49.34278" lon="1.06003">
        <ele>86</ele>
        <time>2017-03-12T09:11:24Z</time>
      </trkpt>
      <trkpt lat="49.34275" lon="1.06025">
        <ele>85</ele>
        <time>2017-03-12T09:11:29Z</time>
      </trkpt>
      <trkpt lat="49.34273" lon="1.0605">
        <ele>85</ele>
        <time>2017-03-12T09:11:35Z</time>
      </trkpt>
      <trkpt lat="49.3427" lon="1.06075">
        <ele>85</ele>
        <time>2017-03-12T09:11:40Z</time>
      </trkpt>
      <trkpt lat="49.34268" lon="1.06098">
        <ele>85</ele>
        <time>2017-03-12T09:11:46Z</time>
      </trkpt>
      <trkpt lat="49.34263" lon="1.0612">
        <ele>85</ele>
        <time>2017-03-12T09:11:50Z</time>
      </trkpt>
      <trkpt lat="49.34258" lon="1.06145">
        <ele>86</ele>
        <time>2017-03-12T09:11:55Z</time>
      </trkpt>
      <trkpt lat="49.3425" lon="1.06173">
        <ele>86</ele>
        <time>2017-03-12T09:12:00Z</time>
      </trkpt>
      <trkpt lat="49.34245" lon="1.06195">
        <ele>87</ele>
        <time>2017-03-12T09:12:03Z</time>
      </trkpt>
      <trkpt lat="49.3424" lon="1.06218">
        <ele>85</ele>
        <time>2017-03-12T09:12:07Z</time>
      </trkpt>
      <trkpt lat="49.34233" lon="1.06238">
        <ele>85</ele>
        <time>2017-03-12T09:12:12Z</time>
      </trkpt>
      <trkpt lat="49.34225" lon="1.06258">
        <ele>84</ele>
        <time>2017-03-12T09:12:16Z</time>
      </trkpt>
      <trkpt lat="49.34215" lon="1.06278">
        <ele>84</ele>
        <time>2017-03-12T09:12:19Z</time>
      </trkpt>
      <trkpt lat="49.34205" lon="1.06298">
        <ele>85</ele>
        <time>2017-03-12T09:12:23Z</time>
      </trkpt>
      <trkpt lat="49.342" lon="1.06318">
        <ele>85</ele>
        <time>2017-03-12T09:12:27Z</time>
      </trkpt>
      <trkpt lat="49.34195" lon="1.06343">
        <ele>82</ele>
        <time>2017-03-12T09:12:33Z</time>
      </trkpt>
      <trkpt lat="49.34188" lon="1.06363">
        <ele>82</ele>
        <time>2017-03-12T09:12:37Z</time>
      </trkpt>
      <trkpt lat="49.34178" lon="1.0638">
        <ele>81</ele>
        <time>2017-03-12T09:12:40Z</time>
      </trkpt>
      <trkpt lat="49.3417" lon="1.06398">
        <ele>81</ele>
        <time>2017-03-12T09:12:43Z</time>
      </trkpt>
      <trkpt lat="49.34158" lon="1.06428">
        <ele>81</ele>
        <time>2017-03-12T09:12:49Z</time>
      </trkpt>
      <trkpt lat="49.34148" lon="1.06445">
        <ele>81</ele>
        <time>2017-03-12T09:12:53Z</time>
      </trkpt>
      <trkpt lat="49.3414" lon="1.06465">
        <ele>80</ele>
        <time>2017-03-12T09:12:57Z</time>
      </trkpt>
      <trkpt lat="49.34133" lon="1.06488">
        <ele>79</ele>
        <time>2017-03-12T09:13:01Z</time>
      </trkpt>
      <trkpt lat="49.34125" lon="1.06508">
        <ele>78</ele>
        <time>2017-03-12T09:13:05Z</time>
      </trkpt>
      <trkpt lat="49.34118" lon="1.06525">
        <ele>78</ele>
        <time>2017-03-12T09:13:09Z</time>
      </trkpt>
      <trkpt lat="49.3411" lon="1.06543">
        <ele>80</ele>
        <time>2017-03-12T09:13:13Z</time>
      </trkpt>
      <trkpt lat="49.34103" lon="1.06563">
        <ele>81</ele>
        <time>2017-03-12T09:13:18Z</time>
      </trkpt>
      <trkpt lat="49.34093" lon="1.06578">
        <ele>81</ele>
        <time>2017-03-12T09:13:22Z</time>
      </trkpt>
      <trkpt lat="49.3408" lon="1.06593">
        <ele>80</ele>
        <time>2017-03-12T09:13:26Z</time>
      </trkpt>
      <trkpt lat="49.3407" lon="1.0661">
        <ele>81</ele>
        <time>2017-03-12T09:13:32Z</time>
      </trkpt>
      <trkpt lat="49.3406" lon="1.06628">
        <ele>81</ele>
        <time>2017-03-12T09:13:36Z</time>
      </trkpt>
      <trkpt lat="49.34048" lon="1.06648">
        <ele>81</ele>
        <time>2017-03-12T09:13:41Z</time>
      </trkpt>
      <trkpt lat="49.34038" lon="1.06665">
        <ele>81</ele>
        <time>2017-03-12T09:13:48Z</time>
      </trkpt>
      <trkpt lat="49.3403" lon="1.06683">
        <ele>81</ele>
        <time>2017-03-12T09:13:53Z</time>
      </trkpt>
      <trkpt lat="49.3402" lon="1.06698">
        <ele>84</ele>
        <time>2017-03-12T09:14:00Z</time>
      </trkpt>
      <trkpt lat="49.3401" lon="1.06713">
        <ele>84</ele>
        <time>2017-03-12T09:14:07Z</time>
      </trkpt>
      <trkpt lat="49.34" lon="1.06728">
        <ele>83</ele>
        <time>2017-03-12T09:14:14Z</time>
      </trkpt>
      <trkpt lat="49.33995" lon="1.06748">
        <ele>83</ele>
        <time>2017-03-12T09:14:20Z</time>
      </trkpt>
      <trkpt lat="49.33983" lon="1.06763">
        <ele>83</ele>
        <time>2017-03-12T09:14:25Z</time>
      </trkpt>
      <trkpt lat="49.3397" lon="1.0678">
        <ele>83</ele>
        <time>2017-03-12T09:14:30Z</time>
      </trkpt>
      <trkpt lat="49.33958" lon="1.06795">
        <ele>82</ele>
        <time>2017-03-12T09:14:36Z</time>
      </trkpt>
      <trkpt lat="49.33948" lon="1.06813">
        <ele>83</ele>
        <time>2017-03-12T09:14:43Z</time>
      </trkpt>
      <trkpt lat="49.33935" lon="1.06828">
        <ele>83</ele>
        <time>2017-03-12T09:14:47Z</time>
      </trkpt>
      <trkpt lat="49.33925" lon="1.06845">
        <ele>82</ele>
        <time>2017-03-12T09:14:51Z</time>
      </trkpt>
      <trkpt lat="49.33913" lon="1.06868">
        <ele>81</ele>
        <time>2017-03-12T09:14:56Z</time>
      </trkpt>
      <trkpt lat="49.33903" lon="1.06888">
        <ele>81</ele>
        <time>2017-03-12T09:15:00Z</time>
      </trkpt>
      <trkpt lat="49.3389" lon="1.06908">
        <ele>81</ele>
        <time>2017-03-12T09:15:03Z</time>
      </trkpt>
      <trkpt lat="49.3388" lon="1.06923">
        <ele>80</ele>
        <time>2017-03-12T09:15:06Z</time>
      </trkpt>
      <trkpt lat="49.33865" lon="1.06925">
        <ele>77</ele>
        <time>2017-03-12T09:15:12Z</time>
      </trkpt>
      <trkpt lat="49.33848" lon="1.0692">
        <ele>75</ele>
        <time>2017-03-12T09:15:16Z</time>
      </trkpt>
      <trkpt lat="49.33845" lon="1.06895">
        <ele>74</ele>
        <time>2017-03-12T09:15:22Z</time>
      </trkpt>
      <trkpt lat="49.33853" lon="1.06873">
        <ele>73</ele>
        <time>2017-03-12T09:15:25Z</time>
      </trkpt>
      <trkpt lat="49.33858" lon="1.0685">
        <ele>72</ele>
        <time>2017-03-12T09:15:28Z</time>
      </trkpt>
      <trkpt lat="49.33865" lon="1.06825">
        <ele>72</ele>
        <time>2017-03-12T09:15:31Z</time>
      </trkpt>
      <trkpt lat="49.33875" lon="1.06805">
        <ele>71</ele>
        <time>2017-03-12T09:15:34Z</time>
      </trkpt>
      <trkpt lat="49.3388" lon="1.06785">
        <ele>71</ele>
        <time>2017-03-12T09:15:37Z</time>
      </trkpt>
      <trkpt lat="49.33893" lon="1.0677">
        <ele>70</ele>
        <time>2017-03-12T09:15:40Z</time>
      </trkpt>
      <trkpt lat="49.33903" lon="1.0675">
        <ele>70</ele>
        <time>2017-03-12T09:15:43Z</time>
      </trkpt>
      <trkpt lat="49.33913" lon="1.06733">
        <ele>70</ele>
        <time>2017-03-12T09:15:46Z</time>
      </trkpt>
      <trkpt lat="49.33925" lon="1.0671">
        <ele>71</ele>
        <time>2017-03-12T09:15:50Z</time>
      </trkpt>
      <trkpt lat="49.33938" lon="1.06698">
        <ele>71</ele>
        <time>2017-03-12T09:15:53Z</time>
      </trkpt>
      <trkpt lat="49.33948" lon="1.0668">
        <ele>71</ele>
        <time>2017-03-12T09:15:56Z</time>
      </trkpt>
      <trkpt lat="49.33958" lon="1.06665">
        <ele>72</ele>
        <time>2017-03-12T09:15:59Z</time>
      </trkpt>
      <trkpt lat="49.33968" lon="1.06648">
        <ele>72</ele>
        <time>2017-03-12T09:16:02Z</time>
      </trkpt>
      <trkpt lat="49.3398" lon="1.06633">
        <ele>73</ele>
        <time>2017-03-12T09:16:05Z</time>
      </trkpt>
      <trkpt lat="49.33993" lon="1.06613">
        <ele>74</ele>
        <time>2017-03-12T09:16:08Z</time>
      </trkpt>
      <trkpt lat="49.34003" lon="1.06593">
        <ele>75</ele>
        <time>2017-03-12T09:16:11Z</time>
      </trkpt>
      <trkpt lat="49.34018" lon="1.06565">
        <ele>76</ele>
        <time>2017-03-12T09:16:15Z</time>
      </trkpt>
      <trkpt lat="49.34033" lon="1.06535">
        <ele>76</ele>
        <time>2017-03-12T09:16:18Z</time>
      </trkpt>
      <trkpt lat="49.34045" lon="1.06508">
        <ele>75</ele>
        <time>2017-03-12T09:16:21Z</time>
      </trkpt>
      <trkpt lat="49.3403" lon="1.06508">
        <ele>69</ele>
        <time>2017-03-12T09:16:30Z</time>
      </trkpt>
      <trkpt lat="49.3402" lon="1.06523">
        <ele>66</ele>
        <time>2017-03-12T09:16:34Z</time>
      </trkpt>
      <trkpt lat="49.34005" lon="1.06545">
        <ele>63</ele>
        <time>2017-03-12T09:16:39Z</time>
      </trkpt>
      <trkpt lat="49.33993" lon="1.06558">
        <ele>62</ele>
        <time>2017-03-12T09:16:42Z</time>
      </trkpt>
      <trkpt lat="49.3398" lon="1.0657">
        <ele>61</ele>
        <time>2017-03-12T09:16:45Z</time>
      </trkpt>
      <trkpt lat="49.33968" lon="1.06588">
        <ele>59</ele>
        <time>2017-03-12T09:16:49Z</time>
      </trkpt>
      <trkpt lat="49.3395" lon="1.06608">
        <ele>58</ele>
        <time>2017-03-12T09:16:54Z</time>
      </trkpt>
      <trkpt lat="49.33925" lon="1.06638">
        <ele>56</ele>
        <time>2017-03-12T09:17:00Z</time>
      </trkpt>
      <trkpt lat="49.33915" lon="1.06653">
        <ele>54</ele>
        <time>2017-03-12T09:17:03Z</time>
      </trkpt>
      <trkpt lat="49.33903" lon="1.06668">
        <ele>53</ele>
        <time>2017-03-12T09:17:06Z</time>
      </trkpt>
      <trkpt lat="49.33888" lon="1.06688">
        <ele>53</ele>
        <time>2017-03-12T09:17:10Z</time>
      </trkpt>
      <trkpt lat="49.33875" lon="1.06703">
        <ele>52</ele>
        <time>2017-03-12T09:17:13Z</time>
      </trkpt>
      <trkpt lat="49.33865" lon="1.06718">
        <ele>51</ele>
        <time>2017-03-12T09:17:16Z</time>
      </trkpt>
      <trkpt lat="49.3385" lon="1.06735">
        <ele>51</ele>
        <time>2017-03-12T09:17:20Z</time>
      </trkpt>
      <trkpt lat="49.33838" lon="1.06753">
        <ele>51</ele>
        <time>2017-03-12T09:17:24Z</time>
      </trkpt>
      <trkpt lat="49.33828" lon="1.06768">
        <ele>51</ele>
        <time>2017-03-12T09:17:27Z</time>
      </trkpt>
      <trkpt lat="49.33815" lon="1.06785">
        <ele>51</ele>
        <time>2017-03-12T09:17:30Z</time>
      </trkpt>
      <trkpt lat="49.33803" lon="1.06803">
        <ele>51</ele>
        <time>2017-03-12T09:17:34Z</time>
      </trkpt>
      <trkpt lat="49.3379" lon="1.0682">
        <ele>51</ele>
        <time>2017-03-12T09:17:38Z</time>
      </trkpt>
      <trkpt lat="49.3378" lon="1.0684">
        <ele>50</ele>
        <time>2017-03-12T09:17:42Z</time>
      </trkpt>
      <trkpt lat="49.3377" lon="1.06868">
        <ele>48</ele>
        <time>2017-03-12T09:17:47Z</time>
      </trkpt>
      <trkpt lat="49.33768" lon="1.06893">
        <ele>48</ele>
        <time>2017-03-12T09:17:52Z</time>
      </trkpt>
      <trkpt lat="49.33768" lon="1.06915">
        <ele>42</ele>
        <time>2017-03-12T09:17:55Z</time>
      </trkpt>
      <trkpt lat="49.33765" lon="1.06938">
        <ele>40</ele>
        <time>2017-03-12T09:17:59Z</time>
      </trkpt>
      <trkpt lat="49.33753" lon="1.06955">
        <ele>40</ele>
        <time>2017-03-12T09:18:02Z</time>
      </trkpt>
      <trkpt lat="49.3373" lon="1.0699">
        <ele>40</ele>
        <time>2017-03-12T09:18:08Z</time>
      </trkpt>
      <trkpt lat="49.3372" lon="1.07005">
        <ele>40</ele>
        <time>2017-03-12T09:18:11Z</time>
      </trkpt>
      <trkpt lat="49.33715" lon="1.07025">
        <ele>40</ele>
        <time>2017-03-12T09:18:14Z</time>
      </trkpt>
      <trkpt lat="49.3371" lon="1.0705">
        <ele>42</ele>
        <time>2017-03-12T09:18:17Z</time>
      </trkpt>
      <trkpt lat="49.33708" lon="1.07078">
        <ele>41</ele>
        <time>2017-03-12T09:18:20Z</time>
      </trkpt>
      <trkpt lat="49.3371" lon="1.07105">
        <ele>37</ele>
        <time>2017-03-12T09:18:23Z</time>
      </trkpt>
      <trkpt lat="49.33715" lon="1.07135">
        <ele>34</ele>
        <time>2017-03-12T09:18:26Z</time>
      </trkpt>
      <trkpt lat="49.3372" lon="1.0717">
        <ele>31</ele>
        <time>2017-03-12T09:18:29Z</time>
      </trkpt>
      <trkpt lat="49.33725" lon="1.07193">
        <ele>29</ele>
        <time>2017-03-12T09:18:31Z</time>
      </trkpt>
      <trkpt lat="49.33723" lon="1.07223">
        <ele>30</ele>
        <time>2017-03-12T09:18:34Z</time>
      </trkpt>
      <trkpt lat="49.33713" lon="1.0725">
        <ele>32</ele>
        <time>2017-03-12T09:18:37Z</time>
      </trkpt>
      <trkpt lat="49.33698" lon="1.07278">
        <ele>34</ele>
        <time>2017-03-12T09:18:40Z</time>
      </trkpt>
      <trkpt lat="49.3367" lon="1.0733">
        <ele>36</ele>
        <time>2017-03-12T09:18:46Z</time>
      </trkpt>
      <trkpt lat="49.33655" lon="1.07358">
        <ele>37</ele>
        <time>2017-03-12T09:18:49Z</time>
      </trkpt>
      <trkpt lat="49.3364" lon="1.07383">
        <ele>37</ele>
        <time>2017-03-12T09:18:52Z</time>
      </trkpt>
      <trkpt lat="49.3362" lon="1.0741">
        <ele>37</ele>
        <time>2017-03-12T09:18:55Z</time>
      </trkpt>
      <trkpt lat="49.3359" lon="1.07455">
        <ele>35</ele>
        <time>2017-03-12T09:18:59Z</time>
      </trkpt>
      <trkpt lat="49.33563" lon="1.075">
        <ele>32</ele>
        <time>2017-03-12T09:19:03Z</time>
      </trkpt>
      <trkpt lat="49.3355" lon="1.07533">
        <ele>30</ele>
        <time>2017-03-12T09:19:06Z</time>
      </trkpt>
      <trkpt lat="49.33555" lon="1.07555">
        <ele>27</ele>
        <time>2017-03-12T09:19:09Z</time>
      </trkpt>
      <trkpt lat="49.33563" lon="1.0758">
        <ele>25</ele>
        <time>2017-03-12T09:19:12Z</time>
      </trkpt>
      <trkpt lat="49.33568" lon="1.07608">
        <ele>18</ele>
        <time>2017-03-12T09:19:15Z</time>
      </trkpt>
      <trkpt lat="49.33575" lon="1.07633">
        <ele>15</ele>
        <time>2017-03-12T09:19:18Z</time>
      </trkpt>
      <trkpt lat="49.3358" lon="1.07658">
        <ele>14</ele>
        <time>2017-03-12T09:19:21Z</time>
      </trkpt>
      <trkpt lat="49.33585" lon="1.07683">
        <ele>14</ele>
        <time>2017-03-12T09:19:24Z</time>
      </trkpt>
      <trkpt lat="49.3359" lon="1.07703">
        <ele>15</ele>
        <time>2017-03-12T09:19:27Z</time>
      </trkpt>
      <trkpt lat="49.33598" lon="1.07725">
        <ele>15</ele>
        <time>2017-03-12T09:19:30Z</time>
      </trkpt>
      <trkpt lat="49.33613" lon="1.0777">
        <ele>15</ele>
        <time>2017-03-12T09:19:36Z</time>
      </trkpt>
      <trkpt lat="49.3362" lon="1.07793">
        <ele>15</ele>
        <time>2017-03-12T09:19:39Z</time>
      </trkpt>
      <trkpt lat="49.33633" lon="1.07828">
        <ele>17</ele>
        <time>2017-03-12T09:19:45Z</time>
      </trkpt>
      <trkpt lat="49.33643" lon="1.07863">
        <ele>17</ele>
        <time>2017-03-12T09:19:50Z</time>
      </trkpt>
      <trkpt lat="49.3365" lon="1.0788">
        <ele>18</ele>
        <time>2017-03-12T09:19:53Z</time>
      </trkpt>
      <trkpt lat="49.33655" lon="1.079">
        <ele>18</ele>
        <time>2017-03-12T09:19:56Z</time>
      </trkpt>
      <trkpt lat="49.33663" lon="1.07923">
        <ele>18</ele>
        <time>2017-03-12T09:19:59Z</time>
      </trkpt>
      <trkpt lat="49.3367" lon="1.07943">
        <ele>18</ele>
        <time>2017-03-12T09:20:02Z</time>
      </trkpt>
      <trkpt lat="49.33678" lon="1.07965">
        <ele>18</ele>
        <time>2017-03-12T09:20:05Z</time>
      </trkpt>
      <trkpt lat="49.33683" lon="1.07985">
        <ele>19</ele>
        <time>2017-03-12T09:20:08Z</time>
      </trkpt>
      <trkpt lat="49.3369" lon="1.08005">
        <ele>19</ele>
        <time>2017-03-12T09:20:11Z</time>
      </trkpt>
      <trkpt lat="49.33705" lon="1.0805">
        <ele>20</ele>
        <time>2017-03-12T09:20:17Z</time>
      </trkpt>
      <trkpt lat="49.33718" lon="1.08088">
        <ele>21</ele>
        <time>2017-03-12T09:20:22Z</time>
      </trkpt>
      <trkpt lat="49.33723" lon="1.08108">
        <ele>21</ele>
        <time>2017-03-12T09:20:25Z</time>
      </trkpt>
      <trkpt lat="49.3373" lon="1.0813">
        <ele>22</ele>
        <time>2017-03-12T09:20:29Z</time>
      </trkpt>
      <trkpt lat="49.3374" lon="1.08158">
        <ele>23</ele>
        <time>2017-03-12T09:20:33Z</time>
      </trkpt>
      <trkpt lat="49.33748" lon="1.08178">
        <ele>23</ele>
        <time>2017-03-12T09:20:36Z</time>
      </trkpt>
      <trkpt lat="49.3377" lon="1.08235">
        <ele>23</ele>
        <time>2017-03-12T09:20:44Z</time>
      </trkpt>
      <trkpt lat="49.3378" lon="1.08258">
        <ele>23</ele>
        <time>2017-03-12T09:20:47Z</time>
      </trkpt>
      <trkpt lat="49.33793" lon="1.08273">
        <ele>23</ele>
        <time>2017-03-12T09:20:50Z</time>
      </trkpt>
      <trkpt lat="49.33808" lon="1.08288">
        <ele>24</ele>
        <time>2017-03-12T09:20:53Z</time>
      </trkpt>
      <trkpt lat="49.3382" lon="1.083">
        <ele>24</ele>
        <time>2017-03-12T09:20:56Z</time>
      </trkpt>
      <trkpt lat="49.33838" lon="1.08288">
        <ele>23</ele>
        <time>2017-03-12T09:21:01Z</time>
      </trkpt>
      <trkpt lat="49.3385" lon="1.08273">
        <ele>23</ele>
        <time>2017-03-12T09:21:04Z</time>
      </trkpt>
      <trkpt lat="49.3387" lon="1.08253">
        <ele>22</ele>
        <time>2017-03-12T09:21:08Z</time>
      </trkpt>
      <trkpt lat="49.33885" lon="1.08235">
        <ele>22</ele>
        <time>2017-03-12T09:21:11Z</time>
      </trkpt>
      <trkpt lat="49.34005" lon="1.0811">
        <ele>20</ele>
        <time>2017-03-12T09:21:36Z</time>
      </trkpt>
      <trkpt lat="49.34018" lon="1.08098">
        <ele>21</ele>
        <time>2017-03-12T09:21:39Z</time>
      </trkpt>
      <trkpt lat="49.34023" lon="1.08078">
        <ele>22</ele>
        <time>2017-03-12T09:21:42Z</time>
      </trkpt>
      <trkpt lat="49.34035" lon="1.08035">
        <ele>23</ele>
        <time>2017-03-12T09:21:48Z</time>
      </trkpt>
      <trkpt lat="49.3404" lon="1.08013">
        <ele>23</ele>
        <time>2017-03-12T09:21:51Z</time>
      </trkpt>
      <trkpt lat="49.3405" lon="1.0798">
        <ele>24</ele>
        <time>2017-03-12T09:21:56Z</time>
      </trkpt>
      <trkpt lat="49.34068" lon="1.07925">
        <ele>24</ele>
        <time>2017-03-12T09:22:05Z</time>
      </trkpt>
      <trkpt lat="49.34075" lon="1.079">
        <ele>25</ele>
        <time>2017-03-12T09:22:09Z</time>
      </trkpt>
      <trkpt lat="49.34083" lon="1.07878">
        <ele>26</ele>
        <time>2017-03-12T09:22:13Z</time>
      </trkpt>
      <trkpt lat="49.3409" lon="1.07858">
        <ele>26</ele>
        <time>2017-03-12T09:22:17Z</time>
      </trkpt>
      <trkpt lat="49.34098" lon="1.07835">
        <ele>27</ele>
        <time>2017-03-12T09:22:21Z</time>
      </trkpt>
      <trkpt lat="49.34105" lon="1.07805">
        <ele>29</ele>
        <time>2017-03-12T09:22:27Z</time>
      </trkpt>
      <trkpt lat="49.34113" lon="1.07785">
        <ele>29</ele>
        <time>2017-03-12T09:22:33Z</time>
      </trkpt>
      <trkpt lat="49.34118" lon="1.07763">
        <ele>31</ele>
        <time>2017-03-12T09:22:38Z</time>
      </trkpt>
      <trkpt lat="49.34125" lon="1.07735">
        <ele>31</ele>
        <time>2017-03-12T09:22:45Z</time>
      </trkpt>
      <trkpt lat="49.34133" lon="1.07718">
        <ele>32</ele>
        <time>2017-03-12T09:22:50Z</time>
      </trkpt>
      <trkpt lat="49.3414" lon="1.07698">
        <ele>34</ele>
        <time>2017-03-12T09:22:57Z</time>
      </trkpt>
      <trkpt lat="49.34145" lon="1.07673">
        <ele>35</ele>
        <time>2017-03-12T09:23:03Z</time>
      </trkpt>
      <trkpt lat="49.3415" lon="1.0765">
        <ele>37</ele>
        <time>2017-03-12T09:23:09Z</time>
      </trkpt>
      <trkpt lat="49.34158" lon="1.0762">
        <ele>39</ele>
        <time>2017-03-12T09:23:19Z</time>
      </trkpt>
      <trkpt lat="49.34165" lon="1.076">
        <ele>40</ele>
        <time>2017-03-12T09:23:26Z</time>
      </trkpt>
      <trkpt lat="49.34173" lon="1.0758">
        <ele>41</ele>
        <time>2017-03-12T09:23:34Z</time>
      </trkpt>
      <trkpt lat="49.3418" lon="1.07558">
        <ele>42</ele>
        <time>2017-03-12T09:23:41Z</time>
      </trkpt>
      <trkpt lat="49.3419" lon="1.0754">
        <ele>46</ele>
        <time>2017-03-12T09:23:49Z</time>
      </trkpt>
      <trkpt lat="49.34205" lon="1.0754">
        <ele>49</ele>
        <time>2017-03-12T09:24:02Z</time>
      </trkpt>
      <trkpt lat="49.34218" lon="1.0755">
        <ele>49</ele>
        <time>2017-03-12T09:24:08Z</time>
      </trkpt>
      <trkpt lat="49.34233" lon="1.07563">
        <ele>50</ele>
        <time>2017-03-12T09:24:12Z</time>
      </trkpt>
      <trkpt lat="49.3425" lon="1.0757">
        <ele>49</ele>
        <time>2017-03-12T09:24:16Z</time>
      </trkpt>
      <trkpt lat="49.34265" lon="1.0758">
        <ele>48</ele>
        <time>2017-03-12T09:24:20Z</time>
      </trkpt>
      <trkpt lat="49.34285" lon="1.0759">
        <ele>48</ele>
        <time>2017-03-12T09:24:25Z</time>
      </trkpt>
      <trkpt lat="49.34303" lon="1.076">
        <ele>49</ele>
        <time>2017-03-12T09:24:29Z</time>
      </trkpt>
      <trkpt lat="49.34325" lon="1.07615">
        <ele>50</ele>
        <time>2017-03-12T09:24:35Z</time>
      </trkpt>
      <trkpt lat="49.3436" lon="1.07635">
        <ele>51</ele>
        <time>2017-03-12T09:24:45Z</time>
      </trkpt>
      <trkpt lat="49.34388" lon="1.0765">
        <ele>51</ele>
        <time>2017-03-12T09:24:51Z</time>
      </trkpt>
      <trkpt lat="49.34403" lon="1.07658">
        <ele>51</ele>
        <time>2017-03-12T09:24:54Z</time>
      </trkpt>
      <trkpt lat="49.34428" lon="1.0767">
        <ele>51</ele>
        <time>2017-03-12T09:24:59Z</time>
      </trkpt>
      <trkpt lat="49.34445" lon="1.0768">
        <ele>51</ele>
        <time>2017-03-12T09:25:03Z</time>
      </trkpt>
      <trkpt lat="49.3446" lon="1.0769">
        <ele>51</ele>
        <time>2017-03-12T09:25:06Z</time>
      </trkpt>
      <trkpt lat="49.34478" lon="1.07703">
        <ele>51</ele>
        <time>2017-03-12T09:25:09Z</time>
      </trkpt>
      <trkpt lat="49.34495" lon="1.0771">
        <ele>52</ele>
        <time>2017-03-12T09:25:12Z</time>
      </trkpt>
      <trkpt lat="49.34523" lon="1.07723">
        <ele>53</ele>
        <time>2017-03-12T09:25:17Z</time>
      </trkpt>
      <trkpt lat="49.34535" lon="1.07745">
        <ele>54</ele>
        <time>2017-03-12T09:25:20Z</time>
      </trkpt>
      <trkpt lat="49.34548" lon="1.0777">
        <ele>56</ele>
        <time>2017-03-12T09:25:23Z</time>
      </trkpt>
      <trkpt lat="49.34555" lon="1.07788">
        <ele>55</ele>
        <time>2017-03-12T09:25:25Z</time>
      </trkpt>
      <trkpt lat="49.34573" lon="1.07835">
        <ele>50</ele>
        <time>2017-03-12T09:25:30Z</time>
      </trkpt>
      <trkpt lat="49.34578" lon="1.07868">
        <ele>49</ele>
        <time>2017-03-12T09:25:33Z</time>
      </trkpt>
      <trkpt lat="49.3459" lon="1.0788">
        <ele>48</ele>
        <time>2017-03-12T09:25:38Z</time>
      </trkpt>
      <trkpt lat="49.3459" lon="1.07858">
        <ele>51</ele>
        <time>2017-03-12T09:26:05Z</time>
      </trkpt>
      <trkpt lat="49.3459" lon="1.07835">
        <ele>51</ele>
        <time>2017-03-12T09:26:09Z</time>
      </trkpt>
      <trkpt lat="49.34595" lon="1.07808">
        <ele>52</ele>
        <time>2017-03-12T09:26:13Z</time>
      </trkpt>
      <trkpt lat="49.346" lon="1.07788">
        <ele>53</ele>
        <time>2017-03-12T09:26:16Z</time>
      </trkpt>
      <trkpt lat="49.3461" lon="1.07768">
        <ele>53</ele>
        <time>2017-03-12T09:26:20Z</time>
      </trkpt>
      <trkpt lat="49.3462" lon="1.07753">
        <ele>54</ele>
        <time>2017-03-12T09:26:23Z</time>
      </trkpt>
      <trkpt lat="49.34625" lon="1.07733">
        <ele>54</ele>
        <time>2017-03-12T09:26:26Z</time>
      </trkpt>
      <trkpt lat="49.3462" lon="1.07708">
        <ele>54</ele>
        <time>2017-03-12T09:26:29Z</time>
      </trkpt>
      <trkpt lat="49.34613" lon="1.07685">
        <ele>54</ele>
        <time>2017-03-12T09:26:32Z</time>
      </trkpt>
      <trkpt lat="49.3461" lon="1.0766">
        <ele>55</ele>
        <time>2017-03-12T09:26:35Z</time>
      </trkpt>
      <trkpt lat="49.34605" lon="1.07635">
        <ele>56</ele>
        <time>2017-03-12T09:26:38Z</time>
      </trkpt>
      <trkpt lat="49.346" lon="1.07613">
        <ele>56</ele>
        <time>2017-03-12T09:26:41Z</time>
      </trkpt>
      <trkpt lat="49.3459" lon="1.0759">
        <ele>55</ele>
        <time>2017-03-12T09:26:44Z</time>
      </trkpt>
      <trkpt lat="49.3458" lon="1.07573">
        <ele>56</ele>
        <time>2017-03-12T09:26:47Z</time>
      </trkpt>
      <trkpt lat="49.34568" lon="1.07558">
        <ele>57</ele>
        <time>2017-03-12T09:26:50Z</time>
      </trkpt>
      <trkpt lat="49.34553" lon="1.07545">
        <ele>57</ele>
        <time>2017-03-12T09:26:53Z</time>
      </trkpt>
      <trkpt lat="49.34538" lon="1.07535">
        <ele>58</ele>
        <time>2017-03-12T09:26:56Z</time>
      </trkpt>
      <trkpt lat="49.3452" lon="1.0753">
        <ele>58</ele>
        <time>2017-03-12T09:26:59Z</time>
      </trkpt>
      <trkpt lat="49.345" lon="1.0752">
        <ele>58</ele>
        <time>2017-03-12T09:27:03Z</time>
      </trkpt>
      <trkpt lat="49.34483" lon="1.07515">
        <ele>58</ele>
        <time>2017-03-12T09:27:06Z</time>
      </trkpt>
      <trkpt lat="49.34465" lon="1.07508">
        <ele>58</ele>
        <time>2017-03-12T09:27:09Z</time>
      </trkpt>
      <trkpt lat="49.34445" lon="1.07495">
        <ele>58</ele>
        <time>2017-03-12T09:27:13Z</time>
      </trkpt>
      <trkpt lat="49.34423" lon="1.0748">
        <ele>62</ele>
        <time>2017-03-12T09:27:17Z</time>
      </trkpt>
      <trkpt lat="49.34408" lon="1.07468">
        <ele>61</ele>
        <time>2017-03-12T09:27:20Z</time>
      </trkpt>
      <trkpt lat="49.34385" lon="1.07445">
        <ele>58</ele>
        <time>2017-03-12T09:27:25Z</time>
      </trkpt>
      <trkpt lat="49.34373" lon="1.07428">
        <ele>62</ele>
        <time>2017-03-12T09:27:28Z</time>
      </trkpt>
      <trkpt lat="49.3436" lon="1.0741">
        <ele>63</ele>
        <time>2017-03-12T09:27:31Z</time>
      </trkpt>
      <trkpt lat="49.34348" lon="1.07395">
        <ele>65</ele>
        <time>2017-03-12T09:27:34Z</time>
      </trkpt>
      <trkpt lat="49.3434" lon="1.07378">
        <ele>65</ele>
        <time>2017-03-12T09:27:37Z</time>
      </trkpt>
      <trkpt lat="49.34328" lon="1.0736">
        <ele>66</ele>
        <time>2017-03-12T09:27:40Z</time>
      </trkpt>
      <trkpt lat="49.3432" lon="1.07343">
        <ele>67</ele>
        <time>2017-03-12T09:27:43Z</time>
      </trkpt>
      <trkpt lat="49.34303" lon="1.07308">
        <ele>70</ele>
        <time>2017-03-12T09:27:48Z</time>
      </trkpt>
      <trkpt lat="49.34298" lon="1.07285">
        <ele>72</ele>
        <time>2017-03-12T09:27:51Z</time>
      </trkpt>
      <trkpt lat="49.34288" lon="1.07243">
        <ele>73</ele>
        <time>2017-03-12T09:27:56Z</time>
      </trkpt>
      <trkpt lat="49.34285" lon="1.07218">
        <ele>74</ele>
        <time>2017-03-12T09:27:59Z</time>
      </trkpt>
      <trkpt lat="49.34285" lon="1.0719">
        <ele>75</ele>
        <time>2017-03-12T09:28:02Z</time>
      </trkpt>
      <trkpt lat="49.34288" lon="1.07163">
        <ele>77</ele>
        <time>2017-03-12T09:28:05Z</time>
      </trkpt>
      <trkpt lat="49.34293" lon="1.07138">
        <ele>78</ele>
        <time>2017-03-12T09:28:08Z</time>
      </trkpt>
      <trkpt lat="49.34298" lon="1.07103">
        <ele>80</ele>
        <time>2017-03-12T09:28:12Z</time>
      </trkpt>
      <trkpt lat="49.34303" lon="1.07078">
        <ele>80</ele>
        <time>2017-03-12T09:28:15Z</time>
      </trkpt>
      <trkpt lat="49.34308" lon="1.07055">
        <ele>80</ele>
        <time>2017-03-12T09:28:19Z</time>
      </trkpt>
      <trkpt lat="49.34315" lon="1.07095">
        <ele>82</ele>
        <time>2017-03-12T09:28:32Z</time>
      </trkpt>
      <trkpt lat="49.3432" lon="1.07123">
        <ele>81</ele>
        <time>2017-03-12T09:28:36Z</time>
      </trkpt>
      <trkpt lat="49.34333" lon="1.07135">
        <ele>81</ele>
        <time>2017-03-12T09:28:40Z</time>
      </trkpt>
      <trkpt lat="49.34348" lon="1.07145">
        <ele>80</ele>
        <time>2017-03-12T09:28:43Z</time>
      </trkpt>
      <trkpt lat="49.34368" lon="1.07158">
        <ele>81</ele>
        <time>2017-03-12T09:28:47Z</time>
      </trkpt>
      <trkpt lat="49.34383" lon="1.07168">
        <ele>81</ele>
        <time>2017-03-12T09:28:51Z</time>
      </trkpt>
      <trkpt lat="49.34385" lon="1.07143">
        <ele>83</ele>
        <time>2017-03-12T09:28:58Z</time>
      </trkpt>
      <trkpt lat="49.34378" lon="1.07123">
        <ele>83</ele>
        <time>2017-03-12T09:29:02Z</time>
      </trkpt>
      <trkpt lat="49.34383" lon="1.07103">
        <ele>83</ele>
        <time>2017-03-12T09:29:05Z</time>
      </trkpt>
      <trkpt lat="49.3439" lon="1.0708">
        <ele>83</ele>
        <time>2017-03-12T09:29:09Z</time>
      </trkpt>
      <trkpt lat="49.34393" lon="1.07058">
        <ele>83</ele>
        <time>2017-03-12T09:29:13Z</time>
      </trkpt>
      <trkpt lat="49.344" lon="1.0704">
        <ele>83</ele>
        <time>2017-03-12T09:29:16Z</time>
      </trkpt>
      <trkpt lat="49.34408" lon="1.0702">
        <ele>83</ele>
        <time>2017-03-12T09:29:20Z</time>
      </trkpt>
      <trkpt lat="49.3441" lon="1.06995">
        <ele>84</ele>
        <time>2017-03-12T09:29:24Z</time>
      </trkpt>
      <trkpt lat="49.34418" lon="1.0697">
        <ele>85</ele>
        <time>2017-03-12T09:29:28Z</time>
      </trkpt>
      <trkpt lat="49.3442" lon="1.06948">
        <ele>86</ele>
        <time>2017-03-12T09:29:31Z</time>
      </trkpt>
      <trkpt lat="49.34423" lon="1.0692">
        <ele>85</ele>
        <time>2017-03-12T09:29:35Z</time>
      </trkpt>
      <trkpt lat="49.34428" lon="1.06898">
        <ele>83</ele>
        <time>2017-03-12T09:29:38Z</time>
      </trkpt>
      <trkpt lat="49.34433" lon="1.06878">
        <ele>83</ele>
        <time>2017-03-12T09:29:41Z</time>
      </trkpt>
      <trkpt lat="49.34438" lon="1.06858">
        <ele>82</ele>
        <time>2017-03-12T09:29:44Z</time>
      </trkpt>
      <trkpt lat="49.34443" lon="1.06838">
        <ele>82</ele>
        <time>2017-03-12T09:29:47Z</time>
      </trkpt>
      <trkpt lat="49.3445" lon="1.06805">
        <ele>84</ele>
        <time>2017-03-12T09:29:53Z</time>
      </trkpt>
      <trkpt lat="49.34443" lon="1.0678">
        <ele>83</ele>
        <time>2017-03-12T09:29:57Z</time>
      </trkpt>
      <trkpt lat="49.34433" lon="1.06763">
        <ele>82</ele>
        <time>2017-03-12T09:30:00Z</time>
      </trkpt>
      <trkpt lat="49.34428" lon="1.06738">
        <ele>82</ele>
        <time>2017-03-12T09:30:05Z</time>
      </trkpt>
      <trkpt lat="49.34423" lon="1.06715">
        <ele>82</ele>
        <time>2017-03-12T09:30:09Z</time>
      </trkpt>
      <trkpt lat="49.3442" lon="1.06693">
        <ele>83</ele>
        <time>2017-03-12T09:30:15Z</time>
      </trkpt>
      <trkpt lat="49.34435" lon="1.0669">
        <ele>86</ele>
        <time>2017-03-12T09:30:21Z</time>
      </trkpt>
      <trkpt lat="49.34458" lon="1.06698">
        <ele>83</ele>
        <time>2017-03-12T09:30:26Z</time>
      </trkpt>
      <trkpt lat="49.34478" lon="1.06705">
        <ele>83</ele>
        <time>2017-03-12T09:30:32Z</time>
      </trkpt>
      <trkpt lat="49.3449" lon="1.06695">
        <ele>85</ele>
        <time>2017-03-12T09:30:35Z</time>
      </trkpt>
      <trkpt lat="49.34508" lon="1.06705">
        <ele>82</ele>
        <time>2017-03-12T09:30:40Z</time>
      </trkpt>
      <trkpt lat="49.34513" lon="1.06725">
        <ele>78</ele>
        <time>2017-03-12T09:30:50Z</time>
      </trkpt>
      <trkpt lat="49.3452" lon="1.06743">
        <ele>76</ele>
        <time>2017-03-12T09:30:55Z</time>
      </trkpt>
      <trkpt lat="49.34533" lon="1.06753">
        <ele>74</ele>
        <time>2017-03-12T09:30:58Z</time>
      </trkpt>
      <trkpt lat="49.34555" lon="1.06778">
        <ele>72</ele>
        <time>2017-03-12T09:31:04Z</time>
      </trkpt>
      <trkpt lat="49.34573" lon="1.0679">
        <ele>71</ele>
        <time>2017-03-12T09:31:08Z</time>
      </trkpt>
      <trkpt lat="49.34585" lon="1.068">
        <ele>70</ele>
        <time>2017-03-12T09:31:11Z</time>
      </trkpt>
      <trkpt lat="49.34608" lon="1.06818">
        <ele>72</ele>
        <time>2017-03-12T09:31:15Z</time>
      </trkpt>
      <trkpt lat="49.34623" lon="1.06823">
        <ele>71</ele>
        <time>2017-03-12T09:31:17Z</time>
      </trkpt>
      <trkpt lat="49.34638" lon="1.06833">
        <ele>70</ele>
        <time>2017-03-12T09:31:20Z</time>
      </trkpt>
      <trkpt lat="49.34675" lon="1.06863">
        <ele>74</ele>
        <time>2017-03-12T09:31:27Z</time>
      </trkpt>
      <trkpt lat="49.34693" lon="1.06875">
        <ele>74</ele>
        <time>2017-03-12T09:31:30Z</time>
      </trkpt>
      <trkpt lat="49.34705" lon="1.06898">
        <ele>70</ele>
        <time>2017-03-12T09:31:33Z</time>
      </trkpt>
      <trkpt lat="49.34723" lon="1.069">
        <ele>70</ele>
        <time>2017-03-12T09:31:37Z</time>
      </trkpt>
      <trkpt lat="49.34735" lon="1.0691">
        <ele>71</ele>
        <time>2017-03-12T09:31:40Z</time>
      </trkpt>
      <trkpt lat="49.34753" lon="1.06925">
        <ele>72</ele>
        <time>2017-03-12T09:31:45Z</time>
      </trkpt>
      <trkpt lat="49.34765" lon="1.0691">
        <ele>74</ele>
        <time>2017-03-12T09:31:50Z</time>
      </trkpt>
      <trkpt lat="49.34775" lon="1.06925">
        <ele>75</ele>
        <time>2017-03-12T09:32:01Z</time>
      </trkpt>
      <trkpt lat="49.3478" lon="1.06948">
        <ele>76</ele>
        <time>2017-03-12T09:32:08Z</time>
      </trkpt>
      <trkpt lat="49.34785" lon="1.0697">
        <ele>73</ele>
        <time>2017-03-12T09:32:13Z</time>
      </trkpt>
      <trkpt lat="49.34795" lon="1.06988">
        <ele>73</ele>
        <time>2017-03-12T09:32:18Z</time>
      </trkpt>
      <trkpt lat="49.34808" lon="1.07008">
        <ele>73</ele>
        <time>2017-03-12T09:32:23Z</time>
      </trkpt>
      <trkpt lat="49.34815" lon="1.0703">
        <ele>72</ele>
        <time>2017-03-12T09:32:28Z</time>
      </trkpt>
      <trkpt lat="49.34828" lon="1.07043">
        <ele>72</ele>
        <time>2017-03-12T09:32:32Z</time>
      </trkpt>
      <trkpt lat="49.34843" lon="1.07063">
        <ele>74</ele>
        <time>2017-03-12T09:32:37Z</time>
      </trkpt>
      <trkpt lat="49.34853" lon="1.07078">
        <ele>73</ele>
        <time>2017-03-12T09:32:40Z</time>
      </trkpt>
      <trkpt lat="49.34863" lon="1.07098">
        <ele>73</ele>
        <time>2017-03-12T09:32:44Z</time>
      </trkpt>
      <trkpt lat="49.34883" lon="1.0713">
        <ele>76</ele>
        <time>2017-03-12T09:32:51Z</time>
      </trkpt>
      <trkpt lat="49.3489" lon="1.07153">
        <ele>75</ele>
        <time>2017-03-12T09:32:54Z</time>
      </trkpt>
      <trkpt lat="49.349" lon="1.0718">
        <ele>74</ele>
        <time>2017-03-12T09:32:58Z</time>
      </trkpt>
      <trkpt lat="49.34908" lon="1.072">
        <ele>73</ele>
        <time>2017-03-12T09:33:01Z</time>
      </trkpt>
      <trkpt lat="49.34913" lon="1.07228">
        <ele>74</ele>
        <time>2017-03-12T09:33:05Z</time>
      </trkpt>
      <trkpt lat="49.34918" lon="1.0725">
        <ele>74</ele>
        <time>2017-03-12T09:33:08Z</time>
      </trkpt>
      <trkpt lat="49.34923" lon="1.0728">
        <ele>74</ele>
        <time>2017-03-12T09:33:12Z</time>
      </trkpt>
      <trkpt lat="49.34923" lon="1.0731">
        <ele>74</ele>
        <time>2017-03-12T09:33:16Z</time>
      </trkpt>
      <trkpt lat="49.34923" lon="1.07338">
        <ele>74</ele>
        <time>2017-03-12T09:33:20Z</time>
      </trkpt>
      <trkpt lat="49.3492" lon="1.07363">
        <ele>75</ele>
        <time>2017-03-12T09:33:24Z</time>
      </trkpt>
      <trkpt lat="49.34913" lon="1.07388">
        <ele>75</ele>
        <time>2017-03-12T09:33:27Z</time>
      </trkpt>
      <trkpt lat="49.34908" lon="1.0741">
        <ele>75</ele>
        <time>2017-03-12T09:33:30Z</time>
      </trkpt>
      <trkpt lat="49.34905" lon="1.07438">
        <ele>74</ele>
        <time>2017-03-12T09:33:34Z</time>
      </trkpt>
      <trkpt lat="49.34903" lon="1.0747">
        <ele>73</ele>
        <time>2017-03-12T09:33:39Z</time>
      </trkpt>
      <trkpt lat="49.349" lon="1.07495">
        <ele>70</ele>
        <time>2017-03-12T09:33:44Z</time>
      </trkpt>
      <trkpt lat="49.3489" lon="1.07515">
        <ele>69</ele>
        <time>2017-03-12T09:33:47Z</time>
      </trkpt>
      <trkpt lat="49.34883" lon="1.07538">
        <ele>69</ele>
        <time>2017-03-12T09:33:51Z</time>
      </trkpt>
      <trkpt lat="49.34883" lon="1.0756">
        <ele>67</ele>
        <time>2017-03-12T09:33:56Z</time>
      </trkpt>
      <trkpt lat="49.34883" lon="1.07588">
        <ele>66</ele>
        <time>2017-03-12T09:34:02Z</time>
      </trkpt>
      <trkpt lat="49.34888" lon="1.0761">
        <ele>65</ele>
        <time>2017-03-12T09:34:07Z</time>
      </trkpt>
      <trkpt lat="49.34895" lon="1.07633">
        <ele>65</ele>
        <time>2017-03-12T09:34:12Z</time>
      </trkpt>
      <trkpt lat="49.34903" lon="1.07658">
        <ele>65</ele>
        <time>2017-03-12T09:34:16Z</time>
      </trkpt>
      <trkpt lat="49.34915" lon="1.07675">
        <ele>64</ele>
        <time>2017-03-12T09:34:20Z</time>
      </trkpt>
      <trkpt lat="49.34933" lon="1.07678">
        <ele>65</ele>
        <time>2017-03-12T09:34:25Z</time>
      </trkpt>
      <trkpt lat="49.34948" lon="1.0768">
        <ele>65</ele>
        <time>2017-03-12T09:34:29Z</time>
      </trkpt>
      <trkpt lat="49.34963" lon="1.0769">
        <ele>67</ele>
        <time>2017-03-12T09:34:34Z</time>
      </trkpt>
      <trkpt lat="49.34978" lon="1.07693">
        <ele>70</ele>
        <time>2017-03-12T09:34:39Z</time>
      </trkpt>
      <trkpt lat="49.34985" lon="1.07675">
        <ele>72</ele>
        <time>2017-03-12T09:34:46Z</time>
      </trkpt>
      <trkpt lat="49.35" lon="1.07675">
        <ele>74</ele>
        <time>2017-03-12T09:34:52Z</time>
      </trkpt>
      <trkpt lat="49.35013" lon="1.07685">
        <ele>74</ele>
        <time>2017-03-12T09:34:58Z</time>
      </trkpt>
      <trkpt lat="49.35025" lon="1.07695">
        <ele>71</ele>
        <time>2017-03-12T09:35:03Z</time>
      </trkpt>
      <trkpt lat="49.3503" lon="1.07715">
        <ele>70</ele>
        <time>2017-03-12T09:35:10Z</time>
      </trkpt>
      <trkpt lat="49.35038" lon="1.07733">
        <ele>70</ele>
        <time>2017-03-12T09:35:19Z</time>
      </trkpt>
      <trkpt lat="49.35038" lon="1.07765">
        <ele>66</ele>
        <time>2017-03-12T09:35:36Z</time>
      </trkpt>
      <trkpt lat="49.35023" lon="1.07778">
        <ele>67</ele>
        <time>2017-03-12T09:35:43Z</time>
      </trkpt>
      <trkpt lat="49.35015" lon="1.07795">
        <ele>67</ele>
        <time>2017-03-12T09:35:53Z</time>
      </trkpt>
      <trkpt lat="49.35018" lon="1.07818">
        <ele>64</ele>
        <time>2017-03-12T09:36:04Z</time>
      </trkpt>
      <trkpt lat="49.35008" lon="1.07835">
        <ele>63</ele>
        <time>2017-03-12T09:36:15Z</time>
      </trkpt>
      <trkpt lat="49.3502" lon="1.07848">
        <ele>63</ele>
        <time>2017-03-12T09:36:21Z</time>
      </trkpt>
      <trkpt lat="49.35033" lon="1.0786">
        <ele>62</ele>
        <time>2017-03-12T09:36:25Z</time>
      </trkpt>
      <trkpt lat="49.35045" lon="1.07873">
        <ele>63</ele>
        <time>2017-03-12T09:36:29Z</time>
      </trkpt>
      <trkpt lat="49.3506" lon="1.07883">
        <ele>62</ele>
        <time>2017-03-12T09:36:34Z</time>
      </trkpt>
      <trkpt lat="49.35073" lon="1.0787">
        <ele>63</ele>
        <time>2017-03-12T09:36:42Z</time>
      </trkpt>
      <trkpt lat="49.35078" lon="1.07845">
        <ele>63</ele>
        <time>2017-03-12T09:36:46Z</time>
      </trkpt>
      <trkpt lat="49.35078" lon="1.07818">
        <ele>63</ele>
        <time>2017-03-12T09:36:50Z</time>
      </trkpt>
      <trkpt lat="49.3507" lon="1.07798">
        <ele>64</ele>
        <time>2017-03-12T09:36:54Z</time>
      </trkpt>
      <trkpt lat="49.35078" lon="1.07775">
        <ele>65</ele>
        <time>2017-03-12T09:36:58Z</time>
      </trkpt>
      <trkpt lat="49.35078" lon="1.0775">
        <ele>65</ele>
        <time>2017-03-12T09:37:02Z</time>
      </trkpt>
      <trkpt lat="49.35078" lon="1.0771">
        <ele>66</ele>
        <time>2017-03-12T09:37:07Z</time>
      </trkpt>
      <trkpt lat="49.35075" lon="1.07688">
        <ele>67</ele>
        <time>2017-03-12T09:37:11Z</time>
      </trkpt>
      <trkpt lat="49.35078" lon="1.0766">
        <ele>68</ele>
        <time>2017-03-12T09:37:16Z</time>
      </trkpt>
      <trkpt lat="49.3508" lon="1.07635">
        <ele>68</ele>
        <time>2017-03-12T09:37:20Z</time>
      </trkpt>
      <trkpt lat="49.3507" lon="1.07618">
        <ele>65</ele>
        <time>2017-03-12T09:37:25Z</time>
      </trkpt>
      <trkpt lat="49.35063" lon="1.07598">
        <ele>65</ele>
        <time>2017-03-12T09:37:31Z</time>
      </trkpt>
      <trkpt lat="49.35068" lon="1.07573">
        <ele>66</ele>
        <time>2017-03-12T09:37:38Z</time>
      </trkpt>
      <trkpt lat="49.35078" lon="1.07555">
        <ele>65</ele>
        <time>2017-03-12T09:37:46Z</time>
      </trkpt>
      <trkpt lat="49.35078" lon="1.07533">
        <ele>66</ele>
        <time>2017-03-12T09:37:51Z</time>
      </trkpt>
      <trkpt lat="49.35073" lon="1.07513">
        <ele>68</ele>
        <time>2017-03-12T09:37:57Z</time>
      </trkpt>
      <trkpt lat="49.3508" lon="1.07493">
        <ele>70</ele>
        <time>2017-03-12T09:38:03Z</time>
      </trkpt>
      <trkpt lat="49.35093" lon="1.0748">
        <ele>68</ele>
        <time>2017-03-12T09:38:09Z</time>
      </trkpt>
      <trkpt lat="49.351" lon="1.07463">
        <ele>68</ele>
        <time>2017-03-12T09:38:13Z</time>
      </trkpt>
      <trkpt lat="49.35108" lon="1.07443">
        <ele>69</ele>
        <time>2017-03-12T09:38:18Z</time>
      </trkpt>
      <trkpt lat="49.35115" lon="1.07423">
        <ele>70</ele>
        <time>2017-03-12T09:38:23Z</time>
      </trkpt>
      <trkpt lat="49.3512" lon="1.07403">
        <ele>71</ele>
        <time>2017-03-12T09:38:27Z</time>
      </trkpt>
      <trkpt lat="49.35135" lon="1.0739">
        <ele>70</ele>
        <time>2017-03-12T09:38:33Z</time>
      </trkpt>
      <trkpt lat="49.35143" lon="1.0737">
        <ele>71</ele>
        <time>2017-03-12T09:38:37Z</time>
      </trkpt>
      <trkpt lat="49.35143" lon="1.07348">
        <ele>71</ele>
        <time>2017-03-12T09:38:41Z</time>
      </trkpt>
      <trkpt lat="49.35138" lon="1.07325">
        <ele>73</ele>
        <time>2017-03-12T09:38:48Z</time>
      </trkpt>
      <trkpt lat="49.35153" lon="1.07313">
        <ele>73</ele>
        <time>2017-03-12T09:38:53Z</time>
      </trkpt>
      <trkpt lat="49.35168" lon="1.07305">
        <ele>73</ele>
        <time>2017-03-12T09:38:57Z</time>
      </trkpt>
      <trkpt lat="49.3518" lon="1.07293">
        <ele>74</ele>
        <time>2017-03-12T09:39:02Z</time>
      </trkpt>
      <trkpt lat="49.35195" lon="1.07293">
        <ele>71</ele>
        <time>2017-03-12T09:39:07Z</time>
      </trkpt>
      <trkpt lat="49.35215" lon="1.0729">
        <ele>70</ele>
        <time>2017-03-12T09:39:14Z</time>
      </trkpt>
      <trkpt lat="49.35223" lon="1.0727">
        <ele>70</ele>
        <time>2017-03-12T09:39:18Z</time>
      </trkpt>
      <trkpt lat="49.35225" lon="1.07248">
        <ele>70</ele>
        <time>2017-03-12T09:39:22Z</time>
      </trkpt>
      <trkpt lat="49.35233" lon="1.0723">
        <ele>69</ele>
        <time>2017-03-12T09:39:27Z</time>
      </trkpt>
      <trkpt lat="49.35228" lon="1.07205">
        <ele>68</ele>
        <time>2017-03-12T09:39:32Z</time>
      </trkpt>
      <trkpt lat="49.35228" lon="1.0718">
        <ele>70</ele>
        <time>2017-03-12T09:39:37Z</time>
      </trkpt>
      <trkpt lat="49.3523" lon="1.07158">
        <ele>69</ele>
        <time>2017-03-12T09:39:42Z</time>
      </trkpt>
      <trkpt lat="49.3524" lon="1.0714">
        <ele>68</ele>
        <time>2017-03-12T09:39:46Z</time>
      </trkpt>
      <trkpt lat="49.35245" lon="1.07118">
        <ele>69</ele>
        <time>2017-03-12T09:39:50Z</time>
      </trkpt>
      <trkpt lat="49.3525" lon="1.07095">
        <ele>70</ele>
        <time>2017-03-12T09:39:54Z</time>
      </trkpt>
      <trkpt lat="49.35255" lon="1.07065">
        <ele>71</ele>
        <time>2017-03-12T09:39:59Z</time>
      </trkpt>
      <trkpt lat="49.35263" lon="1.07035">
        <ele>73</ele>
        <time>2017-03-12T09:40:04Z</time>
      </trkpt>
      <trkpt lat="49.35268" lon="1.0701">
        <ele>73</ele>
        <time>2017-03-12T09:40:08Z</time>
      </trkpt>
      <trkpt lat="49.35273" lon="1.0698">
        <ele>74</ele>
        <time>2017-03-12T09:40:13Z</time>
      </trkpt>
      <trkpt lat="49.3528" lon="1.06955">
        <ele>75</ele>
        <time>2017-03-12T09:40:18Z</time>
      </trkpt>
      <trkpt lat="49.35285" lon="1.06935">
        <ele>76</ele>
        <time>2017-03-12T09:40:22Z</time>
      </trkpt>
      <trkpt lat="49.3529" lon="1.0691">
        <ele>76</ele>
        <time>2017-03-12T09:40:26Z</time>
      </trkpt>
      <trkpt lat="49.35298" lon="1.06873">
        <ele>77</ele>
        <time>2017-03-12T09:40:32Z</time>
      </trkpt>
      <trkpt lat="49.35305" lon="1.06855">
        <ele>77</ele>
        <time>2017-03-12T09:40:35Z</time>
      </trkpt>
      <trkpt lat="49.35315" lon="1.06828">
        <ele>77</ele>
        <time>2017-03-12T09:40:40Z</time>
      </trkpt>
      <trkpt lat="49.35325" lon="1.0681">
        <ele>78</ele>
        <time>2017-03-12T09:40:45Z</time>
      </trkpt>
      <trkpt lat="49.3533" lon="1.0679">
        <ele>77</ele>
        <time>2017-03-12T09:40:49Z</time>
      </trkpt>
      <trkpt lat="49.35338" lon="1.0677">
        <ele>78</ele>
        <time>2017-03-12T09:40:53Z</time>
      </trkpt>
      <trkpt lat="49.35348" lon="1.06753">
        <ele>79</ele>
        <time>2017-03-12T09:40:57Z</time>
      </trkpt>
      <trkpt lat="49.35355" lon="1.0673">
        <ele>79</ele>
        <time>2017-03-12T09:41:02Z</time>
      </trkpt>
      <trkpt lat="49.3536" lon="1.06708">
        <ele>79</ele>
        <time>2017-03-12T09:41:06Z</time>
      </trkpt>
      <trkpt lat="49.35363" lon="1.06683">
        <ele>77</ele>
        <time>2017-03-12T09:41:10Z</time>
      </trkpt>
      <trkpt lat="49.35365" lon="1.0666">
        <ele>77</ele>
        <time>2017-03-12T09:41:14Z</time>
      </trkpt>
      <trkpt lat="49.35378" lon="1.06648">
        <ele>77</ele>
        <time>2017-03-12T09:41:21Z</time>
      </trkpt>
      <trkpt lat="49.35385" lon="1.0663">
        <ele>78</ele>
        <time>2017-03-12T09:41:26Z</time>
      </trkpt>
      <trkpt lat="49.35398" lon="1.06615">
        <ele>80</ele>
        <time>2017-03-12T09:41:33Z</time>
      </trkpt>
      <trkpt lat="49.3541" lon="1.06603">
        <ele>81</ele>
        <time>2017-03-12T09:41:40Z</time>
      </trkpt>
      <trkpt lat="49.35425" lon="1.06603">
        <ele>83</ele>
        <time>2017-03-12T09:41:48Z</time>
      </trkpt>
      <trkpt lat="49.35438" lon="1.06618">
        <ele>87</ele>
        <time>2017-03-12T09:52:00Z</time>
      </trkpt>
      <trkpt lat="49.3545" lon="1.0663">
        <ele>84</ele>
        <time>2017-03-12T09:52:07Z</time>
      </trkpt>
      <trkpt lat="49.35465" lon="1.0663">
        <ele>84</ele>
        <time>2017-03-12T09:52:16Z</time>
      </trkpt>
      <trkpt lat="49.3548" lon="1.06633">
        <ele>84</ele>
        <time>2017-03-12T09:52:21Z</time>
      </trkpt>
      <trkpt lat="49.35495" lon="1.0663">
        <ele>85</ele>
        <time>2017-03-12T09:52:26Z</time>
      </trkpt>
      <trkpt lat="49.35508" lon="1.0662">
        <ele>86</ele>
        <time>2017-03-12T09:52:30Z</time>
      </trkpt>
      <trkpt lat="49.35523" lon="1.06608">
        <ele>87</ele>
        <time>2017-03-12T09:52:34Z</time>
      </trkpt>
      <trkpt lat="49.35525" lon="1.06583">
        <ele>88</ele>
        <time>2017-03-12T09:52:39Z</time>
      </trkpt>
      <trkpt lat="49.35523" lon="1.06558">
        <ele>88</ele>
        <time>2017-03-12T09:52:44Z</time>
      </trkpt>
      <trkpt lat="49.35523" lon="1.06533">
        <ele>89</ele>
        <time>2017-03-12T09:52:48Z</time>
      </trkpt>
      <trkpt lat="49.3553" lon="1.06508">
        <ele>90</ele>
        <time>2017-03-12T09:52:53Z</time>
      </trkpt>
      <trkpt lat="49.35533" lon="1.0648">
        <ele>90</ele>
        <time>2017-03-12T09:52:58Z</time>
      </trkpt>
      <trkpt lat="49.35538" lon="1.06455">
        <ele>89</ele>
        <time>2017-03-12T09:53:03Z</time>
      </trkpt>
      <trkpt lat="49.35538" lon="1.0643">
        <ele>89</ele>
        <time>2017-03-12T09:53:08Z</time>
      </trkpt>
      <trkpt lat="49.3554" lon="1.06408">
        <ele>91</ele>
        <time>2017-03-12T09:53:13Z</time>
      </trkpt>
      <trkpt lat="49.35545" lon="1.0638">
        <ele>91</ele>
        <time>2017-03-12T09:53:19Z</time>
      </trkpt>
      <trkpt lat="49.35553" lon="1.0636">
        <ele>92</ele>
        <time>2017-03-12T09:53:24Z</time>
      </trkpt>
      <trkpt lat="49.35553" lon="1.06335">
        <ele>90</ele>
        <time>2017-03-12T09:53:29Z</time>
      </trkpt>
      <trkpt lat="49.35558" lon="1.06315">
        <ele>90</ele>
        <time>2017-03-12T09:53:34Z</time>
      </trkpt>
      <trkpt lat="49.35563" lon="1.06293">
        <ele>92</ele>
        <time>2017-03-12T09:53:39Z</time>
      </trkpt>
      <trkpt lat="49.3557" lon="1.06265">
        <ele>91</ele>
        <time>2017-03-12T09:53:45Z</time>
      </trkpt>
      <trkpt lat="49.35568" lon="1.06243">
        <ele>91</ele>
        <time>2017-03-12T09:53:50Z</time>
      </trkpt>
      <trkpt lat="49.35575" lon="1.06223">
        <ele>92</ele>
        <time>2017-03-12T09:53:55Z</time>
      </trkpt>
      <trkpt lat="49.35585" lon="1.06208">
        <ele>94</ele>
        <time>2017-03-12T09:54:00Z</time>
      </trkpt>
      <trkpt lat="49.35595" lon="1.0619">
        <ele>94</ele>
        <time>2017-03-12T09:54:05Z</time>
      </trkpt>
      <trkpt lat="49.35605" lon="1.06173">
        <ele>93</ele>
        <time>2017-03-12T09:54:10Z</time>
      </trkpt>
      <trkpt lat="49.35618" lon="1.06158">
        <ele>95</ele>
        <time>2017-03-12T09:54:15Z</time>
      </trkpt>
      <trkpt lat="49.35618" lon="1.06135">
        <ele>96</ele>
        <time>2017-03-12T09:54:21Z</time>
      </trkpt>
      <trkpt lat="49.35633" lon="1.06125">
        <ele>96</ele>
        <time>2017-03-12T09:54:27Z</time>
      </trkpt>
      <trkpt lat="49.35645" lon="1.0611">
        <ele>97</ele>
        <time>2017-03-12T09:54:32Z</time>
      </trkpt>
      <trkpt lat="49.3566" lon="1.06108">
        <ele>96</ele>
        <time>2017-03-12T09:54:36Z</time>
      </trkpt>
      <trkpt lat="49.35675" lon="1.06103">
        <ele>97</ele>
        <time>2017-03-12T09:54:41Z</time>
      </trkpt>
      <trkpt lat="49.3569" lon="1.06093">
        <ele>99</ele>
        <time>2017-03-12T09:54:47Z</time>
      </trkpt>
      <trkpt lat="49.357" lon="1.06075">
        <ele>100</ele>
        <time>2017-03-12T09:54:51Z</time>
      </trkpt>
      <trkpt lat="49.3571" lon="1.06058">
        <ele>101</ele>
        <time>2017-03-12T09:54:55Z</time>
      </trkpt>
      <trkpt lat="49.35718" lon="1.0604">
        <ele>102</ele>
        <time>2017-03-12T09:54:59Z</time>
      </trkpt>
      <trkpt lat="49.35728" lon="1.06025">
        <ele>101</ele>
        <time>2017-03-12T09:55:03Z</time>
      </trkpt>
      <trkpt lat="49.35738" lon="1.0601">
        <ele>101</ele>
        <time>2017-03-12T09:55:07Z</time>
      </trkpt>
      <trkpt lat="49.35753" lon="1.06018">
        <ele>101</ele>
        <time>2017-03-12T09:55:12Z</time>
      </trkpt>
      <trkpt lat="49.35768" lon="1.06025">
        <ele>102</ele>
        <time>2017-03-12T09:55:16Z</time>
      </trkpt>
      <trkpt lat="49.35785" lon="1.0602">
        <ele>102</ele>
        <time>2017-03-12T09:55:20Z</time>
      </trkpt>
      <trkpt lat="49.35798" lon="1.06008">
        <ele>103</ele>
        <time>2017-03-12T09:55:24Z</time>
      </trkpt>
      <trkpt lat="49.35805" lon="1.05983">
        <ele>104</ele>
        <time>2017-03-12T09:55:28Z</time>
      </trkpt>
      <trkpt lat="49.35813" lon="1.05953">
        <ele>104</ele>
        <time>2017-03-12T09:55:32Z</time>
      </trkpt>
      <trkpt lat="49.35823" lon="1.05935">
        <ele>105</ele>
        <time>2017-03-12T09:55:35Z</time>
      </trkpt>
      <trkpt lat="49.3583" lon="1.0591">
        <ele>105</ele>
        <time>2017-03-12T09:55:38Z</time>
      </trkpt>
      <trkpt lat="49.3584" lon="1.0588">
        <ele>106</ele>
        <time>2017-03-12T09:55:42Z</time>
      </trkpt>
      <trkpt lat="49.35845" lon="1.05858">
        <ele>106</ele>
        <time>2017-03-12T09:55:45Z</time>
      </trkpt>
      <trkpt lat="49.35855" lon="1.05825">
        <ele>107</ele>
        <time>2017-03-12T09:55:49Z</time>
      </trkpt>
      <trkpt lat="49.35868" lon="1.05788">
        <ele>108</ele>
        <time>2017-03-12T09:55:54Z</time>
      </trkpt>
      <trkpt lat="49.35875" lon="1.05763">
        <ele>110</ele>
        <time>2017-03-12T09:55:57Z</time>
      </trkpt>
      <trkpt lat="49.35883" lon="1.05738">
        <ele>111</ele>
        <time>2017-03-12T09:56:00Z</time>
      </trkpt>
      <trkpt lat="49.3589" lon="1.05713">
        <ele>112</ele>
        <time>2017-03-12T09:56:03Z</time>
      </trkpt>
      <trkpt lat="49.35908" lon="1.05668">
        <ele>114</ele>
        <time>2017-03-12T09:56:09Z</time>
      </trkpt>
      <trkpt lat="49.35915" lon="1.05645">
        <ele>114</ele>
        <time>2017-03-12T09:56:12Z</time>
      </trkpt>
      <trkpt lat="49.35925" lon="1.0561">
        <ele>114</ele>
        <time>2017-03-12T09:56:16Z</time>
      </trkpt>
      <trkpt lat="49.35935" lon="1.05575">
        <ele>115</ele>
        <time>2017-03-12T09:56:20Z</time>
      </trkpt>
      <trkpt lat="49.3594" lon="1.0555">
        <ele>116</ele>
        <time>2017-03-12T09:56:23Z</time>
      </trkpt>
      <trkpt lat="49.35948" lon="1.05525">
        <ele>116</ele>
        <time>2017-03-12T09:56:26Z</time>
      </trkpt>
      <trkpt lat="49.35955" lon="1.05495">
        <ele>113</ele>
        <time>2017-03-12T09:56:30Z</time>
      </trkpt>
      <trkpt lat="49.35968" lon="1.05483">
        <ele>113</ele>
        <time>2017-03-12T09:56:33Z</time>
      </trkpt>
      <trkpt lat="49.35985" lon="1.05485">
        <ele>111</ele>
        <time>2017-03-12T09:56:37Z</time>
      </trkpt>
      <trkpt lat="49.36003" lon="1.05475">
        <ele>110</ele>
        <time>2017-03-12T09:56:40Z</time>
      </trkpt>
      <trkpt lat="49.36015" lon="1.0545">
        <ele>107</ele>
        <time>2017-03-12T09:56:43Z</time>
      </trkpt>
      <trkpt lat="49.36023" lon="1.05433">
        <ele>106</ele>
        <time>2017-03-12T09:56:45Z</time>
      </trkpt>
      <trkpt lat="49.3603" lon="1.05408">
        <ele>103</ele>
        <time>2017-03-12T09:56:48Z</time>
      </trkpt>
      <trkpt lat="49.3604" lon="1.05383">
        <ele>102</ele>
        <time>2017-03-12T09:56:51Z</time>
      </trkpt>
      <trkpt lat="49.36048" lon="1.05355">
        <ele>101</ele>
        <time>2017-03-12T09:56:54Z</time>
      </trkpt>
      <trkpt lat="49.3606" lon="1.0533">
        <ele>100</ele>
        <time>2017-03-12T09:56:58Z</time>
      </trkpt>
      <trkpt lat="49.36063" lon="1.05303">
        <ele>99</ele>
        <time>2017-03-12T09:57:02Z</time>
      </trkpt>
      <trkpt lat="49.36068" lon="1.05273">
        <ele>101</ele>
        <time>2017-03-12T09:57:06Z</time>
      </trkpt>
      <trkpt lat="49.36058" lon="1.05258">
        <ele>100</ele>
        <time>2017-03-12T09:57:09Z</time>
      </trkpt>
      <trkpt lat="49.36045" lon="1.05245">
        <ele>100</ele>
        <time>2017-03-12T09:57:12Z</time>
      </trkpt>
      <trkpt lat="49.3603" lon="1.05233">
        <ele>100</ele>
        <time>2017-03-12T09:57:15Z</time>
      </trkpt>
      <trkpt lat="49.36018" lon="1.05215">
        <ele>101</ele>
        <time>2017-03-12T09:57:18Z</time>
      </trkpt>
      <trkpt lat="49.36005" lon="1.05195">
        <ele>102</ele>
        <time>2017-03-12T09:57:21Z</time>
      </trkpt>
      <trkpt lat="49.36" lon="1.0517">
        <ele>102</ele>
        <time>2017-03-12T09:57:24Z</time>
      </trkpt>
      <trkpt lat="49.36005" lon="1.05138">
        <ele>102</ele>
        <time>2017-03-12T09:57:28Z</time>
      </trkpt>
      <trkpt lat="49.3601" lon="1.05115">
        <ele>101</ele>
        <time>2017-03-12T09:57:31Z</time>
      </trkpt>
      <trkpt lat="49.36015" lon="1.05095">
        <ele>100</ele>
        <time>2017-03-12T09:57:33Z</time>
      </trkpt>
      <trkpt lat="49.36025" lon="1.05058">
        <ele>101</ele>
        <time>2017-03-12T09:57:38Z</time>
      </trkpt>
      <trkpt lat="49.36025" lon="1.05035">
        <ele>101</ele>
        <time>2017-03-12T09:57:41Z</time>
      </trkpt>
      <trkpt lat="49.3602" lon="1.05013">
        <ele>102</ele>
        <time>2017-03-12T09:57:44Z</time>
      </trkpt>
      <trkpt lat="49.36013" lon="1.04988">
        <ele>104</ele>
        <time>2017-03-12T09:57:47Z</time>
      </trkpt>
      <trkpt lat="49.36005" lon="1.04965">
        <ele>104</ele>
        <time>2017-03-12T09:57:50Z</time>
      </trkpt>
      <trkpt lat="49.36003" lon="1.04943">
        <ele>104</ele>
        <time>2017-03-12T09:57:53Z</time>
      </trkpt>
      <trkpt lat="49.36013" lon="1.04923">
        <ele>106</ele>
        <time>2017-03-12T09:57:56Z</time>
      </trkpt>
      <trkpt lat="49.36025" lon="1.04913">
        <ele>108</ele>
        <time>2017-03-12T09:57:59Z</time>
      </trkpt>
      <trkpt lat="49.36038" lon="1.04903">
        <ele>108</ele>
        <time>2017-03-12T09:58:01Z</time>
      </trkpt>
      <trkpt lat="49.3605" lon="1.04883">
        <ele>109</ele>
        <time>2017-03-12T09:58:04Z</time>
      </trkpt>
      <trkpt lat="49.3606" lon="1.04863">
        <ele>109</ele>
        <time>2017-03-12T09:58:07Z</time>
      </trkpt>
      <trkpt lat="49.36053" lon="1.04845">
        <ele>108</ele>
        <time>2017-03-12T09:58:10Z</time>
      </trkpt>
      <trkpt lat="49.36035" lon="1.04833">
        <ele>107</ele>
        <time>2017-03-12T09:58:14Z</time>
      </trkpt>
      <trkpt lat="49.3602" lon="1.04823">
        <ele>107</ele>
        <time>2017-03-12T09:58:17Z</time>
      </trkpt>
      <trkpt lat="49.36008" lon="1.04813">
        <ele>106</ele>
        <time>2017-03-12T09:58:20Z</time>
      </trkpt>
      <trkpt lat="49.35993" lon="1.04805">
        <ele>107</ele>
        <time>2017-03-12T09:58:23Z</time>
      </trkpt>
      <trkpt lat="49.35978" lon="1.04795">
        <ele>108</ele>
        <time>2017-03-12T09:58:26Z</time>
      </trkpt>
      <trkpt lat="49.3596" lon="1.04785">
        <ele>105</ele>
        <time>2017-03-12T09:58:30Z</time>
      </trkpt>
      <trkpt lat="49.35933" lon="1.04768">
        <ele>104</ele>
        <time>2017-03-12T09:58:35Z</time>
      </trkpt>
      <trkpt lat="49.35918" lon="1.04755">
        <ele>105</ele>
        <time>2017-03-12T09:58:38Z</time>
      </trkpt>
      <trkpt lat="49.359" lon="1.04745">
        <ele>106</ele>
        <time>2017-03-12T09:58:41Z</time>
      </trkpt>
      <trkpt lat="49.3589" lon="1.0472">
        <ele>107</ele>
        <time>2017-03-12T09:58:44Z</time>
      </trkpt>
      <trkpt lat="49.35893" lon="1.04695">
        <ele>107</ele>
        <time>2017-03-12T09:58:47Z</time>
      </trkpt>
      <trkpt lat="49.35898" lon="1.0467">
        <ele>108</ele>
        <time>2017-03-12T09:58:50Z</time>
      </trkpt>
      <trkpt lat="49.35903" lon="1.04643">
        <ele>109</ele>
        <time>2017-03-12T09:58:54Z</time>
      </trkpt>
      <trkpt lat="49.35895" lon="1.04623">
        <ele>108</ele>
        <time>2017-03-12T09:58:58Z</time>
      </trkpt>
      <trkpt lat="49.3588" lon="1.04615">
        <ele>106</ele>
        <time>2017-03-12T09:59:01Z</time>
      </trkpt>
      <trkpt lat="49.35863" lon="1.046">
        <ele>107</ele>
        <time>2017-03-12T09:59:05Z</time>
      </trkpt>
      <trkpt lat="49.35848" lon="1.04588">
        <ele>108</ele>
        <time>2017-03-12T09:59:09Z</time>
      </trkpt>
      <trkpt lat="49.35833" lon="1.04575">
        <ele>108</ele>
        <time>2017-03-12T09:59:12Z</time>
      </trkpt>
      <trkpt lat="49.35808" lon="1.04553">
        <ele>108</ele>
        <time>2017-03-12T09:59:19Z</time>
      </trkpt>
      <trkpt lat="49.35793" lon="1.0454">
        <ele>108</ele>
        <time>2017-03-12T09:59:21Z</time>
      </trkpt>
      <trkpt lat="49.3578" lon="1.0453">
        <ele>107</ele>
        <time>2017-03-12T09:59:23Z</time>
      </trkpt>
      <trkpt lat="49.35768" lon="1.0452">
        <ele>106</ele>
        <time>2017-03-12T09:59:26Z</time>
      </trkpt>
      <trkpt lat="49.35755" lon="1.0451">
        <ele>106</ele>
        <time>2017-03-12T09:59:29Z</time>
      </trkpt>
      <trkpt lat="49.3574" lon="1.045">
        <ele>106</ele>
        <time>2017-03-12T09:59:32Z</time>
      </trkpt>
      <trkpt lat="49.35725" lon="1.04488">
        <ele>106</ele>
        <time>2017-03-12T09:59:36Z</time>
      </trkpt>
      <trkpt lat="49.3571" lon="1.04478">
        <ele>106</ele>
        <time>2017-03-12T09:59:39Z</time>
      </trkpt>
      <trkpt lat="49.3569" lon="1.04463">
        <ele>107</ele>
        <time>2017-03-12T09:59:42Z</time>
      </trkpt>
      <trkpt lat="49.35678" lon="1.04453">
        <ele>108</ele>
        <time>2017-03-12T09:59:45Z</time>
      </trkpt>
      <trkpt lat="49.35655" lon="1.04425">
        <ele>101</ele>
        <time>2017-03-12T10:07:14Z</time>
      </trkpt>
      <trkpt lat="49.35643" lon="1.04413">
        <ele>114</ele>
        <time>2017-03-12T10:07:35Z</time>
      </trkpt>
      <trkpt lat="49.3563" lon="1.04403">
        <ele>114</ele>
        <time>2017-03-12T10:07:39Z</time>
      </trkpt>
      <trkpt lat="49.35615" lon="1.04388">
        <ele>114</ele>
        <time>2017-03-12T10:07:44Z</time>
      </trkpt>
      <trkpt lat="49.35598" lon="1.0438">
        <ele>113</ele>
        <time>2017-03-12T10:07:48Z</time>
      </trkpt>
      <trkpt lat="49.35585" lon="1.0437">
        <ele>111</ele>
        <time>2017-03-12T10:07:51Z</time>
      </trkpt>
      <trkpt lat="49.35573" lon="1.0436">
        <ele>111</ele>
        <time>2017-03-12T10:07:54Z</time>
      </trkpt>
      <trkpt lat="49.35555" lon="1.0435">
        <ele>110</ele>
        <time>2017-03-12T10:07:58Z</time>
      </trkpt>
      <trkpt lat="49.3554" lon="1.04338">
        <ele>112</ele>
        <time>2017-03-12T10:08:02Z</time>
      </trkpt>
      <trkpt lat="49.35528" lon="1.04323">
        <ele>112</ele>
        <time>2017-03-12T10:08:07Z</time>
      </trkpt>
      <trkpt lat="49.35533" lon="1.04295">
        <ele>115</ele>
        <time>2017-03-12T10:08:12Z</time>
      </trkpt>
      <trkpt lat="49.3554" lon="1.04273">
        <ele>115</ele>
        <time>2017-03-12T10:08:16Z</time>
      </trkpt>
      <trkpt lat="49.35545" lon="1.04253">
        <ele>116</ele>
        <time>2017-03-12T10:08:19Z</time>
      </trkpt>
      <trkpt lat="49.35553" lon="1.04225">
        <ele>118</ele>
        <time>2017-03-12T10:08:24Z</time>
      </trkpt>
      <trkpt lat="49.3556" lon="1.04208">
        <ele>119</ele>
        <time>2017-03-12T10:08:28Z</time>
      </trkpt>
      <trkpt lat="49.35568" lon="1.04188">
        <ele>120</ele>
        <time>2017-03-12T10:08:32Z</time>
      </trkpt>
      <trkpt lat="49.35575" lon="1.04168">
        <ele>122</ele>
        <time>2017-03-12T10:08:37Z</time>
      </trkpt>
      <trkpt lat="49.3558" lon="1.04145">
        <ele>124</ele>
        <time>2017-03-12T10:08:41Z</time>
      </trkpt>
      <trkpt lat="49.35585" lon="1.04125">
        <ele>124</ele>
        <time>2017-03-12T10:08:45Z</time>
      </trkpt>
      <trkpt lat="49.3559" lon="1.04105">
        <ele>123</ele>
        <time>2017-03-12T10:08:49Z</time>
      </trkpt>
      <trkpt lat="49.35595" lon="1.04085">
        <ele>122</ele>
        <time>2017-03-12T10:08:53Z</time>
      </trkpt>
      <trkpt lat="49.356" lon="1.04065">
        <ele>123</ele>
        <time>2017-03-12T10:08:57Z</time>
      </trkpt>
      <trkpt lat="49.35605" lon="1.04045">
        <ele>124</ele>
        <time>2017-03-12T10:09:01Z</time>
      </trkpt>
      <trkpt lat="49.3561" lon="1.04025">
        <ele>124</ele>
        <time>2017-03-12T10:09:05Z</time>
      </trkpt>
      <trkpt lat="49.35605" lon="1.04005">
        <ele>121</ele>
        <time>2017-03-12T10:09:10Z</time>
      </trkpt>
      <trkpt lat="49.3559" lon="1.03995">
        <ele>120</ele>
        <time>2017-03-12T10:09:14Z</time>
      </trkpt>
      <trkpt lat="49.3557" lon="1.03978">
        <ele>122</ele>
        <time>2017-03-12T10:09:20Z</time>
      </trkpt>
      <trkpt lat="49.35558" lon="1.03968">
        <ele>123</ele>
        <time>2017-03-12T10:09:23Z</time>
      </trkpt>
      <trkpt lat="49.35545" lon="1.03955">
        <ele>124</ele>
        <time>2017-03-12T10:09:26Z</time>
      </trkpt>
      <trkpt lat="49.35533" lon="1.03945">
        <ele>125</ele>
        <time>2017-03-12T10:09:30Z</time>
      </trkpt>
      <trkpt lat="49.3552" lon="1.03935">
        <ele>126</ele>
        <time>2017-03-12T10:09:33Z</time>
      </trkpt>
      <trkpt lat="49.35503" lon="1.03925">
        <ele>128</ele>
        <time>2017-03-12T10:09:37Z</time>
      </trkpt>
      <trkpt lat="49.3549" lon="1.03915">
        <ele>128</ele>
        <time>2017-03-12T10:09:40Z</time>
      </trkpt>
      <trkpt lat="49.35475" lon="1.03903">
        <ele>129</ele>
        <time>2017-03-12T10:09:44Z</time>
      </trkpt>
      <trkpt lat="49.35463" lon="1.03893">
        <ele>130</ele>
        <time>2017-03-12T10:09:47Z</time>
      </trkpt>
      <trkpt lat="49.35445" lon="1.03885">
        <ele>131</ele>
        <time>2017-03-12T10:09:51Z</time>
      </trkpt>
      <trkpt lat="49.35435" lon="1.03868">
        <ele>131</ele>
        <time>2017-03-12T10:09:55Z</time>
      </trkpt>
      <trkpt lat="49.35443" lon="1.03843">
        <ele>130</ele>
        <time>2017-03-12T10:09:59Z</time>
      </trkpt>
      <trkpt lat="49.3545" lon="1.03813">
        <ele>128</ele>
        <time>2017-03-12T10:10:03Z</time>
      </trkpt>
      <trkpt lat="49.35455" lon="1.03785">
        <ele>126</ele>
        <time>2017-03-12T10:10:07Z</time>
      </trkpt>
      <trkpt lat="49.3546" lon="1.03765">
        <ele>125</ele>
        <time>2017-03-12T10:10:10Z</time>
      </trkpt>
      <trkpt lat="49.35465" lon="1.03745">
        <ele>125</ele>
        <time>2017-03-12T10:10:13Z</time>
      </trkpt>
      <trkpt lat="49.35473" lon="1.03715">
        <ele>123</ele>
        <time>2017-03-12T10:10:18Z</time>
      </trkpt>
      <trkpt lat="49.3548" lon="1.03698">
        <ele>122</ele>
        <time>2017-03-12T10:10:21Z</time>
      </trkpt>
      <trkpt lat="49.3549" lon="1.0367">
        <ele>123</ele>
        <time>2017-03-12T10:10:26Z</time>
      </trkpt>
      <trkpt lat="49.35483" lon="1.03648">
        <ele>124</ele>
        <time>2017-03-12T10:10:30Z</time>
      </trkpt>
      <trkpt lat="49.3547" lon="1.03628">
        <ele>124</ele>
        <time>2017-03-12T10:10:34Z</time>
      </trkpt>
      <trkpt lat="49.35453" lon="1.03618">
        <ele>124</ele>
        <time>2017-03-12T10:10:38Z</time>
      </trkpt>
      <trkpt lat="49.35438" lon="1.03608">
        <ele>124</ele>
        <time>2017-03-12T10:10:41Z</time>
      </trkpt>
      <trkpt lat="49.3542" lon="1.03593">
        <ele>123</ele>
        <time>2017-03-12T10:10:45Z</time>
      </trkpt>
      <trkpt lat="49.35408" lon="1.03583">
        <ele>123</ele>
        <time>2017-03-12T10:10:48Z</time>
      </trkpt>
      <trkpt lat="49.35393" lon="1.03573">
        <ele>124</ele>
        <time>2017-03-12T10:10:51Z</time>
      </trkpt>
      <trkpt lat="49.35378" lon="1.0356">
        <ele>123</ele>
        <time>2017-03-12T10:10:54Z</time>
      </trkpt>
      <trkpt lat="49.35363" lon="1.0355">
        <ele>123</ele>
        <time>2017-03-12T10:10:57Z</time>
      </trkpt>
      <trkpt lat="49.3535" lon="1.0354">
        <ele>123</ele>
        <time>2017-03-12T10:10:59Z</time>
      </trkpt>
      <trkpt lat="49.35335" lon="1.03528">
        <ele>124</ele>
        <time>2017-03-12T10:11:02Z</time>
      </trkpt>
      <trkpt lat="49.35323" lon="1.03518">
        <ele>125</ele>
        <time>2017-03-12T10:11:04Z</time>
      </trkpt>
      <trkpt lat="49.3531" lon="1.03508">
        <ele>124</ele>
        <time>2017-03-12T10:11:07Z</time>
      </trkpt>
      <trkpt lat="49.35295" lon="1.03495">
        <ele>125</ele>
        <time>2017-03-12T10:11:10Z</time>
      </trkpt>
      <trkpt lat="49.3528" lon="1.03483">
        <ele>128</ele>
        <time>2017-03-12T10:11:13Z</time>
      </trkpt>
      <trkpt lat="49.35263" lon="1.0347">
        <ele>128</ele>
        <time>2017-03-12T10:11:16Z</time>
      </trkpt>
      <trkpt lat="49.35245" lon="1.0346">
        <ele>127</ele>
        <time>2017-03-12T10:11:20Z</time>
      </trkpt>
      <trkpt lat="49.3523" lon="1.0345">
        <ele>125</ele>
        <time>2017-03-12T10:11:23Z</time>
      </trkpt>
      <trkpt lat="49.35213" lon="1.03438">
        <ele>123</ele>
        <time>2017-03-12T10:11:26Z</time>
      </trkpt>
      <trkpt lat="49.35195" lon="1.03438">
        <ele>123</ele>
        <time>2017-03-12T10:11:30Z</time>
      </trkpt>
      <trkpt lat="49.3518" lon="1.0344">
        <ele>124</ele>
        <time>2017-03-12T10:11:34Z</time>
      </trkpt>
      <trkpt lat="49.3517" lon="1.03455">
        <ele>124</ele>
        <time>2017-03-12T10:11:41Z</time>
      </trkpt>
      <trkpt lat="49.3517" lon="1.03493">
        <ele>127</ele>
        <time>2017-03-12T10:12:07Z</time>
      </trkpt>
      <trkpt lat="49.35178" lon="1.03513">
        <ele>125</ele>
        <time>2017-03-12T10:12:18Z</time>
      </trkpt>
      <trkpt lat="49.35188" lon="1.0353">
        <ele>126</ele>
        <time>2017-03-12T10:12:24Z</time>
      </trkpt>
      <trkpt lat="49.35195" lon="1.03548">
        <ele>126</ele>
        <time>2017-03-12T10:12:28Z</time>
      </trkpt>
      <trkpt lat="49.35203" lon="1.03565">
        <ele>126</ele>
        <time>2017-03-12T10:12:33Z</time>
      </trkpt>
      <trkpt lat="49.35193" lon="1.03583">
        <ele>127</ele>
        <time>2017-03-12T10:12:39Z</time>
      </trkpt>
      <trkpt lat="49.35185" lon="1.03605">
        <ele>128</ele>
        <time>2017-03-12T10:12:45Z</time>
      </trkpt>
      <trkpt lat="49.35193" lon="1.03625">
        <ele>127</ele>
        <time>2017-03-12T10:12:51Z</time>
      </trkpt>
      <trkpt lat="49.35193" lon="1.03648">
        <ele>128</ele>
        <time>2017-03-12T10:12:57Z</time>
      </trkpt>
      <trkpt lat="49.35185" lon="1.03668">
        <ele>129</ele>
        <time>2017-03-12T10:13:01Z</time>
      </trkpt>
      <trkpt lat="49.35175" lon="1.03695">
        <ele>127</ele>
        <time>2017-03-12T10:13:06Z</time>
      </trkpt>
      <trkpt lat="49.35168" lon="1.03718">
        <ele>126</ele>
        <time>2017-03-12T10:13:11Z</time>
      </trkpt>
      <trkpt lat="49.35163" lon="1.03738">
        <ele>124</ele>
        <time>2017-03-12T10:13:15Z</time>
      </trkpt>
      <trkpt lat="49.35155" lon="1.03758">
        <ele>123</ele>
        <time>2017-03-12T10:13:20Z</time>
      </trkpt>
      <trkpt lat="49.35148" lon="1.03775">
        <ele>123</ele>
        <time>2017-03-12T10:13:25Z</time>
      </trkpt>
      <trkpt lat="49.35145" lon="1.03803">
        <ele>121</ele>
        <time>2017-03-12T10:13:31Z</time>
      </trkpt>
      <trkpt lat="49.35135" lon="1.03818">
        <ele>121</ele>
        <time>2017-03-12T10:13:35Z</time>
      </trkpt>
      <trkpt lat="49.35125" lon="1.03835">
        <ele>121</ele>
        <time>2017-03-12T10:13:39Z</time>
      </trkpt>
      <trkpt lat="49.35113" lon="1.03848">
        <ele>123</ele>
        <time>2017-03-12T10:13:44Z</time>
      </trkpt>
      <trkpt lat="49.351" lon="1.03863">
        <ele>123</ele>
        <time>2017-03-12T10:13:48Z</time>
      </trkpt>
      <trkpt lat="49.35088" lon="1.03873">
        <ele>122</ele>
        <time>2017-03-12T10:13:52Z</time>
      </trkpt>
      <trkpt lat="49.35078" lon="1.03888">
        <ele>122</ele>
        <time>2017-03-12T10:13:56Z</time>
      </trkpt>
      <trkpt lat="49.3506" lon="1.03898">
        <ele>121</ele>
        <time>2017-03-12T10:14:01Z</time>
      </trkpt>
      <trkpt lat="49.35045" lon="1.03905">
        <ele>121</ele>
        <time>2017-03-12T10:14:04Z</time>
      </trkpt>
      <trkpt lat="49.35025" lon="1.03915">
        <ele>122</ele>
        <time>2017-03-12T10:14:08Z</time>
      </trkpt>
      <trkpt lat="49.3501" lon="1.0392">
        <ele>121</ele>
        <time>2017-03-12T10:14:11Z</time>
      </trkpt>
      <trkpt lat="49.34995" lon="1.03933">
        <ele>122</ele>
        <time>2017-03-12T10:14:15Z</time>
      </trkpt>
      <trkpt lat="49.3498" lon="1.0394">
        <ele>123</ele>
        <time>2017-03-12T10:14:19Z</time>
      </trkpt>
      <trkpt lat="49.34968" lon="1.0395">
        <ele>124</ele>
        <time>2017-03-12T10:14:23Z</time>
      </trkpt>
      <trkpt lat="49.34953" lon="1.03958">
        <ele>125</ele>
        <time>2017-03-12T10:14:27Z</time>
      </trkpt>
      <trkpt lat="49.3494" lon="1.03973">
        <ele>125</ele>
        <time>2017-03-12T10:14:31Z</time>
      </trkpt>
      <trkpt lat="49.34925" lon="1.0397">
        <ele>124</ele>
        <time>2017-03-12T10:14:37Z</time>
      </trkpt>
      <trkpt lat="49.34918" lon="1.03988">
        <ele>123</ele>
        <time>2017-03-12T10:14:41Z</time>
      </trkpt>
      <trkpt lat="49.34905" lon="1.04005">
        <ele>123</ele>
        <time>2017-03-12T10:14:46Z</time>
      </trkpt>
      <trkpt lat="49.3489" lon="1.0401">
        <ele>123</ele>
        <time>2017-03-12T10:14:51Z</time>
      </trkpt>
      <trkpt lat="49.34888" lon="1.03983">
        <ele>123</ele>
        <time>2017-03-12T10:15:00Z</time>
      </trkpt>
      <trkpt lat="49.34893" lon="1.03963">
        <ele>123</ele>
        <time>2017-03-12T10:15:03Z</time>
      </trkpt>
      <trkpt lat="49.34898" lon="1.0393">
        <ele>123</ele>
        <time>2017-03-12T10:15:07Z</time>
      </trkpt>
      <trkpt lat="49.349" lon="1.03898">
        <ele>123</ele>
        <time>2017-03-12T10:15:11Z</time>
      </trkpt>
      <trkpt lat="49.34905" lon="1.03873">
        <ele>123</ele>
        <time>2017-03-12T10:15:14Z</time>
      </trkpt>
      <trkpt lat="49.34908" lon="1.0385">
        <ele>124</ele>
        <time>2017-03-12T10:15:17Z</time>
      </trkpt>
      <trkpt lat="49.34913" lon="1.03793">
        <ele>126</ele>
        <time>2017-03-12T10:15:24Z</time>
      </trkpt>
      <trkpt lat="49.34913" lon="1.03765">
        <ele>126</ele>
        <time>2017-03-12T10:15:28Z</time>
      </trkpt>
      <trkpt lat="49.34915" lon="1.03733">
        <ele>128</ele>
        <time>2017-03-12T10:15:33Z</time>
      </trkpt>
      <trkpt lat="49.34918" lon="1.0371">
        <ele>129</ele>
        <time>2017-03-12T10:15:37Z</time>
      </trkpt>
      <trkpt lat="49.3492" lon="1.0368">
        <ele>129</ele>
        <time>2017-03-12T10:15:42Z</time>
      </trkpt>
      <trkpt lat="49.34925" lon="1.0361">
        <ele>129</ele>
        <time>2017-03-12T10:15:52Z</time>
      </trkpt>
      <trkpt lat="49.34925" lon="1.0358">
        <ele>129</ele>
        <time>2017-03-12T10:15:56Z</time>
      </trkpt>
      <trkpt lat="49.34925" lon="1.03548">
        <ele>130</ele>
        <time>2017-03-12T10:16:00Z</time>
      </trkpt>
      <trkpt lat="49.34928" lon="1.03525">
        <ele>131</ele>
        <time>2017-03-12T10:16:03Z</time>
      </trkpt>
      <trkpt lat="49.34928" lon="1.03493">
        <ele>130</ele>
        <time>2017-03-12T10:16:07Z</time>
      </trkpt>
      <trkpt lat="49.3493" lon="1.03458">
        <ele>130</ele>
        <time>2017-03-12T10:16:11Z</time>
      </trkpt>
      <trkpt lat="49.34933" lon="1.03415">
        <ele>129</ele>
        <time>2017-03-12T10:16:16Z</time>
      </trkpt>
      <trkpt lat="49.34935" lon="1.03388">
        <ele>129</ele>
        <time>2017-03-12T10:16:19Z</time>
      </trkpt>
      <trkpt lat="49.3494" lon="1.0335">
        <ele>129</ele>
        <time>2017-03-12T10:16:23Z</time>
      </trkpt>
      <trkpt lat="49.34943" lon="1.03313">
        <ele>129</ele>
        <time>2017-03-12T10:16:27Z</time>
      </trkpt>
      <trkpt lat="49.34948" lon="1.03288">
        <ele>129</ele>
        <time>2017-03-12T10:16:30Z</time>
      </trkpt>
      <trkpt lat="49.3496" lon="1.03238">
        <ele>128</ele>
        <time>2017-03-12T10:16:36Z</time>
      </trkpt>
      <trkpt lat="49.34965" lon="1.0321">
        <ele>128</ele>
        <time>2017-03-12T10:16:39Z</time>
      </trkpt>
      <trkpt lat="49.3497" lon="1.03183">
        <ele>129</ele>
        <time>2017-03-12T10:16:42Z</time>
      </trkpt>
      <trkpt lat="49.34975" lon="1.03158">
        <ele>129</ele>
        <time>2017-03-12T10:16:45Z</time>
      </trkpt>
      <trkpt lat="49.34983" lon="1.03135">
        <ele>129</ele>
        <time>2017-03-12T10:16:48Z</time>
      </trkpt>
      <trkpt lat="49.34965" lon="1.03145">
        <ele>128</ele>
        <time>2017-03-12T10:16:58Z</time>
      </trkpt>
      <trkpt lat="49.34958" lon="1.03168">
        <ele>128</ele>
        <time>2017-03-12T10:17:01Z</time>
      </trkpt>
      <trkpt lat="49.34943" lon="1.03213">
        <ele>127</ele>
        <time>2017-03-12T10:17:07Z</time>
      </trkpt>
      <trkpt lat="49.34925" lon="1.0327">
        <ele>127</ele>
        <time>2017-03-12T10:17:14Z</time>
      </trkpt>
      <trkpt lat="49.3491" lon="1.03313">
        <ele>126</ele>
        <time>2017-03-12T10:17:19Z</time>
      </trkpt>
      <trkpt lat="49.34895" lon="1.03358">
        <ele>126</ele>
        <time>2017-03-12T10:17:25Z</time>
      </trkpt>
      <trkpt lat="49.34878" lon="1.03415">
        <ele>127</ele>
        <time>2017-03-12T10:17:32Z</time>
      </trkpt>
      <trkpt lat="49.3487" lon="1.03438">
        <ele>127</ele>
        <time>2017-03-12T10:17:35Z</time>
      </trkpt>
      <trkpt lat="49.3486" lon="1.03463">
        <ele>126</ele>
        <time>2017-03-12T10:17:38Z</time>
      </trkpt>
      <trkpt lat="49.3484" lon="1.03503">
        <ele>126</ele>
        <time>2017-03-12T10:17:43Z</time>
      </trkpt>
      <trkpt lat="49.34825" lon="1.0353">
        <ele>127</ele>
        <time>2017-03-12T10:17:47Z</time>
      </trkpt>
      <trkpt lat="49.34815" lon="1.03553">
        <ele>127</ele>
        <time>2017-03-12T10:17:50Z</time>
      </trkpt>
      <trkpt lat="49.34803" lon="1.0357">
        <ele>127</ele>
        <time>2017-03-12T10:17:53Z</time>
      </trkpt>
      <trkpt lat="49.34788" lon="1.0359">
        <ele>128</ele>
        <time>2017-03-12T10:17:56Z</time>
      </trkpt>
      <trkpt lat="49.34775" lon="1.0361">
        <ele>127</ele>
        <time>2017-03-12T10:17:59Z</time>
      </trkpt>
      <trkpt lat="49.34763" lon="1.0363">
        <ele>127</ele>
        <time>2017-03-12T10:18:02Z</time>
      </trkpt>
      <trkpt lat="49.34753" lon="1.0365">
        <ele>126</ele>
        <time>2017-03-12T10:18:05Z</time>
      </trkpt>
      <trkpt lat="49.34738" lon="1.0367">
        <ele>125</ele>
        <time>2017-03-12T10:18:08Z</time>
      </trkpt>
      <trkpt lat="49.34718" lon="1.03693">
        <ele>125</ele>
        <time>2017-03-12T10:18:12Z</time>
      </trkpt>
      <trkpt lat="49.34703" lon="1.03705">
        <ele>124</ele>
        <time>2017-03-12T10:18:15Z</time>
      </trkpt>
      <trkpt lat="49.34685" lon="1.03708">
        <ele>123</ele>
        <time>2017-03-12T10:18:18Z</time>
      </trkpt>
      <trkpt lat="49.34668" lon="1.03703">
        <ele>123</ele>
        <time>2017-03-12T10:18:21Z</time>
      </trkpt>
      <trkpt lat="49.34645" lon="1.03695">
        <ele>123</ele>
        <time>2017-03-12T10:18:25Z</time>
      </trkpt>
      <trkpt lat="49.34575" lon="1.03665">
        <ele>123</ele>
        <time>2017-03-12T10:18:38Z</time>
      </trkpt>
      <trkpt lat="49.34558" lon="1.0366">
        <ele>124</ele>
        <time>2017-03-12T10:18:41Z</time>
      </trkpt>
      <trkpt lat="49.34535" lon="1.0365">
        <ele>125</ele>
        <time>2017-03-12T10:18:45Z</time>
      </trkpt>
      <trkpt lat="49.34495" lon="1.0363">
        <ele>128</ele>
        <time>2017-03-12T10:18:52Z</time>
      </trkpt>
      <trkpt lat="49.34475" lon="1.0362">
        <ele>128</ele>
        <time>2017-03-12T10:18:56Z</time>
      </trkpt>
      <trkpt lat="49.34458" lon="1.03613">
        <ele>130</ele>
        <time>2017-03-12T10:18:59Z</time>
      </trkpt>
      <trkpt lat="49.34435" lon="1.03603">
        <ele>131</ele>
        <time>2017-03-12T10:19:03Z</time>
      </trkpt>
      <trkpt lat="49.34413" lon="1.03593">
        <ele>132</ele>
        <time>2017-03-12T10:19:07Z</time>
      </trkpt>
      <trkpt lat="49.34398" lon="1.03585">
        <ele>133</ele>
        <time>2017-03-12T10:19:10Z</time>
      </trkpt>
      <trkpt lat="49.34383" lon="1.03578">
        <ele>135</ele>
        <time>2017-03-12T10:19:14Z</time>
      </trkpt>
      <trkpt lat="49.34368" lon="1.03575">
        <ele>135</ele>
        <time>2017-03-12T10:19:17Z</time>
      </trkpt>
      <trkpt lat="49.34353" lon="1.03568">
        <ele>135</ele>
        <time>2017-03-12T10:19:20Z</time>
      </trkpt>
      <trkpt lat="49.34335" lon="1.0356">
        <ele>134</ele>
        <time>2017-03-12T10:19:24Z</time>
      </trkpt>
      <trkpt lat="49.34313" lon="1.03553">
        <ele>130</ele>
        <time>2017-03-12T10:19:28Z</time>
      </trkpt>
      <trkpt lat="49.34298" lon="1.03548">
        <ele>130</ele>
        <time>2017-03-12T10:19:31Z</time>
      </trkpt>
      <trkpt lat="49.34258" lon="1.0353">
        <ele>132</ele>
        <time>2017-03-12T10:19:38Z</time>
      </trkpt>
      <trkpt lat="49.34243" lon="1.03523">
        <ele>133</ele>
        <time>2017-03-12T10:19:41Z</time>
      </trkpt>
      <trkpt lat="49.34223" lon="1.03515">
        <ele>134</ele>
        <time>2017-03-12T10:19:45Z</time>
      </trkpt>
      <trkpt lat="49.34195" lon="1.03503">
        <ele>135</ele>
        <time>2017-03-12T10:19:50Z</time>
      </trkpt>
      <trkpt lat="49.3418" lon="1.03495">
        <ele>136</ele>
        <time>2017-03-12T10:19:53Z</time>
      </trkpt>
      <trkpt lat="49.34165" lon="1.03488">
        <ele>137</ele>
        <time>2017-03-12T10:19:56Z</time>
      </trkpt>
      <trkpt lat="49.3415" lon="1.0348">
        <ele>136</ele>
        <time>2017-03-12T10:19:59Z</time>
      </trkpt>
      <trkpt lat="49.34135" lon="1.03475">
        <ele>137</ele>
        <time>2017-03-12T10:20:02Z</time>
      </trkpt>
      <trkpt lat="49.34118" lon="1.03468">
        <ele>137</ele>
        <time>2017-03-12T10:20:06Z</time>
      </trkpt>
      <trkpt lat="49.341" lon="1.0346">
        <ele>137</ele>
        <time>2017-03-12T10:20:09Z</time>
      </trkpt>
      <trkpt lat="49.34085" lon="1.03455">
        <ele>137</ele>
        <time>2017-03-12T10:20:12Z</time>
      </trkpt>
      <trkpt lat="49.34068" lon="1.03448">
        <ele>136</ele>
        <time>2017-03-12T10:20:15Z</time>
      </trkpt>
      <trkpt lat="49.34053" lon="1.03443">
        <ele>133</ele>
        <time>2017-03-12T10:20:18Z</time>
      </trkpt>
      <trkpt lat="49.3404" lon="1.03455">
        <ele>133</ele>
        <time>2017-03-12T10:20:24Z</time>
      </trkpt>
      <trkpt lat="49.34033" lon="1.03473">
        <ele>133</ele>
        <time>2017-03-12T10:20:28Z</time>
      </trkpt>
      <trkpt lat="49.34028" lon="1.03493">
        <ele>132</ele>
        <time>2017-03-12T10:20:31Z</time>
      </trkpt>
      <trkpt lat="49.34023" lon="1.03515">
        <ele>132</ele>
        <time>2017-03-12T10:20:35Z</time>
      </trkpt>
      <trkpt lat="49.3402" lon="1.0354">
        <ele>132</ele>
        <time>2017-03-12T10:20:38Z</time>
      </trkpt>
      <trkpt lat="49.34015" lon="1.03565">
        <ele>133</ele>
        <time>2017-03-12T10:20:41Z</time>
      </trkpt>
      <trkpt lat="49.34008" lon="1.03593">
        <ele>134</ele>
        <time>2017-03-12T10:20:45Z</time>
      </trkpt>
      <trkpt lat="49.34" lon="1.03615">
        <ele>134</ele>
        <time>2017-03-12T10:20:48Z</time>
      </trkpt>
      <trkpt lat="49.33998" lon="1.03638">
        <ele>131</ele>
        <time>2017-03-12T10:20:51Z</time>
      </trkpt>
      <trkpt lat="49.3399" lon="1.03663">
        <ele>132</ele>
        <time>2017-03-12T10:20:54Z</time>
      </trkpt>
      <trkpt lat="49.33988" lon="1.03688">
        <ele>131</ele>
        <time>2017-03-12T10:20:57Z</time>
      </trkpt>
      <trkpt lat="49.33983" lon="1.03715">
        <ele>131</ele>
        <time>2017-03-12T10:21:01Z</time>
      </trkpt>
      <trkpt lat="49.3398" lon="1.03743">
        <ele>130</ele>
        <time>2017-03-12T10:21:05Z</time>
      </trkpt>
      <trkpt lat="49.33975" lon="1.03765">
        <ele>129</ele>
        <time>2017-03-12T10:21:08Z</time>
      </trkpt>
      <trkpt lat="49.33968" lon="1.03785">
        <ele>130</ele>
        <time>2017-03-12T10:21:11Z</time>
      </trkpt>
      <trkpt lat="49.3395" lon="1.0379">
        <ele>132</ele>
        <time>2017-03-12T10:21:16Z</time>
      </trkpt>
      <trkpt lat="49.33935" lon="1.03783">
        <ele>131</ele>
        <time>2017-03-12T10:21:19Z</time>
      </trkpt>
      <trkpt lat="49.33918" lon="1.03768">
        <ele>129</ele>
        <time>2017-03-12T10:21:23Z</time>
      </trkpt>
      <trkpt lat="49.339" lon="1.03755">
        <ele>131</ele>
        <time>2017-03-12T10:21:26Z</time>
      </trkpt>
      <trkpt lat="49.33865" lon="1.0373">
        <ele>132</ele>
        <time>2017-03-12T10:21:33Z</time>
      </trkpt>
      <trkpt lat="49.33825" lon="1.03703">
        <ele>133</ele>
        <time>2017-03-12T10:21:40Z</time>
      </trkpt>
      <trkpt lat="49.33808" lon="1.0369">
        <ele>132</ele>
        <time>2017-03-12T10:21:44Z</time>
      </trkpt>
      <trkpt lat="49.3379" lon="1.03675">
        <ele>131</ele>
        <time>2017-03-12T10:21:48Z</time>
      </trkpt>
      <trkpt lat="49.33793" lon="1.03653">
        <ele>132</ele>
        <time>2017-03-12T10:21:52Z</time>
      </trkpt>
      <trkpt lat="49.338" lon="1.03603">
        <ele>130</ele>
        <time>2017-03-12T10:21:58Z</time>
      </trkpt>
      <trkpt lat="49.338" lon="1.03575">
        <ele>129</ele>
        <time>2017-03-12T10:22:01Z</time>
      </trkpt>
      <trkpt lat="49.338" lon="1.03548">
        <ele>129</ele>
        <time>2017-03-12T10:22:04Z</time>
      </trkpt>
      <trkpt lat="49.33798" lon="1.0352">
        <ele>127</ele>
        <time>2017-03-12T10:22:07Z</time>
      </trkpt>
      <trkpt lat="49.3379" lon="1.0346">
        <ele>126</ele>
        <time>2017-03-12T10:22:14Z</time>
      </trkpt>
      <trkpt lat="49.3379" lon="1.03433">
        <ele>125</ele>
        <time>2017-03-12T10:22:17Z</time>
      </trkpt>
      <trkpt lat="49.33793" lon="1.03405">
        <ele>126</ele>
        <time>2017-03-12T10:22:20Z</time>
      </trkpt>
      <trkpt lat="49.338" lon="1.0338">
        <ele>126</ele>
        <time>2017-03-12T10:22:23Z</time>
      </trkpt>
      <trkpt lat="49.33808" lon="1.03358">
        <ele>127</ele>
        <time>2017-03-12T10:22:26Z</time>
      </trkpt>
      <trkpt lat="49.33815" lon="1.03333">
        <ele>128</ele>
        <time>2017-03-12T10:22:29Z</time>
      </trkpt>
      <trkpt lat="49.33818" lon="1.03308">
        <ele>128</ele>
        <time>2017-03-12T10:22:32Z</time>
      </trkpt>
      <trkpt lat="49.3382" lon="1.03285">
        <ele>126</ele>
        <time>2017-03-12T10:22:35Z</time>
      </trkpt>
      <trkpt lat="49.3382" lon="1.03258">
        <ele>125</ele>
        <time>2017-03-12T10:22:38Z</time>
      </trkpt>
      <trkpt lat="49.33823" lon="1.03233">
        <ele>128</ele>
        <time>2017-03-12T10:22:41Z</time>
      </trkpt>
      <trkpt lat="49.33828" lon="1.0321">
        <ele>128</ele>
        <time>2017-03-12T10:22:44Z</time>
      </trkpt>
      <trkpt lat="49.33833" lon="1.03185">
        <ele>129</ele>
        <time>2017-03-12T10:22:47Z</time>
      </trkpt>
      <trkpt lat="49.3384" lon="1.0316">
        <ele>129</ele>
        <time>2017-03-12T10:22:50Z</time>
      </trkpt>
      <trkpt lat="49.33848" lon="1.03128">
        <ele>128</ele>
        <time>2017-03-12T10:22:54Z</time>
      </trkpt>
      <trkpt lat="49.33855" lon="1.03108">
        <ele>128</ele>
        <time>2017-03-12T10:22:57Z</time>
      </trkpt>
      <trkpt lat="49.3386" lon="1.03088">
        <ele>128</ele>
        <time>2017-03-12T10:23:00Z</time>
      </trkpt>
      <trkpt lat="49.33865" lon="1.03068">
        <ele>128</ele>
        <time>2017-03-12T10:23:04Z</time>
      </trkpt>
      <trkpt lat="49.3386" lon="1.03045">
        <ele>126</ele>
        <time>2017-03-12T10:23:09Z</time>
      </trkpt>
      <trkpt lat="49.3385" lon="1.0302">
        <ele>125</ele>
        <time>2017-03-12T10:23:14Z</time>
      </trkpt>
      <trkpt lat="49.33843" lon="1.03003">
        <ele>124</ele>
        <time>2017-03-12T10:23:18Z</time>
      </trkpt>
      <trkpt lat="49.33833" lon="1.02983">
        <ele>122</ele>
        <time>2017-03-12T10:23:23Z</time>
      </trkpt>
      <trkpt lat="49.33825" lon="1.02963">
        <ele>122</ele>
        <time>2017-03-12T10:23:27Z</time>
      </trkpt>
      <trkpt lat="49.33815" lon="1.02948">
        <ele>121</ele>
        <time>2017-03-12T10:23:30Z</time>
      </trkpt>
      <trkpt lat="49.33808" lon="1.0293">
        <ele>121</ele>
        <time>2017-03-12T10:23:33Z</time>
      </trkpt>
      <trkpt lat="49.33798" lon="1.0291">
        <ele>121</ele>
        <time>2017-03-12T10:23:36Z</time>
      </trkpt>
      <trkpt lat="49.33785" lon="1.0289">
        <ele>121</ele>
        <time>2017-03-12T10:23:39Z</time>
      </trkpt>
      <trkpt lat="49.33775" lon="1.0287">
        <ele>120</ele>
        <time>2017-03-12T10:23:42Z</time>
      </trkpt>
      <trkpt lat="49.33755" lon="1.02835">
        <ele>120</ele>
        <time>2017-03-12T10:23:47Z</time>
      </trkpt>
      <trkpt lat="49.33745" lon="1.02815">
        <ele>121</ele>
        <time>2017-03-12T10:23:50Z</time>
      </trkpt>
      <trkpt lat="49.3372" lon="1.02758">
        <ele>121</ele>
        <time>2017-03-12T10:23:58Z</time>
      </trkpt>
      <trkpt lat="49.33708" lon="1.02738">
        <ele>121</ele>
        <time>2017-03-12T10:24:01Z</time>
      </trkpt>
      <trkpt lat="49.3369" lon="1.02703">
        <ele>122</ele>
        <time>2017-03-12T10:24:06Z</time>
      </trkpt>
      <trkpt lat="49.3365" lon="1.02625">
        <ele>122</ele>
        <time>2017-03-12T10:24:17Z</time>
      </trkpt>
      <trkpt lat="49.33635" lon="1.02593">
        <ele>123</ele>
        <time>2017-03-12T10:24:21Z</time>
      </trkpt>
      <trkpt lat="49.33625" lon="1.02573">
        <ele>123</ele>
        <time>2017-03-12T10:24:24Z</time>
      </trkpt>
      <trkpt lat="49.33608" lon="1.02543">
        <ele>123</ele>
        <time>2017-03-12T10:24:28Z</time>
      </trkpt>
      <trkpt lat="49.33593" lon="1.02513">
        <ele>124</ele>
        <time>2017-03-12T10:24:32Z</time>
      </trkpt>
      <trkpt lat="49.33583" lon="1.02493">
        <ele>124</ele>
        <time>2017-03-12T10:24:35Z</time>
      </trkpt>
      <trkpt lat="49.3356" lon="1.02448">
        <ele>124</ele>
        <time>2017-03-12T10:24:41Z</time>
      </trkpt>
      <trkpt lat="49.3353" lon="1.02393">
        <ele>125</ele>
        <time>2017-03-12T10:24:49Z</time>
      </trkpt>
      <trkpt lat="49.3352" lon="1.02373">
        <ele>125</ele>
        <time>2017-03-12T10:24:52Z</time>
      </trkpt>
      <trkpt lat="49.3348" lon="1.02295">
        <ele>125</ele>
        <time>2017-03-12T10:25:03Z</time>
      </trkpt>
      <trkpt lat="49.33413" lon="1.02168">
        <ele>125</ele>
        <time>2017-03-12T10:25:21Z</time>
      </trkpt>
      <trkpt lat="49.33395" lon="1.02133">
        <ele>126</ele>
        <time>2017-03-12T10:25:26Z</time>
      </trkpt>
      <trkpt lat="49.3338" lon="1.02105">
        <ele>127</ele>
        <time>2017-03-12T10:25:30Z</time>
      </trkpt>
      <trkpt lat="49.33353" lon="1.02053">
        <ele>128</ele>
        <time>2017-03-12T10:25:38Z</time>
      </trkpt>
      <trkpt lat="49.3334" lon="1.0203">
        <ele>128</ele>
        <time>2017-03-12T10:25:42Z</time>
      </trkpt>
      <trkpt lat="49.33328" lon="1.02005">
        <ele>127</ele>
        <time>2017-03-12T10:25:46Z</time>
      </trkpt>
      <trkpt lat="49.33315" lon="1.01988">
        <ele>127</ele>
        <time>2017-03-12T10:25:49Z</time>
      </trkpt>
      <trkpt lat="49.33303" lon="1.0197">
        <ele>126</ele>
        <time>2017-03-12T10:25:53Z</time>
      </trkpt>
      <trkpt lat="49.3329" lon="1.0196">
        <ele>127</ele>
        <time>2017-03-12T10:25:56Z</time>
      </trkpt>
      <trkpt lat="49.33278" lon="1.01943">
        <ele>126</ele>
        <time>2017-03-12T10:25:59Z</time>
      </trkpt>
      <trkpt lat="49.33265" lon="1.01923">
        <ele>127</ele>
        <time>2017-03-12T10:26:02Z</time>
      </trkpt>
      <trkpt lat="49.33255" lon="1.01903">
        <ele>127</ele>
        <time>2017-03-12T10:26:05Z</time>
      </trkpt>
      <trkpt lat="49.33243" lon="1.01883">
        <ele>128</ele>
        <time>2017-03-12T10:26:08Z</time>
      </trkpt>
      <trkpt lat="49.33235" lon="1.0186">
        <ele>129</ele>
        <time>2017-03-12T10:26:11Z</time>
      </trkpt>
      <trkpt lat="49.33225" lon="1.01843">
        <ele>128</ele>
        <time>2017-03-12T10:26:14Z</time>
      </trkpt>
      <trkpt lat="49.33218" lon="1.01825">
        <ele>129</ele>
        <time>2017-03-12T10:26:17Z</time>
      </trkpt>
      <trkpt lat="49.33205" lon="1.01808">
        <ele>129</ele>
        <time>2017-03-12T10:26:20Z</time>
      </trkpt>
      <trkpt lat="49.33198" lon="1.01788">
        <ele>129</ele>
        <time>2017-03-12T10:26:23Z</time>
      </trkpt>
      <trkpt lat="49.3319" lon="1.01765">
        <ele>130</ele>
        <time>2017-03-12T10:26:27Z</time>
      </trkpt>
      <trkpt lat="49.3318" lon="1.01745">
        <ele>130</ele>
        <time>2017-03-12T10:26:30Z</time>
      </trkpt>
      <trkpt lat="49.3317" lon="1.01728">
        <ele>130</ele>
        <time>2017-03-12T10:26:33Z</time>
      </trkpt>
      <trkpt lat="49.33165" lon="1.017">
        <ele>129</ele>
        <time>2017-03-12T10:26:37Z</time>
      </trkpt>
      <trkpt lat="49.3316" lon="1.0168">
        <ele>128</ele>
        <time>2017-03-12T10:26:40Z</time>
      </trkpt>
      <trkpt lat="49.33158" lon="1.01653">
        <ele>129</ele>
        <time>2017-03-12T10:26:44Z</time>
      </trkpt>
      <trkpt lat="49.33148" lon="1.01635">
        <ele>128</ele>
        <time>2017-03-12T10:26:47Z</time>
      </trkpt>
      <trkpt lat="49.33143" lon="1.0161">
        <ele>128</ele>
        <time>2017-03-12T10:26:51Z</time>
      </trkpt>
      <trkpt lat="49.33153" lon="1.01588">
        <ele>129</ele>
        <time>2017-03-12T10:26:55Z</time>
      </trkpt>
      <trkpt lat="49.3316" lon="1.01568">
        <ele>131</ele>
        <time>2017-03-12T10:26:58Z</time>
      </trkpt>
      <trkpt lat="49.33168" lon="1.01548">
        <ele>131</ele>
        <time>2017-03-12T10:27:01Z</time>
      </trkpt>
      <trkpt lat="49.33178" lon="1.01528">
        <ele>132</ele>
        <time>2017-03-12T10:27:05Z</time>
      </trkpt>
      <trkpt lat="49.3319" lon="1.01515">
        <ele>133</ele>
        <time>2017-03-12T10:27:08Z</time>
      </trkpt>
      <trkpt lat="49.33203" lon="1.015">
        <ele>132</ele>
        <time>2017-03-12T10:27:11Z</time>
      </trkpt>
      <trkpt lat="49.33215" lon="1.01478">
        <ele>132</ele>
        <time>2017-03-12T10:27:15Z</time>
      </trkpt>
      <trkpt lat="49.33225" lon="1.01458">
        <ele>133</ele>
        <time>2017-03-12T10:27:18Z</time>
      </trkpt>
      <trkpt lat="49.3324" lon="1.01445">
        <ele>132</ele>
        <time>2017-03-12T10:27:21Z</time>
      </trkpt>
      <trkpt lat="49.33248" lon="1.01425">
        <ele>133</ele>
        <time>2017-03-12T10:27:24Z</time>
      </trkpt>
      <trkpt lat="49.3326" lon="1.01408">
        <ele>133</ele>
        <time>2017-03-12T10:27:27Z</time>
      </trkpt>
      <trkpt lat="49.33273" lon="1.0139">
        <ele>133</ele>
        <time>2017-03-12T10:27:31Z</time>
      </trkpt>
      <trkpt lat="49.3328" lon="1.01368">
        <ele>133</ele>
        <time>2017-03-12T10:27:35Z</time>
      </trkpt>
      <trkpt lat="49.33273" lon="1.01348">
        <ele>132</ele>
        <time>2017-03-12T10:27:38Z</time>
      </trkpt>
      <trkpt lat="49.33263" lon="1.01315">
        <ele>131</ele>
        <time>2017-03-12T10:27:42Z</time>
      </trkpt>
      <trkpt lat="49.33255" lon="1.01288">
        <ele>133</ele>
        <time>2017-03-12T10:27:45Z</time>
      </trkpt>
      <trkpt lat="49.33243" lon="1.01253">
        <ele>132</ele>
        <time>2017-03-12T10:27:49Z</time>
      </trkpt>
      <trkpt lat="49.33235" lon="1.01228">
        <ele>132</ele>
        <time>2017-03-12T10:27:52Z</time>
      </trkpt>
      <trkpt lat="49.33228" lon="1.01205">
        <ele>132</ele>
        <time>2017-03-12T10:27:55Z</time>
      </trkpt>
      <trkpt lat="49.3322" lon="1.01183">
        <ele>132</ele>
        <time>2017-03-12T10:27:58Z</time>
      </trkpt>
      <trkpt lat="49.3322" lon="1.0116">
        <ele>132</ele>
        <time>2017-03-12T10:28:02Z</time>
      </trkpt>
      <trkpt lat="49.33228" lon="1.0114">
        <ele>131</ele>
        <time>2017-03-12T10:28:06Z</time>
      </trkpt>
      <trkpt lat="49.3324" lon="1.01123">
        <ele>131</ele>
        <time>2017-03-12T10:28:09Z</time>
      </trkpt>
      <trkpt lat="49.33253" lon="1.01098">
        <ele>131</ele>
        <time>2017-03-12T10:28:13Z</time>
      </trkpt>
      <trkpt lat="49.33263" lon="1.0108">
        <ele>132</ele>
        <time>2017-03-12T10:28:16Z</time>
      </trkpt>
      <trkpt lat="49.3327" lon="1.0106">
        <ele>133</ele>
        <time>2017-03-12T10:28:19Z</time>
      </trkpt>
      <trkpt lat="49.3327" lon="1.01035">
        <ele>133</ele>
        <time>2017-03-12T10:28:22Z</time>
      </trkpt>
      <trkpt lat="49.3327" lon="1.0101">
        <ele>131</ele>
        <time>2017-03-12T10:28:27Z</time>
      </trkpt>
      <trkpt lat="49.33275" lon="1.00978">
        <ele>132</ele>
        <time>2017-03-12T10:28:32Z</time>
      </trkpt>
      <trkpt lat="49.33278" lon="1.00955">
        <ele>133</ele>
        <time>2017-03-12T10:28:35Z</time>
      </trkpt>
      <trkpt lat="49.33285" lon="1.0093">
        <ele>136</ele>
        <time>2017-03-12T10:28:38Z</time>
      </trkpt>
      <trkpt lat="49.33293" lon="1.00908">
        <ele>135</ele>
        <time>2017-03-12T10:28:42Z</time>
      </trkpt>
      <trkpt lat="49.33305" lon="1.0089">
        <ele>134</ele>
        <time>2017-03-12T10:28:45Z</time>
      </trkpt>
      <trkpt lat="49.3332" lon="1.00885">
        <ele>135</ele>
        <time>2017-03-12T10:28:50Z</time>
      </trkpt>
      <trkpt lat="49.33338" lon="1.00893">
        <ele>136</ele>
        <time>2017-03-12T10:28:54Z</time>
      </trkpt>
      <trkpt lat="49.3336" lon="1.00903">
        <ele>138</ele>
        <time>2017-03-12T10:28:59Z</time>
      </trkpt>
      <trkpt lat="49.33375" lon="1.00898">
        <ele>139</ele>
        <time>2017-03-12T10:29:02Z</time>
      </trkpt>
      <trkpt lat="49.3339" lon="1.00898">
        <ele>141</ele>
        <time>2017-03-12T10:29:05Z</time>
      </trkpt>
      <trkpt lat="49.33405" lon="1.0091">
        <ele>141</ele>
        <time>2017-03-12T10:29:09Z</time>
      </trkpt>
      <trkpt lat="49.33425" lon="1.0092">
        <ele>142</ele>
        <time>2017-03-12T10:29:12Z</time>
      </trkpt>
      <trkpt lat="49.33448" lon="1.00933">
        <ele>143</ele>
        <time>2017-03-12T10:29:16Z</time>
      </trkpt>
      <trkpt lat="49.3347" lon="1.00943">
        <ele>144</ele>
        <time>2017-03-12T10:29:20Z</time>
      </trkpt>
      <trkpt lat="49.33483" lon="1.00955">
        <ele>145</ele>
        <time>2017-03-12T10:29:23Z</time>
      </trkpt>
      <trkpt lat="49.33498" lon="1.00968">
        <ele>144</ele>
        <time>2017-03-12T10:29:26Z</time>
      </trkpt>
      <trkpt lat="49.33513" lon="1.00978">
        <ele>146</ele>
        <time>2017-03-12T10:29:29Z</time>
      </trkpt>
      <trkpt lat="49.3353" lon="1.00993">
        <ele>146</ele>
        <time>2017-03-12T10:29:33Z</time>
      </trkpt>
      <trkpt lat="49.33538" lon="1.0101">
        <ele>146</ele>
        <time>2017-03-12T10:29:37Z</time>
      </trkpt>
      <trkpt lat="49.33543" lon="1.01033">
        <ele>145</ele>
        <time>2017-03-12T10:29:43Z</time>
      </trkpt>
      <trkpt lat="49.3356" lon="1.01035">
        <ele>146</ele>
        <time>2017-03-12T10:29:51Z</time>
      </trkpt>
      <trkpt lat="49.33575" lon="1.01025">
        <ele>146</ele>
        <time>2017-03-12T10:29:56Z</time>
      </trkpt>
      <trkpt lat="49.33588" lon="1.01015">
        <ele>145</ele>
        <time>2017-03-12T10:29:59Z</time>
      </trkpt>
      <trkpt lat="49.33633" lon="1.00985">
        <ele>145</ele>
        <time>2017-03-12T10:30:10Z</time>
      </trkpt>
      <trkpt lat="49.33645" lon="1.0097">
        <ele>143</ele>
        <time>2017-03-12T10:30:14Z</time>
      </trkpt>
      <trkpt lat="49.33655" lon="1.00953">
        <ele>142</ele>
        <time>2017-03-12T10:30:19Z</time>
      </trkpt>
      <trkpt lat="49.3367" lon="1.0095">
        <ele>140</ele>
        <time>2017-03-12T10:30:25Z</time>
      </trkpt>
      <trkpt lat="49.33685" lon="1.0094">
        <ele>137</ele>
        <time>2017-03-12T10:30:34Z</time>
      </trkpt>
      <trkpt lat="49.33695" lon="1.00925">
        <ele>135</ele>
        <time>2017-03-12T10:30:43Z</time>
      </trkpt>
      <trkpt lat="49.33703" lon="1.00908">
        <ele>134</ele>
        <time>2017-03-12T10:30:51Z</time>
      </trkpt>
      <trkpt lat="49.33703" lon="1.00885">
        <ele>133</ele>
        <time>2017-03-12T10:30:54Z</time>
      </trkpt>
      <trkpt lat="49.337" lon="1.00858">
        <ele>133</ele>
        <time>2017-03-12T10:30:58Z</time>
      </trkpt>
      <trkpt lat="49.337" lon="1.0083">
        <ele>133</ele>
        <time>2017-03-12T10:31:01Z</time>
      </trkpt>
      <trkpt lat="49.337" lon="1.00795">
        <ele>133</ele>
        <time>2017-03-12T10:31:05Z</time>
      </trkpt>
      <trkpt lat="49.33703" lon="1.0077">
        <ele>133</ele>
        <time>2017-03-12T10:31:08Z</time>
      </trkpt>
      <trkpt lat="49.33708" lon="1.00738">
        <ele>134</ele>
        <time>2017-03-12T10:31:12Z</time>
      </trkpt>
      <trkpt lat="49.33713" lon="1.00705">
        <ele>134</ele>
        <time>2017-03-12T10:31:16Z</time>
      </trkpt>
      <trkpt lat="49.33715" lon="1.0068">
        <ele>133</ele>
        <time>2017-03-12T10:31:19Z</time>
      </trkpt>
      <trkpt lat="49.3372" lon="1.0066">
        <ele>133</ele>
        <time>2017-03-12T10:31:22Z</time>
      </trkpt>
      <trkpt lat="49.3372" lon="1.00633">
        <ele>134</ele>
        <time>2017-03-12T10:31:25Z</time>
      </trkpt>
      <trkpt lat="49.3372" lon="1.00608">
        <ele>135</ele>
        <time>2017-03-12T10:31:28Z</time>
      </trkpt>
      <trkpt lat="49.33723" lon="1.00583">
        <ele>136</ele>
        <time>2017-03-12T10:31:31Z</time>
      </trkpt>
      <trkpt lat="49.33723" lon="1.00555">
        <ele>137</ele>
        <time>2017-03-12T10:31:35Z</time>
      </trkpt>
      <trkpt lat="49.33728" lon="1.00528">
        <ele>136</ele>
        <time>2017-03-12T10:31:39Z</time>
      </trkpt>
      <trkpt lat="49.33725" lon="1.00503">
        <ele>137</ele>
        <time>2017-03-12T10:31:42Z</time>
      </trkpt>
      <trkpt lat="49.3372" lon="1.00463">
        <ele>136</ele>
        <time>2017-03-12T10:31:47Z</time>
      </trkpt>
      <trkpt lat="49.33715" lon="1.00443">
        <ele>136</ele>
        <time>2017-03-12T10:31:50Z</time>
      </trkpt>
      <trkpt lat="49.33708" lon="1.00423">
        <ele>135</ele>
        <time>2017-03-12T10:31:53Z</time>
      </trkpt>
      <trkpt lat="49.33698" lon="1.004">
        <ele>134</ele>
        <time>2017-03-12T10:31:56Z</time>
      </trkpt>
      <trkpt lat="49.33688" lon="1.00378">
        <ele>135</ele>
        <time>2017-03-12T10:31:59Z</time>
      </trkpt>
      <trkpt lat="49.33675" lon="1.00355">
        <ele>135</ele>
        <time>2017-03-12T10:32:02Z</time>
      </trkpt>
      <trkpt lat="49.33663" lon="1.00328">
        <ele>135</ele>
        <time>2017-03-12T10:32:06Z</time>
      </trkpt>
      <trkpt lat="49.3365" lon="1.003">
        <ele>135</ele>
        <time>2017-03-12T10:32:10Z</time>
      </trkpt>
      <trkpt lat="49.33645" lon="1.00275">
        <ele>135</ele>
        <time>2017-03-12T10:32:13Z</time>
      </trkpt>
      <trkpt lat="49.33648" lon="1.00248">
        <ele>136</ele>
        <time>2017-03-12T10:32:16Z</time>
      </trkpt>
      <trkpt lat="49.33653" lon="1.0022">
        <ele>136</ele>
        <time>2017-03-12T10:32:19Z</time>
      </trkpt>
      <trkpt lat="49.3366" lon="1.00198">
        <ele>136</ele>
        <time>2017-03-12T10:32:22Z</time>
      </trkpt>
      <trkpt lat="49.33668" lon="1.00175">
        <ele>136</ele>
        <time>2017-03-12T10:32:27Z</time>
      </trkpt>
      <trkpt lat="49.33678" lon="1.00145">
        <ele>137</ele>
        <time>2017-03-12T10:32:37Z</time>
      </trkpt>
      <trkpt lat="49.33685" lon="1.00125">
        <ele>138</ele>
        <time>2017-03-12T10:32:43Z</time>
      </trkpt>
      <trkpt lat="49.33693" lon="1.00108">
        <ele>140</ele>
        <time>2017-03-12T10:32:48Z</time>
      </trkpt>
      <trkpt lat="49.33698" lon="1.00085">
        <ele>140</ele>
        <time>2017-03-12T10:32:54Z</time>
      </trkpt>
      <trkpt lat="49.33703" lon="1.00063">
        <ele>139</ele>
        <time>2017-03-12T10:32:59Z</time>
      </trkpt>
      <trkpt lat="49.3371" lon="1.00035">
        <ele>138</ele>
        <time>2017-03-12T10:33:06Z</time>
      </trkpt>
      <trkpt lat="49.33713" lon="1.00013">
        <ele>137</ele>
        <time>2017-03-12T10:33:11Z</time>
      </trkpt>
      <trkpt lat="49.33713" lon="0.99988">
        <ele>138</ele>
        <time>2017-03-12T10:33:16Z</time>
      </trkpt>
      <trkpt lat="49.3371" lon="0.99965">
        <ele>137</ele>
        <time>2017-03-12T10:33:20Z</time>
      </trkpt>
      <trkpt lat="49.33703" lon="0.99945">
        <ele>137</ele>
        <time>2017-03-12T10:33:24Z</time>
      </trkpt>
      <trkpt lat="49.33695" lon="0.99925">
        <ele>137</ele>
        <time>2017-03-12T10:33:28Z</time>
      </trkpt>
      <trkpt lat="49.33685" lon="0.99908">
        <ele>137</ele>
        <time>2017-03-12T10:33:32Z</time>
      </trkpt>
      <trkpt lat="49.33675" lon="0.99893">
        <ele>137</ele>
        <time>2017-03-12T10:33:35Z</time>
      </trkpt>
      <trkpt lat="49.3366" lon="0.99875">
        <ele>138</ele>
        <time>2017-03-12T10:33:39Z</time>
      </trkpt>
      <trkpt lat="49.33648" lon="0.99863">
        <ele>138</ele>
        <time>2017-03-12T10:33:42Z</time>
      </trkpt>
      <trkpt lat="49.3362" lon="0.99835">
        <ele>137</ele>
        <time>2017-03-12T10:33:48Z</time>
      </trkpt>
      <trkpt lat="49.33608" lon="0.99818">
        <ele>138</ele>
        <time>2017-03-12T10:33:51Z</time>
      </trkpt>
      <trkpt lat="49.33593" lon="0.99803">
        <ele>137</ele>
        <time>2017-03-12T10:33:54Z</time>
      </trkpt>
      <trkpt lat="49.3358" lon="0.9979">
        <ele>136</ele>
        <time>2017-03-12T10:33:57Z</time>
      </trkpt>
      <trkpt lat="49.33565" lon="0.9978">
        <ele>136</ele>
        <time>2017-03-12T10:34:01Z</time>
      </trkpt>
      <trkpt lat="49.3355" lon="0.99768">
        <ele>135</ele>
        <time>2017-03-12T10:34:04Z</time>
      </trkpt>
      <trkpt lat="49.33525" lon="0.99745">
        <ele>134</ele>
        <time>2017-03-12T10:34:09Z</time>
      </trkpt>
      <trkpt lat="49.3351" lon="0.99728">
        <ele>135</ele>
        <time>2017-03-12T10:34:15Z</time>
      </trkpt>
      <trkpt lat="49.3349" lon="0.99723">
        <ele>137</ele>
        <time>2017-03-12T10:34:20Z</time>
      </trkpt>
      <trkpt lat="49.33475" lon="0.99723">
        <ele>138</ele>
        <time>2017-03-12T10:34:23Z</time>
      </trkpt>
      <trkpt lat="49.3346" lon="0.99725">
        <ele>139</ele>
        <time>2017-03-12T10:34:26Z</time>
      </trkpt>
      <trkpt lat="49.33435" lon="0.99723">
        <ele>138</ele>
        <time>2017-03-12T10:34:30Z</time>
      </trkpt>
      <trkpt lat="49.33418" lon="0.99725">
        <ele>138</ele>
        <time>2017-03-12T10:34:33Z</time>
      </trkpt>
      <trkpt lat="49.33398" lon="0.99725">
        <ele>137</ele>
        <time>2017-03-12T10:34:36Z</time>
      </trkpt>
      <trkpt lat="49.33378" lon="0.99725">
        <ele>137</ele>
        <time>2017-03-12T10:34:39Z</time>
      </trkpt>
      <trkpt lat="49.33358" lon="0.99725">
        <ele>136</ele>
        <time>2017-03-12T10:34:42Z</time>
      </trkpt>
      <trkpt lat="49.3333" lon="0.99725">
        <ele>136</ele>
        <time>2017-03-12T10:34:46Z</time>
      </trkpt>
      <trkpt lat="49.3331" lon="0.99728">
        <ele>136</ele>
        <time>2017-03-12T10:34:49Z</time>
      </trkpt>
      <trkpt lat="49.3329" lon="0.99733">
        <ele>136</ele>
        <time>2017-03-12T10:34:52Z</time>
      </trkpt>
      <trkpt lat="49.3327" lon="0.99748">
        <ele>133</ele>
        <time>2017-03-12T10:34:55Z</time>
      </trkpt>
      <trkpt lat="49.33265" lon="0.9977">
        <ele>129</ele>
        <time>2017-03-12T10:34:58Z</time>
      </trkpt>
      <trkpt lat="49.3327" lon="0.99793">
        <ele>129</ele>
        <time>2017-03-12T10:35:01Z</time>
      </trkpt>
      <trkpt lat="49.33263" lon="0.99813">
        <ele>129</ele>
        <time>2017-03-12T10:35:06Z</time>
      </trkpt>
      <trkpt lat="49.33248" lon="0.99813">
        <ele>128</ele>
        <time>2017-03-12T10:35:09Z</time>
      </trkpt>
      <trkpt lat="49.3323" lon="0.9981">
        <ele>127</ele>
        <time>2017-03-12T10:35:14Z</time>
      </trkpt>
      <trkpt lat="49.33215" lon="0.99818">
        <ele>126</ele>
        <time>2017-03-12T10:35:18Z</time>
      </trkpt>
      <trkpt lat="49.33198" lon="0.99828">
        <ele>124</ele>
        <time>2017-03-12T10:35:21Z</time>
      </trkpt>
      <trkpt lat="49.33178" lon="0.9984">
        <ele>121</ele>
        <time>2017-03-12T10:35:24Z</time>
      </trkpt>
      <trkpt lat="49.3315" lon="0.9985">
        <ele>114</ele>
        <time>2017-03-12T10:35:28Z</time>
      </trkpt>
      <trkpt lat="49.33138" lon="0.99863">
        <ele>112</ele>
        <time>2017-03-12T10:35:30Z</time>
      </trkpt>
      <trkpt lat="49.33125" lon="0.99873">
        <ele>113</ele>
        <time>2017-03-12T10:35:32Z</time>
      </trkpt>
      <trkpt lat="49.33113" lon="0.99883">
        <ele>114</ele>
        <time>2017-03-12T10:35:36Z</time>
      </trkpt>
      <trkpt lat="49.331" lon="0.99898">
        <ele>114</ele>
        <time>2017-03-12T10:35:42Z</time>
      </trkpt>
      <trkpt lat="49.3309" lon="0.99918">
        <ele>113</ele>
        <time>2017-03-12T10:35:46Z</time>
      </trkpt>
      <trkpt lat="49.33083" lon="0.99943">
        <ele>111</ele>
        <time>2017-03-12T10:35:51Z</time>
      </trkpt>
      <trkpt lat="49.33075" lon="0.9996">
        <ele>111</ele>
        <time>2017-03-12T10:35:54Z</time>
      </trkpt>
      <trkpt lat="49.33068" lon="0.99978">
        <ele>108</ele>
        <time>2017-03-12T10:35:57Z</time>
      </trkpt>
      <trkpt lat="49.33065" lon="1.00005">
        <ele>106</ele>
        <time>2017-03-12T10:36:00Z</time>
      </trkpt>
      <trkpt lat="49.33058" lon="1.00035">
        <ele>105</ele>
        <time>2017-03-12T10:36:03Z</time>
      </trkpt>
      <trkpt lat="49.33048" lon="1.00078">
        <ele>102</ele>
        <time>2017-03-12T10:36:08Z</time>
      </trkpt>
      <trkpt lat="49.33043" lon="1.00115">
        <ele>100</ele>
        <time>2017-03-12T10:36:12Z</time>
      </trkpt>
      <trkpt lat="49.3304" lon="1.00138">
        <ele>98</ele>
        <time>2017-03-12T10:36:15Z</time>
      </trkpt>
      <trkpt lat="49.3305" lon="1.0016">
        <ele>96</ele>
        <time>2017-03-12T10:36:20Z</time>
      </trkpt>
      <trkpt lat="49.33058" lon="1.0018">
        <ele>96</ele>
        <time>2017-03-12T10:36:24Z</time>
      </trkpt>
      <trkpt lat="49.33068" lon="1.00195">
        <ele>97</ele>
        <time>2017-03-12T10:36:28Z</time>
      </trkpt>
      <trkpt lat="49.33078" lon="1.00218">
        <ele>97</ele>
        <time>2017-03-12T10:36:31Z</time>
      </trkpt>
      <trkpt lat="49.33088" lon="1.0025">
        <ele>96</ele>
        <time>2017-03-12T10:36:35Z</time>
      </trkpt>
      <trkpt lat="49.33093" lon="1.0027">
        <ele>96</ele>
        <time>2017-03-12T10:36:38Z</time>
      </trkpt>
      <trkpt lat="49.3308" lon="1.00285">
        <ele>96</ele>
        <time>2017-03-12T10:36:45Z</time>
      </trkpt>
      <trkpt lat="49.33063" lon="1.0029">
        <ele>94</ele>
        <time>2017-03-12T10:36:50Z</time>
      </trkpt>
      <trkpt lat="49.33045" lon="1.003">
        <ele>94</ele>
        <time>2017-03-12T10:36:54Z</time>
      </trkpt>
      <trkpt lat="49.3303" lon="1.00305">
        <ele>94</ele>
        <time>2017-03-12T10:36:57Z</time>
      </trkpt>
      <trkpt lat="49.33008" lon="1.00305">
        <ele>91</ele>
        <time>2017-03-12T10:37:03Z</time>
      </trkpt>
      <trkpt lat="49.32988" lon="1.00305">
        <ele>92</ele>
        <time>2017-03-12T10:37:09Z</time>
      </trkpt>
      <trkpt lat="49.32973" lon="1.00313">
        <ele>91</ele>
        <time>2017-03-12T10:37:13Z</time>
      </trkpt>
      <trkpt lat="49.32965" lon="1.00333">
        <ele>90</ele>
        <time>2017-03-12T10:37:19Z</time>
      </trkpt>
      <trkpt lat="49.3295" lon="1.00338">
        <ele>85</ele>
        <time>2017-03-12T10:37:26Z</time>
      </trkpt>
      <trkpt lat="49.32935" lon="1.00325">
        <ele>81</ele>
        <time>2017-03-12T10:37:30Z</time>
      </trkpt>
      <trkpt lat="49.3292" lon="1.00315">
        <ele>80</ele>
        <time>2017-03-12T10:37:33Z</time>
      </trkpt>
      <trkpt lat="49.32895" lon="1.003">
        <ele>79</ele>
        <time>2017-03-12T10:37:37Z</time>
      </trkpt>
      <trkpt lat="49.32875" lon="1.00293">
        <ele>79</ele>
        <time>2017-03-12T10:37:40Z</time>
      </trkpt>
      <trkpt lat="49.3286" lon="1.00283">
        <ele>79</ele>
        <time>2017-03-12T10:37:43Z</time>
      </trkpt>
      <trkpt lat="49.32843" lon="1.00275">
        <ele>82</ele>
        <time>2017-03-12T10:37:50Z</time>
      </trkpt>
      <trkpt lat="49.32828" lon="1.00273">
        <ele>82</ele>
        <time>2017-03-12T10:37:55Z</time>
      </trkpt>
      <trkpt lat="49.32808" lon="1.00265">
        <ele>80</ele>
        <time>2017-03-12T10:38:00Z</time>
      </trkpt>
      <trkpt lat="49.32785" lon="1.00263">
        <ele>77</ele>
        <time>2017-03-12T10:38:03Z</time>
      </trkpt>
      <trkpt lat="49.32768" lon="1.00258">
        <ele>73</ele>
        <time>2017-03-12T10:38:06Z</time>
      </trkpt>
      <trkpt lat="49.3275" lon="1.00253">
        <ele>73</ele>
        <time>2017-03-12T10:38:10Z</time>
      </trkpt>
      <trkpt lat="49.32735" lon="1.00248">
        <ele>71</ele>
        <time>2017-03-12T10:38:13Z</time>
      </trkpt>
      <trkpt lat="49.32718" lon="1.0024">
        <ele>72</ele>
        <time>2017-03-12T10:38:18Z</time>
      </trkpt>
      <trkpt lat="49.32708" lon="1.00223">
        <ele>73</ele>
        <time>2017-03-12T10:38:24Z</time>
      </trkpt>
      <trkpt lat="49.32703" lon="1.00203">
        <ele>74</ele>
        <time>2017-03-12T10:38:33Z</time>
      </trkpt>
      <trkpt lat="49.32688" lon="1.00195">
        <ele>73</ele>
        <time>2017-03-12T10:38:39Z</time>
      </trkpt>
      <trkpt lat="49.32673" lon="1.002">
        <ele>72</ele>
        <time>2017-03-12T10:38:43Z</time>
      </trkpt>
      <trkpt lat="49.32655" lon="1.00198">
        <ele>70</ele>
        <time>2017-03-12T10:38:46Z</time>
      </trkpt>
      <trkpt lat="49.3264" lon="1.00208">
        <ele>68</ele>
        <time>2017-03-12T10:38:51Z</time>
      </trkpt>
      <trkpt lat="49.32623" lon="1.00203">
        <ele>67</ele>
        <time>2017-03-12T10:38:55Z</time>
      </trkpt>
      <trkpt lat="49.32605" lon="1.002">
        <ele>65</ele>
        <time>2017-03-12T10:39:00Z</time>
      </trkpt>
      <trkpt lat="49.3259" lon="1.00185">
        <ele>66</ele>
        <time>2017-03-12T10:39:06Z</time>
      </trkpt>
      <trkpt lat="49.3258" lon="1.00165">
        <ele>66</ele>
        <time>2017-03-12T10:39:09Z</time>
      </trkpt>
      <trkpt lat="49.32573" lon="1.00145">
        <ele>66</ele>
        <time>2017-03-12T10:39:12Z</time>
      </trkpt>
      <trkpt lat="49.32568" lon="1.00123">
        <ele>66</ele>
        <time>2017-03-12T10:39:15Z</time>
      </trkpt>
      <trkpt lat="49.32558" lon="1.001">
        <ele>65</ele>
        <time>2017-03-12T10:39:18Z</time>
      </trkpt>
      <trkpt lat="49.32543" lon="1.00073">
        <ele>64</ele>
        <time>2017-03-12T10:39:22Z</time>
      </trkpt>
      <trkpt lat="49.32535" lon="1.0005">
        <ele>64</ele>
        <time>2017-03-12T10:39:26Z</time>
      </trkpt>
      <trkpt lat="49.32528" lon="1.0003">
        <ele>61</ele>
        <time>2017-03-12T10:39:29Z</time>
      </trkpt>
      <trkpt lat="49.32523" lon="1.0001">
        <ele>62</ele>
        <time>2017-03-12T10:39:32Z</time>
      </trkpt>
      <trkpt lat="49.32518" lon="0.99988">
        <ele>59</ele>
        <time>2017-03-12T10:39:35Z</time>
      </trkpt>
      <trkpt lat="49.32515" lon="0.99965">
        <ele>59</ele>
        <time>2017-03-12T10:39:38Z</time>
      </trkpt>
      <trkpt lat="49.32508" lon="0.99943">
        <ele>59</ele>
        <time>2017-03-12T10:39:41Z</time>
      </trkpt>
      <trkpt lat="49.325" lon="0.99918">
        <ele>57</ele>
        <time>2017-03-12T10:39:45Z</time>
      </trkpt>
      <trkpt lat="49.32498" lon="0.99895">
        <ele>59</ele>
        <time>2017-03-12T10:39:48Z</time>
      </trkpt>
      <trkpt lat="49.32493" lon="0.99868">
        <ele>59</ele>
        <time>2017-03-12T10:39:52Z</time>
      </trkpt>
      <trkpt lat="49.3248" lon="0.99845">
        <ele>58</ele>
        <time>2017-03-12T10:39:55Z</time>
      </trkpt>
      <trkpt lat="49.3247" lon="0.9982">
        <ele>56</ele>
        <time>2017-03-12T10:39:58Z</time>
      </trkpt>
      <trkpt lat="49.32455" lon="0.9979">
        <ele>54</ele>
        <time>2017-03-12T10:40:01Z</time>
      </trkpt>
      <trkpt lat="49.32443" lon="0.99765">
        <ele>54</ele>
        <time>2017-03-12T10:40:04Z</time>
      </trkpt>
      <trkpt lat="49.32435" lon="0.9974">
        <ele>53</ele>
        <time>2017-03-12T10:40:07Z</time>
      </trkpt>
      <trkpt lat="49.32423" lon="0.99718">
        <ele>54</ele>
        <time>2017-03-12T10:40:10Z</time>
      </trkpt>
      <trkpt lat="49.32415" lon="0.99693">
        <ele>52</ele>
        <time>2017-03-12T10:40:13Z</time>
      </trkpt>
      <trkpt lat="49.32405" lon="0.9967">
        <ele>50</ele>
        <time>2017-03-12T10:40:16Z</time>
      </trkpt>
      <trkpt lat="49.3239" lon="0.99653">
        <ele>48</ele>
        <time>2017-03-12T10:40:19Z</time>
      </trkpt>
      <trkpt lat="49.3237" lon="0.99638">
        <ele>45</ele>
        <time>2017-03-12T10:40:22Z</time>
      </trkpt>
      <trkpt lat="49.32358" lon="0.99628">
        <ele>45</ele>
        <time>2017-03-12T10:40:26Z</time>
      </trkpt>
      <trkpt lat="49.32343" lon="0.9962">
        <ele>44</ele>
        <time>2017-03-12T10:40:29Z</time>
      </trkpt>
      <trkpt lat="49.32328" lon="0.9961">
        <ele>44</ele>
        <time>2017-03-12T10:40:34Z</time>
      </trkpt>
      <trkpt lat="49.32318" lon="0.99595">
        <ele>44</ele>
        <time>2017-03-12T10:40:39Z</time>
      </trkpt>
      <trkpt lat="49.3231" lon="0.99575">
        <ele>44</ele>
        <time>2017-03-12T10:40:45Z</time>
      </trkpt>
      <trkpt lat="49.32295" lon="0.9957">
        <ele>45</ele>
        <time>2017-03-12T10:40:49Z</time>
      </trkpt>
      <trkpt lat="49.32278" lon="0.99565">
        <ele>46</ele>
        <time>2017-03-12T10:40:53Z</time>
      </trkpt>
      <trkpt lat="49.32263" lon="0.99563">
        <ele>47</ele>
        <time>2017-03-12T10:40:58Z</time>
      </trkpt>
      <trkpt lat="49.32203" lon="0.99548">
        <ele>49</ele>
        <time>2017-03-12T10:41:07Z</time>
      </trkpt>
      <trkpt lat="49.32185" lon="0.9954">
        <ele>49</ele>
        <time>2017-03-12T10:41:10Z</time>
      </trkpt>
      <trkpt lat="49.3217" lon="0.99533">
        <ele>49</ele>
        <time>2017-03-12T10:41:14Z</time>
      </trkpt>
      <trkpt lat="49.32153" lon="0.9952">
        <ele>49</ele>
        <time>2017-03-12T10:41:18Z</time>
      </trkpt>
      <trkpt lat="49.32108" lon="0.99503">
        <ele>42</ele>
        <time>2017-03-12T10:41:21Z</time>
      </trkpt>
      <trkpt lat="49.3204" lon="0.9947">
        <ele>30</ele>
        <time>2017-03-12T10:41:26Z</time>
      </trkpt>
      <trkpt lat="49.31908" lon="0.994">
        <ele>20</ele>
        <time>2017-03-12T10:41:43Z</time>
      </trkpt>
      <trkpt lat="49.31908" lon="0.99375">
        <ele>20</ele>
        <time>2017-03-12T10:41:46Z</time>
      </trkpt>
      <trkpt lat="49.31903" lon="0.99353">
        <ele>20</ele>
        <time>2017-03-12T10:41:49Z</time>
      </trkpt>
      <trkpt lat="49.31888" lon="0.99333">
        <ele>19</ele>
        <time>2017-03-12T10:41:52Z</time>
      </trkpt>
      <trkpt lat="49.3187" lon="0.99325">
        <ele>19</ele>
        <time>2017-03-12T10:41:55Z</time>
      </trkpt>
      <trkpt lat="49.31853" lon="0.99333">
        <ele>18</ele>
        <time>2017-03-12T10:41:58Z</time>
      </trkpt>
      <trkpt lat="49.31838" lon="0.99345">
        <ele>18</ele>
        <time>2017-03-12T10:42:02Z</time>
      </trkpt>
      <trkpt lat="49.31828" lon="0.9937">
        <ele>17</ele>
        <time>2017-03-12T10:42:05Z</time>
      </trkpt>
      <trkpt lat="49.31813" lon="0.99385">
        <ele>18</ele>
        <time>2017-03-12T10:42:08Z</time>
      </trkpt>
      <trkpt lat="49.31793" lon="0.99393">
        <ele>18</ele>
        <time>2017-03-12T10:42:11Z</time>
      </trkpt>
      <trkpt lat="49.31775" lon="0.99403">
        <ele>18</ele>
        <time>2017-03-12T10:42:14Z</time>
      </trkpt>
      <trkpt lat="49.31758" lon="0.99415">
        <ele>18</ele>
        <time>2017-03-12T10:42:17Z</time>
      </trkpt>
      <trkpt lat="49.31735" lon="0.9943">
        <ele>18</ele>
        <time>2017-03-12T10:42:21Z</time>
      </trkpt>
      <trkpt lat="49.3172" lon="0.99445">
        <ele>18</ele>
        <time>2017-03-12T10:42:24Z</time>
      </trkpt>
      <trkpt lat="49.31698" lon="0.9946">
        <ele>16</ele>
        <time>2017-03-12T10:42:27Z</time>
      </trkpt>
      <trkpt lat="49.31675" lon="0.9947">
        <ele>12</ele>
        <time>2017-03-12T10:42:30Z</time>
      </trkpt>
      <trkpt lat="49.31655" lon="0.99478">
        <ele>12</ele>
        <time>2017-03-12T10:42:33Z</time>
      </trkpt>
      <trkpt lat="49.31638" lon="0.9948">
        <ele>11</ele>
        <time>2017-03-12T10:42:36Z</time>
      </trkpt>
      <trkpt lat="49.31613" lon="0.9948">
        <ele>12</ele>
        <time>2017-03-12T10:42:40Z</time>
      </trkpt>
      <trkpt lat="49.31593" lon="0.99488">
        <ele>12</ele>
        <time>2017-03-12T10:42:43Z</time>
      </trkpt>
      <trkpt lat="49.31575" lon="0.99498">
        <ele>12</ele>
        <time>2017-03-12T10:42:46Z</time>
      </trkpt>
      <trkpt lat="49.3155" lon="0.99508">
        <ele>11</ele>
        <time>2017-03-12T10:42:50Z</time>
      </trkpt>
      <trkpt lat="49.31535" lon="0.99513">
        <ele>11</ele>
        <time>2017-03-12T10:42:53Z</time>
      </trkpt>
      <trkpt lat="49.31518" lon="0.9952">
        <ele>11</ele>
        <time>2017-03-12T10:42:56Z</time>
      </trkpt>
      <trkpt lat="49.31495" lon="0.9953">
        <ele>10</ele>
        <time>2017-03-12T10:43:00Z</time>
      </trkpt>
      <trkpt lat="49.3148" lon="0.99533">
        <ele>10</ele>
        <time>2017-03-12T10:43:03Z</time>
      </trkpt>
      <trkpt lat="49.31463" lon="0.9954">
        <ele>10</ele>
        <time>2017-03-12T10:43:06Z</time>
      </trkpt>
      <trkpt lat="49.31445" lon="0.99548">
        <ele>10</ele>
        <time>2017-03-12T10:43:09Z</time>
      </trkpt>
      <trkpt lat="49.31413" lon="0.99555">
        <ele>10</ele>
        <time>2017-03-12T10:43:14Z</time>
      </trkpt>
      <trkpt lat="49.31395" lon="0.99565">
        <ele>10</ele>
        <time>2017-03-12T10:43:17Z</time>
      </trkpt>
      <trkpt lat="49.31378" lon="0.9957">
        <ele>11</ele>
        <time>2017-03-12T10:43:20Z</time>
      </trkpt>
      <trkpt lat="49.3134" lon="0.99578">
        <ele>10</ele>
        <time>2017-03-12T10:43:27Z</time>
      </trkpt>
      <trkpt lat="49.31323" lon="0.99585">
        <ele>9</ele>
        <time>2017-03-12T10:43:30Z</time>
      </trkpt>
      <trkpt lat="49.31305" lon="0.99593">
        <ele>9</ele>
        <time>2017-03-12T10:43:33Z</time>
      </trkpt>
      <trkpt lat="49.3129" lon="0.99603">
        <ele>8</ele>
        <time>2017-03-12T10:43:36Z</time>
      </trkpt>
      <trkpt lat="49.31268" lon="0.99613">
        <ele>8</ele>
        <time>2017-03-12T10:43:41Z</time>
      </trkpt>
      <trkpt lat="49.3125" lon="0.99615">
        <ele>8</ele>
        <time>2017-03-12T10:43:44Z</time>
      </trkpt>
      <trkpt lat="49.31235" lon="0.99623">
        <ele>8</ele>
        <time>2017-03-12T10:43:48Z</time>
      </trkpt>
      <trkpt lat="49.31228" lon="0.9964">
        <ele>7</ele>
        <time>2017-03-12T10:43:51Z</time>
      </trkpt>
      <trkpt lat="49.31213" lon="0.99655">
        <ele>8</ele>
        <time>2017-03-12T10:43:54Z</time>
      </trkpt>
      <trkpt lat="49.312" lon="0.99673">
        <ele>8</ele>
        <time>2017-03-12T10:43:57Z</time>
      </trkpt>
      <trkpt lat="49.31185" lon="0.9969">
        <ele>8</ele>
        <time>2017-03-12T10:44:00Z</time>
      </trkpt>
      <trkpt lat="49.31165" lon="0.99708">
        <ele>10</ele>
        <time>2017-03-12T10:44:04Z</time>
      </trkpt>
      <trkpt lat="49.3115" lon="0.99723">
        <ele>11</ele>
        <time>2017-03-12T10:44:07Z</time>
      </trkpt>
      <trkpt lat="49.31138" lon="0.99738">
        <ele>12</ele>
        <time>2017-03-12T10:44:10Z</time>
      </trkpt>
      <trkpt lat="49.31118" lon="0.9976">
        <ele>14</ele>
        <time>2017-03-12T10:44:15Z</time>
      </trkpt>
      <trkpt lat="49.31108" lon="0.99775">
        <ele>14</ele>
        <time>2017-03-12T10:44:18Z</time>
      </trkpt>
      <trkpt lat="49.3106" lon="0.9984">
        <ele>15</ele>
        <time>2017-03-12T10:44:35Z</time>
      </trkpt>
      <trkpt lat="49.31033" lon="0.99878">
        <ele>16</ele>
        <time>2017-03-12T10:44:43Z</time>
      </trkpt>
      <trkpt lat="49.31015" lon="0.999">
        <ele>17</ele>
        <time>2017-03-12T10:44:48Z</time>
      </trkpt>
      <trkpt lat="49.30998" lon="0.99928">
        <ele>18</ele>
        <time>2017-03-12T10:44:53Z</time>
      </trkpt>
      <trkpt lat="49.30978" lon="0.9996">
        <ele>18</ele>
        <time>2017-03-12T10:44:59Z</time>
      </trkpt>
      <trkpt lat="49.30958" lon="0.9999">
        <ele>17</ele>
        <time>2017-03-12T10:45:05Z</time>
      </trkpt>
      <trkpt lat="49.3094" lon="1.00015">
        <ele>17</ele>
        <time>2017-03-12T10:45:10Z</time>
      </trkpt>
      <trkpt lat="49.30923" lon="1.00045">
        <ele>18</ele>
        <time>2017-03-12T10:45:16Z</time>
      </trkpt>
      <trkpt lat="49.30915" lon="1.00065">
        <ele>18</ele>
        <time>2017-03-12T10:45:19Z</time>
      </trkpt>
      <trkpt lat="49.30905" lon="1.00085">
        <ele>18</ele>
        <time>2017-03-12T10:45:22Z</time>
      </trkpt>
      <trkpt lat="49.30893" lon="1.00108">
        <ele>17</ele>
        <time>2017-03-12T10:45:25Z</time>
      </trkpt>
      <trkpt lat="49.30883" lon="1.00125">
        <ele>17</ele>
        <time>2017-03-12T10:45:28Z</time>
      </trkpt>
      <trkpt lat="49.3087" lon="1.00145">
        <ele>17</ele>
        <time>2017-03-12T10:45:31Z</time>
      </trkpt>
      <trkpt lat="49.30855" lon="1.00173">
        <ele>16</ele>
        <time>2017-03-12T10:45:35Z</time>
      </trkpt>
      <trkpt lat="49.30828" lon="1.00228">
        <ele>13</ele>
        <time>2017-03-12T10:45:41Z</time>
      </trkpt>
      <trkpt lat="49.30815" lon="1.00245">
        <ele>12</ele>
        <time>2017-03-12T10:45:43Z</time>
      </trkpt>
      <trkpt lat="49.30805" lon="1.00263">
        <ele>11</ele>
        <time>2017-03-12T10:45:45Z</time>
      </trkpt>
      <trkpt lat="49.3081" lon="1.00288">
        <ele>10</ele>
        <time>2017-03-12T10:45:48Z</time>
      </trkpt>
      <trkpt lat="49.30828" lon="1.00298">
        <ele>9</ele>
        <time>2017-03-12T10:45:51Z</time>
      </trkpt>
      <trkpt lat="49.30845" lon="1.0031">
        <ele>8</ele>
        <time>2017-03-12T10:45:54Z</time>
      </trkpt>
      <trkpt lat="49.3086" lon="1.00325">
        <ele>8</ele>
        <time>2017-03-12T10:45:57Z</time>
      </trkpt>
      <trkpt lat="49.30875" lon="1.0034">
        <ele>9</ele>
        <time>2017-03-12T10:46:00Z</time>
      </trkpt>
      <trkpt lat="49.3089" lon="1.00355">
        <ele>10</ele>
        <time>2017-03-12T10:46:03Z</time>
      </trkpt>
      <trkpt lat="49.30905" lon="1.00368">
        <ele>9</ele>
        <time>2017-03-12T10:46:06Z</time>
      </trkpt>
      <trkpt lat="49.30953" lon="1.00413">
        <ele>11</ele>
        <time>2017-03-12T10:46:15Z</time>
      </trkpt>
      <trkpt lat="49.30968" lon="1.00425">
        <ele>11</ele>
        <time>2017-03-12T10:46:18Z</time>
      </trkpt>
      <trkpt lat="49.30985" lon="1.0044">
        <ele>12</ele>
        <time>2017-03-12T10:46:21Z</time>
      </trkpt>
      <trkpt lat="49.31" lon="1.00453">
        <ele>11</ele>
        <time>2017-03-12T10:46:24Z</time>
      </trkpt>
      <trkpt lat="49.31015" lon="1.0047">
        <ele>10</ele>
        <time>2017-03-12T10:46:27Z</time>
      </trkpt>
      <trkpt lat="49.31035" lon="1.00493">
        <ele>10</ele>
        <time>2017-03-12T10:46:31Z</time>
      </trkpt>
      <trkpt lat="49.31048" lon="1.00513">
        <ele>10</ele>
        <time>2017-03-12T10:46:34Z</time>
      </trkpt>
      <trkpt lat="49.3106" lon="1.00533">
        <ele>10</ele>
        <time>2017-03-12T10:46:37Z</time>
      </trkpt>
      <trkpt lat="49.31078" lon="1.0056">
        <ele>10</ele>
        <time>2017-03-12T10:46:41Z</time>
      </trkpt>
      <trkpt lat="49.311" lon="1.0059">
        <ele>9</ele>
        <time>2017-03-12T10:46:46Z</time>
      </trkpt>
      <trkpt lat="49.31113" lon="1.0061">
        <ele>9</ele>
        <time>2017-03-12T10:46:49Z</time>
      </trkpt>
      <trkpt lat="49.31128" lon="1.0063">
        <ele>9</ele>
        <time>2017-03-12T10:46:52Z</time>
      </trkpt>
      <trkpt lat="49.31155" lon="1.00668">
        <ele>8</ele>
        <time>2017-03-12T10:46:58Z</time>
      </trkpt>
      <trkpt lat="49.31173" lon="1.00693">
        <ele>8</ele>
        <time>2017-03-12T10:47:02Z</time>
      </trkpt>
      <trkpt lat="49.31198" lon="1.00733">
        <ele>8</ele>
        <time>2017-03-12T10:47:08Z</time>
      </trkpt>
      <trkpt lat="49.31208" lon="1.00753">
        <ele>7</ele>
        <time>2017-03-12T10:47:11Z</time>
      </trkpt>
      <trkpt lat="49.31223" lon="1.00783">
        <ele>7</ele>
        <time>2017-03-12T10:47:15Z</time>
      </trkpt>
      <trkpt lat="49.3125" lon="1.00835">
        <ele>8</ele>
        <time>2017-03-12T10:47:22Z</time>
      </trkpt>
      <trkpt lat="49.31275" lon="1.00885">
        <ele>7</ele>
        <time>2017-03-12T10:47:29Z</time>
      </trkpt>
      <trkpt lat="49.31313" lon="1.0096">
        <ele>7</ele>
        <time>2017-03-12T10:47:39Z</time>
      </trkpt>
      <trkpt lat="49.31325" lon="1.0098">
        <ele>7</ele>
        <time>2017-03-12T10:47:42Z</time>
      </trkpt>
      <trkpt lat="49.31335" lon="1.01003">
        <ele>8</ele>
        <time>2017-03-12T10:47:45Z</time>
      </trkpt>
      <trkpt lat="49.31348" lon="1.01035">
        <ele>7</ele>
        <time>2017-03-12T10:47:49Z</time>
      </trkpt>
      <trkpt lat="49.3136" lon="1.01053">
        <ele>8</ele>
        <time>2017-03-12T10:47:52Z</time>
      </trkpt>
      <trkpt lat="49.31373" lon="1.01075">
        <ele>8</ele>
        <time>2017-03-12T10:47:55Z</time>
      </trkpt>
      <trkpt lat="49.31383" lon="1.01098">
        <ele>9</ele>
        <time>2017-03-12T10:47:58Z</time>
      </trkpt>
      <trkpt lat="49.31423" lon="1.01195">
        <ele>9</ele>
        <time>2017-03-12T10:48:10Z</time>
      </trkpt>
      <trkpt lat="49.31433" lon="1.0122">
        <ele>9</ele>
        <time>2017-03-12T10:48:13Z</time>
      </trkpt>
      <trkpt lat="49.3144" lon="1.01245">
        <ele>8</ele>
        <time>2017-03-12T10:48:16Z</time>
      </trkpt>
      <trkpt lat="49.31448" lon="1.01273">
        <ele>9</ele>
        <time>2017-03-12T10:48:19Z</time>
      </trkpt>
      <trkpt lat="49.31473" lon="1.01368">
        <ele>9</ele>
        <time>2017-03-12T10:48:30Z</time>
      </trkpt>
      <trkpt lat="49.3148" lon="1.01393">
        <ele>8</ele>
        <time>2017-03-12T10:48:33Z</time>
      </trkpt>
      <trkpt lat="49.3149" lon="1.01418">
        <ele>8</ele>
        <time>2017-03-12T10:48:36Z</time>
      </trkpt>
      <trkpt lat="49.315" lon="1.01443">
        <ele>8</ele>
        <time>2017-03-12T10:48:39Z</time>
      </trkpt>
      <trkpt lat="49.3151" lon="1.01463">
        <ele>8</ele>
        <time>2017-03-12T10:48:42Z</time>
      </trkpt>
      <trkpt lat="49.3153" lon="1.01508">
        <ele>7</ele>
        <time>2017-03-12T10:48:48Z</time>
      </trkpt>
      <trkpt lat="49.31598" lon="1.01668">
        <ele>7</ele>
        <time>2017-03-12T10:49:08Z</time>
      </trkpt>
      <trkpt lat="49.31605" lon="1.01693">
        <ele>8</ele>
        <time>2017-03-12T10:49:11Z</time>
      </trkpt>
      <trkpt lat="49.31603" lon="1.01723">
        <ele>8</ele>
        <time>2017-03-12T10:49:16Z</time>
      </trkpt>
      <trkpt lat="49.3161" lon="1.01745">
        <ele>8</ele>
        <time>2017-03-12T10:49:19Z</time>
      </trkpt>
      <trkpt lat="49.31618" lon="1.01768">
        <ele>7</ele>
        <time>2017-03-12T10:49:22Z</time>
      </trkpt>
      <trkpt lat="49.31633" lon="1.01813">
        <ele>7</ele>
        <time>2017-03-12T10:49:28Z</time>
      </trkpt>
      <trkpt lat="49.31638" lon="1.01838">
        <ele>7</ele>
        <time>2017-03-12T10:49:31Z</time>
      </trkpt>
      <trkpt lat="49.31643" lon="1.0186">
        <ele>8</ele>
        <time>2017-03-12T10:49:34Z</time>
      </trkpt>
      <trkpt lat="49.3165" lon="1.0188">
        <ele>8</ele>
        <time>2017-03-12T10:49:37Z</time>
      </trkpt>
      <trkpt lat="49.31658" lon="1.01903">
        <ele>8</ele>
        <time>2017-03-12T10:49:41Z</time>
      </trkpt>
      <trkpt lat="49.31663" lon="1.01925">
        <ele>8</ele>
        <time>2017-03-12T10:49:44Z</time>
      </trkpt>
      <trkpt lat="49.31668" lon="1.01945">
        <ele>8</ele>
        <time>2017-03-12T10:49:47Z</time>
      </trkpt>
      <trkpt lat="49.31675" lon="1.01968">
        <ele>9</ele>
        <time>2017-03-12T10:49:51Z</time>
      </trkpt>
      <trkpt lat="49.31685" lon="1.01995">
        <ele>8</ele>
        <time>2017-03-12T10:49:55Z</time>
      </trkpt>
      <trkpt lat="49.31693" lon="1.02023">
        <ele>9</ele>
        <time>2017-03-12T10:49:59Z</time>
      </trkpt>
      <trkpt lat="49.31703" lon="1.0204">
        <ele>8</ele>
        <time>2017-03-12T10:50:02Z</time>
      </trkpt>
      <trkpt lat="49.31715" lon="1.02063">
        <ele>7</ele>
        <time>2017-03-12T10:50:06Z</time>
      </trkpt>
      <trkpt lat="49.31733" lon="1.021">
        <ele>7</ele>
        <time>2017-03-12T10:50:11Z</time>
      </trkpt>
      <trkpt lat="49.31745" lon="1.0213">
        <ele>7</ele>
        <time>2017-03-12T10:50:15Z</time>
      </trkpt>
      <trkpt lat="49.31758" lon="1.02163">
        <ele>7</ele>
        <time>2017-03-12T10:50:19Z</time>
      </trkpt>
      <trkpt lat="49.31768" lon="1.02183">
        <ele>7</ele>
        <time>2017-03-12T10:50:22Z</time>
      </trkpt>
      <trkpt lat="49.31803" lon="1.0226">
        <ele>7</ele>
        <time>2017-03-12T10:50:34Z</time>
      </trkpt>
      <trkpt lat="49.31823" lon="1.02305">
        <ele>7</ele>
        <time>2017-03-12T10:50:40Z</time>
      </trkpt>
      <trkpt lat="49.31833" lon="1.02328">
        <ele>6</ele>
        <time>2017-03-12T10:50:43Z</time>
      </trkpt>
      <trkpt lat="49.3185" lon="1.02373">
        <ele>7</ele>
        <time>2017-03-12T10:50:49Z</time>
      </trkpt>
      <trkpt lat="49.3187" lon="1.02425">
        <ele>6</ele>
        <time>2017-03-12T10:50:56Z</time>
      </trkpt>
      <trkpt lat="49.3188" lon="1.02445">
        <ele>6</ele>
        <time>2017-03-12T10:50:59Z</time>
      </trkpt>
      <trkpt lat="49.31893" lon="1.02475">
        <ele>6</ele>
        <time>2017-03-12T10:51:03Z</time>
      </trkpt>
      <trkpt lat="49.319" lon="1.02498">
        <ele>6</ele>
        <time>2017-03-12T10:51:06Z</time>
      </trkpt>
      <trkpt lat="49.31908" lon="1.02518">
        <ele>6</ele>
        <time>2017-03-12T10:51:09Z</time>
      </trkpt>
      <trkpt lat="49.31923" lon="1.02565">
        <ele>7</ele>
        <time>2017-03-12T10:51:17Z</time>
      </trkpt>
      <trkpt lat="49.31928" lon="1.02585">
        <ele>7</ele>
        <time>2017-03-12T10:51:20Z</time>
      </trkpt>
      <trkpt lat="49.31935" lon="1.02605">
        <ele>7</ele>
        <time>2017-03-12T10:51:23Z</time>
      </trkpt>
      <trkpt lat="49.31948" lon="1.0264">
        <ele>7</ele>
        <time>2017-03-12T10:51:29Z</time>
      </trkpt>
      <trkpt lat="49.31958" lon="1.02658">
        <ele>6</ele>
        <time>2017-03-12T10:51:33Z</time>
      </trkpt>
      <trkpt lat="49.31965" lon="1.02678">
        <ele>7</ele>
        <time>2017-03-12T10:51:37Z</time>
      </trkpt>
      <trkpt lat="49.31973" lon="1.02695">
        <ele>7</ele>
        <time>2017-03-12T10:51:41Z</time>
      </trkpt>
      <trkpt lat="49.31988" lon="1.02693">
        <ele>8</ele>
        <time>2017-03-12T10:51:47Z</time>
      </trkpt>
      <trkpt lat="49.32003" lon="1.02698">
        <ele>7</ele>
        <time>2017-03-12T10:51:53Z</time>
      </trkpt>
      <trkpt lat="49.3201" lon="1.0272">
        <ele>7</ele>
        <time>2017-03-12T10:51:56Z</time>
      </trkpt>
      <trkpt lat="49.32018" lon="1.02748">
        <ele>7</ele>
        <time>2017-03-12T10:51:59Z</time>
      </trkpt>
      <trkpt lat="49.32023" lon="1.02773">
        <ele>7</ele>
        <time>2017-03-12T10:52:02Z</time>
      </trkpt>
      <trkpt lat="49.3203" lon="1.028">
        <ele>8</ele>
        <time>2017-03-12T10:52:05Z</time>
      </trkpt>
      <trkpt lat="49.32055" lon="1.02885">
        <ele>8</ele>
        <time>2017-03-12T10:52:15Z</time>
      </trkpt>
      <trkpt lat="49.3206" lon="1.02913">
        <ele>8</ele>
        <time>2017-03-12T10:52:18Z</time>
      </trkpt>
      <trkpt lat="49.32075" lon="1.03003">
        <ele>7</ele>
        <time>2017-03-12T10:52:28Z</time>
      </trkpt>
      <trkpt lat="49.3208" lon="1.03028">
        <ele>6</ele>
        <time>2017-03-12T10:52:31Z</time>
      </trkpt>
      <trkpt lat="49.32083" lon="1.03063">
        <ele>6</ele>
        <time>2017-03-12T10:52:35Z</time>
      </trkpt>
      <trkpt lat="49.32083" lon="1.0309">
        <ele>7</ele>
        <time>2017-03-12T10:52:38Z</time>
      </trkpt>
      <trkpt lat="49.32083" lon="1.03115">
        <ele>6</ele>
        <time>2017-03-12T10:52:41Z</time>
      </trkpt>
      <trkpt lat="49.3208" lon="1.0315">
        <ele>5</ele>
        <time>2017-03-12T10:52:45Z</time>
      </trkpt>
      <trkpt lat="49.3208" lon="1.03178">
        <ele>5</ele>
        <time>2017-03-12T10:52:48Z</time>
      </trkpt>
      <trkpt lat="49.3208" lon="1.03205">
        <ele>6</ele>
        <time>2017-03-12T10:52:51Z</time>
      </trkpt>
      <trkpt lat="49.3207" lon="1.03228">
        <ele>7</ele>
        <time>2017-03-12T10:52:54Z</time>
      </trkpt>
      <trkpt lat="49.32055" lon="1.03235">
        <ele>7</ele>
        <time>2017-03-12T10:52:57Z</time>
      </trkpt>
      <trkpt lat="49.3203" lon="1.03243">
        <ele>8</ele>
        <time>2017-03-12T10:53:01Z</time>
      </trkpt>
      <trkpt lat="49.32013" lon="1.03248">
        <ele>7</ele>
        <time>2017-03-12T10:53:04Z</time>
      </trkpt>
      <trkpt lat="49.31995" lon="1.0325">
        <ele>7</ele>
        <time>2017-03-12T10:53:07Z</time>
      </trkpt>
      <trkpt lat="49.31938" lon="1.03258">
        <ele>6</ele>
        <time>2017-03-12T10:53:17Z</time>
      </trkpt>
      <trkpt lat="49.3191" lon="1.0326">
        <ele>7</ele>
        <time>2017-03-12T10:53:22Z</time>
      </trkpt>
      <trkpt lat="49.31893" lon="1.03258">
        <ele>7</ele>
        <time>2017-03-12T10:53:26Z</time>
      </trkpt>
      <trkpt lat="49.31878" lon="1.03258">
        <ele>8</ele>
        <time>2017-03-12T10:53:29Z</time>
      </trkpt>
      <trkpt lat="49.3185" lon="1.03258">
        <ele>8</ele>
        <time>2017-03-12T10:53:35Z</time>
      </trkpt>
      <trkpt lat="49.31835" lon="1.03258">
        <ele>8</ele>
        <time>2017-03-12T10:53:38Z</time>
      </trkpt>
      <trkpt lat="49.3183" lon="1.03278">
        <ele>8</ele>
        <time>2017-03-12T10:53:41Z</time>
      </trkpt>
      <trkpt lat="49.31835" lon="1.03303">
        <ele>7</ele>
        <time>2017-03-12T10:53:44Z</time>
      </trkpt>
      <trkpt lat="49.3184" lon="1.0333">
        <ele>7</ele>
        <time>2017-03-12T10:53:47Z</time>
      </trkpt>
      <trkpt lat="49.31848" lon="1.03363">
        <ele>6</ele>
        <time>2017-03-12T10:53:51Z</time>
      </trkpt>
      <trkpt lat="49.31853" lon="1.03398">
        <ele>6</ele>
        <time>2017-03-12T10:53:55Z</time>
      </trkpt>
      <trkpt lat="49.31858" lon="1.03435">
        <ele>7</ele>
        <time>2017-03-12T10:53:59Z</time>
      </trkpt>
      <trkpt lat="49.31863" lon="1.0346">
        <ele>6</ele>
        <time>2017-03-12T10:54:02Z</time>
      </trkpt>
      <trkpt lat="49.31868" lon="1.03488">
        <ele>6</ele>
        <time>2017-03-12T10:54:05Z</time>
      </trkpt>
      <trkpt lat="49.31878" lon="1.0353">
        <ele>6</ele>
        <time>2017-03-12T10:54:10Z</time>
      </trkpt>
      <trkpt lat="49.31888" lon="1.0358">
        <ele>7</ele>
        <time>2017-03-12T10:54:16Z</time>
      </trkpt>
      <trkpt lat="49.31885" lon="1.03603">
        <ele>7</ele>
        <time>2017-03-12T10:54:19Z</time>
      </trkpt>
      <trkpt lat="49.3187" lon="1.03618">
        <ele>8</ele>
        <time>2017-03-12T10:54:23Z</time>
      </trkpt>
      <trkpt lat="49.31853" lon="1.03625">
        <ele>8</ele>
        <time>2017-03-12T10:54:26Z</time>
      </trkpt>
      <trkpt lat="49.31835" lon="1.03633">
        <ele>9</ele>
        <time>2017-03-12T10:54:29Z</time>
      </trkpt>
      <trkpt lat="49.31815" lon="1.03645">
        <ele>9</ele>
        <time>2017-03-12T10:54:33Z</time>
      </trkpt>
      <trkpt lat="49.31798" lon="1.03655">
        <ele>8</ele>
        <time>2017-03-12T10:54:36Z</time>
      </trkpt>
      <trkpt lat="49.31783" lon="1.03665">
        <ele>9</ele>
        <time>2017-03-12T10:54:39Z</time>
      </trkpt>
      <trkpt lat="49.31768" lon="1.03673">
        <ele>8</ele>
        <time>2017-03-12T10:54:42Z</time>
      </trkpt>
      <trkpt lat="49.3175" lon="1.0369">
        <ele>9</ele>
        <time>2017-03-12T10:54:50Z</time>
      </trkpt>
      <trkpt lat="49.31735" lon="1.037">
        <ele>9</ele>
        <time>2017-03-12T10:54:55Z</time>
      </trkpt>
      <trkpt lat="49.3172" lon="1.0371">
        <ele>9</ele>
        <time>2017-03-12T10:55:00Z</time>
      </trkpt>
      <trkpt lat="49.31665" lon="1.03745">
        <ele>9</ele>
        <time>2017-03-12T10:55:13Z</time>
      </trkpt>
      <trkpt lat="49.3165" lon="1.03758">
        <ele>8</ele>
        <time>2017-03-12T10:55:17Z</time>
      </trkpt>
      <trkpt lat="49.31655" lon="1.03778">
        <ele>9</ele>
        <time>2017-03-12T10:55:20Z</time>
      </trkpt>
      <trkpt lat="49.31668" lon="1.03798">
        <ele>9</ele>
        <time>2017-03-12T10:55:23Z</time>
      </trkpt>
      <trkpt lat="49.31675" lon="1.03818">
        <ele>9</ele>
        <time>2017-03-12T10:55:26Z</time>
      </trkpt>
      <trkpt lat="49.31688" lon="1.03858">
        <ele>8</ele>
        <time>2017-03-12T10:55:31Z</time>
      </trkpt>
      <trkpt lat="49.31698" lon="1.03875">
        <ele>8</ele>
        <time>2017-03-12T10:55:34Z</time>
      </trkpt>
      <trkpt lat="49.31688" lon="1.03893">
        <ele>8</ele>
        <time>2017-03-12T10:55:37Z</time>
      </trkpt>
      <trkpt lat="49.3167" lon="1.03903">
        <ele>10</ele>
        <time>2017-03-12T10:55:41Z</time>
      </trkpt>
      <trkpt lat="49.31655" lon="1.0391">
        <ele>10</ele>
        <time>2017-03-12T10:55:44Z</time>
      </trkpt>
      <trkpt lat="49.3164" lon="1.0392">
        <ele>12</ele>
        <time>2017-03-12T10:55:47Z</time>
      </trkpt>
      <trkpt lat="49.31625" lon="1.03928">
        <ele>12</ele>
        <time>2017-03-12T10:55:50Z</time>
      </trkpt>
      <trkpt lat="49.31608" lon="1.03938">
        <ele>14</ele>
        <time>2017-03-12T10:55:53Z</time>
      </trkpt>
      <trkpt lat="49.31588" lon="1.0395">
        <ele>15</ele>
        <time>2017-03-12T10:55:57Z</time>
      </trkpt>
      <trkpt lat="49.31575" lon="1.0396">
        <ele>15</ele>
        <time>2017-03-12T10:56:00Z</time>
      </trkpt>
      <trkpt lat="49.31548" lon="1.0398">
        <ele>15</ele>
        <time>2017-03-12T10:56:06Z</time>
      </trkpt>
      <trkpt lat="49.3155" lon="1.04008">
        <ele>14</ele>
        <time>2017-03-12T10:56:10Z</time>
      </trkpt>
      <trkpt lat="49.31553" lon="1.0403">
        <ele>13</ele>
        <time>2017-03-12T10:56:14Z</time>
      </trkpt>
      <trkpt lat="49.31555" lon="1.04055">
        <ele>13</ele>
        <time>2017-03-12T10:56:26Z</time>
      </trkpt>
      <trkpt lat="49.31565" lon="1.04073">
        <ele>13</ele>
        <time>2017-03-12T10:56:29Z</time>
      </trkpt>
      <trkpt lat="49.3157" lon="1.04093">
        <ele>12</ele>
        <time>2017-03-12T10:56:34Z</time>
      </trkpt>
      <trkpt lat="49.31563" lon="1.0411">
        <ele>13</ele>
        <time>2017-03-12T10:56:39Z</time>
      </trkpt>
      <trkpt lat="49.3156" lon="1.04135">
        <ele>13</ele>
        <time>2017-03-12T10:56:44Z</time>
      </trkpt>
      <trkpt lat="49.31558" lon="1.04158">
        <ele>13</ele>
        <time>2017-03-12T10:56:46Z</time>
      </trkpt>
      <trkpt lat="49.31543" lon="1.04173">
        <ele>14</ele>
        <time>2017-03-12T10:56:50Z</time>
      </trkpt>
      <trkpt lat="49.3153" lon="1.04183">
        <ele>15</ele>
        <time>2017-03-12T10:56:53Z</time>
      </trkpt>
      <trkpt lat="49.31515" lon="1.0419">
        <ele>14</ele>
        <time>2017-03-12T10:56:56Z</time>
      </trkpt>
      <trkpt lat="49.315" lon="1.042">
        <ele>14</ele>
        <time>2017-03-12T10:56:59Z</time>
      </trkpt>
      <trkpt lat="49.31483" lon="1.0421">
        <ele>13</ele>
        <time>2017-03-12T10:57:03Z</time>
      </trkpt>
      <trkpt lat="49.3147" lon="1.04223">
        <ele>12</ele>
        <time>2017-03-12T10:57:06Z</time>
      </trkpt>
      <trkpt lat="49.31458" lon="1.04233">
        <ele>12</ele>
        <time>2017-03-12T10:57:09Z</time>
      </trkpt>
      <trkpt lat="49.31438" lon="1.04243">
        <ele>11</ele>
        <time>2017-03-12T10:57:13Z</time>
      </trkpt>
      <trkpt lat="49.31423" lon="1.04245">
        <ele>12</ele>
        <time>2017-03-12T10:57:16Z</time>
      </trkpt>
      <trkpt lat="49.31408" lon="1.04243">
        <ele>13</ele>
        <time>2017-03-12T10:57:21Z</time>
      </trkpt>
      <trkpt lat="49.31405" lon="1.0422">
        <ele>12</ele>
        <time>2017-03-12T10:57:29Z</time>
      </trkpt>
      <trkpt lat="49.31388" lon="1.04215">
        <ele>13</ele>
        <time>2017-03-12T10:57:35Z</time>
      </trkpt>
      <trkpt lat="49.31373" lon="1.04223">
        <ele>13</ele>
        <time>2017-03-12T10:57:40Z</time>
      </trkpt>
      <trkpt lat="49.31353" lon="1.04235">
        <ele>12</ele>
        <time>2017-03-12T10:57:46Z</time>
      </trkpt>
      <trkpt lat="49.31338" lon="1.04245">
        <ele>13</ele>
        <time>2017-03-12T10:57:52Z</time>
      </trkpt>
    </trkseg>
  </trk>
</gpx>